Darstellungsparameter: Aktuell verwendete Einstellungen:
Skalierung der Graphiken ... ?
xyx+y,   Skalierungsfaktor:      Skalierung: Modus: x, Faktor: 1
Darstellungszeitraum ... ?
Vom - - bis: - -   Zeitraum: 07.12.2013 - 06.06.2014
Min/Max/Avg-Anzeige ... ?
Zeige MMA aktuell
Zeige MMA Monat
Zeige MMA alles
Zeige --A aktuell
Zeige --A Monat
Zeige --A alles
Keine MMA-Anzeige
MMA:
Keine MMA-Graphiken
MMA-Basis: 07.12.2013 - 06.06.2014
Quicknavigation für Darstellung... ?
Tage:      1T, 2T, 3T, 5T -1T -2T -3T -5T +1T +2T +3T +5T
Wochen: 1W, 2W, 3W -1W -2W -3W +1W +2W +3W
Monate: 1M, 3M, 6M -1M -3M -6M +1M +3M +6M
Jahre:    1J, 3J, 5J, 10J -1J -3J -5J -10J +1J +3J +5J +10J
Nutze für die Darstellung ... ?
Originaldaten oder ...
Mittelwerte Minima Maxima auf...
Stundenbasis Tagesbasis Wochenbasis
Monatsbasis Jahresbasis      Datenbasis: Mittelwerte auf Stundenbasis
Darstellen als:
Statistik (Auto) Statistik J:M      Darstellung:
Zur Graphik,    zurück zur Übersicht aller Sensoren.
 
Tabellarische Datenbersicht: ?
 
<
Sensor: Nr:Datum:Temp:Abs-Feuchte:Windchill:Wind:
Aussen-T/F 1 07-12-2013 00:00:00 3.325 C 4.74 g/m*3 0.73 C 9.7 km/h
2 07-12-2013 01:00:00 3.35 C 4.73 g/m*3 0.76 C 9.68333 km/h
3 07-12-2013 02:00:00 3.06667 C 4.74 g/m*3 1.04 C 7.38333 km/h
4 07-12-2013 03:00:00 3.1 C 4.78 g/m*3 1.21 C 6.98333 km/h
5 07-12-2013 04:00:00 3.375 C 4.78 g/m*3 1.33 C 7.65 km/h
6 07-12-2013 05:00:00 3.34167 C 4.74 g/m*3 1.25 C 7.79167 km/h
7 07-12-2013 06:00:00 2.90833 C 4.68 g/m*3 0.55 C 8.45833 km/h
8 07-12-2013 07:00:00 2.74167 C 4.72 g/m*3 0.07 C 9.55833 km/h
9 07-12-2013 08:00:00 2.8 C 4.87 g/m*3 0.61 C 7.78333 km/h
10 07-12-2013 09:00:00 2.53333 C 5.17 g/m*3 0.98 C 5.75833 km/h
11 07-12-2013 10:00:00 2.71667 C 5.41 g/m*3 2.72 C 1.6 km/h
12 07-12-2013 11:00:00 3.24167 C 5.63 g/m*3 3.24 C 4.83333 km/h
13 07-12-2013 12:00:00 4.175 C 5.86 g/m*3 1.62 C 10.225 km/h
14 07-12-2013 13:00:00 4.80833 C 6.05 g/m*3 2.08 C 11.69167 km/h
15 07-12-2013 14:00:00 5.34167 C 6.22 g/m*3 2.35 C 13.83333 km/h
16 07-12-2013 15:00:00 5.94167 C 6.37 g/m*3 3.29 C 12.625 km/h
17 07-12-2013 16:00:00 5.94167 C 6.41 g/m*3 3.36 C 12.225 km/h
18 07-12-2013 17:00:00 6.00833 C 6.45 g/m*3 3.42 C 12.35833 km/h
19 07-12-2013 18:00:00 5.98333 C 6.44 g/m*3 3.79 C 10.225 km/h
20 07-12-2013 19:00:00 6.13333 C 6.55 g/m*3 4.17 C 9.275 km/h
21 07-12-2013 20:00:00 6.23333 C 6.55 g/m*3 4.06 C 10.35 km/h
22 07-12-2013 21:00:00 6.18333 C 6.52 g/m*3 4.2 C 9.40833 km/h
23 07-12-2013 22:00:00 6.01667 C 6.48 g/m*3 4.06 C 9.14167 km/h
24 07-12-2013 23:00:00 6.025 C 6.42 g/m*3 4.39 C 7.8 km/h
25 08-12-2013 00:00:00 5.76667 C 6.29 g/m*3 4.12 C 7.65833 km/h
Sensor: Nr:Datum:Temp:Abs-Feuchte:Windchill:Wind:
Aussen-T/F 26 08-12-2013 01:00:00 5.54167 C 6.29 g/m*3 4.09 C 6.825 km/h
27 08-12-2013 02:00:00 5.525 C 6.36 g/m*3 4.65 C 5.08333 km/h
28 08-12-2013 03:00:00 5.65833 C 6.36 g/m*3 4.38 C 6.30833 km/h
29 08-12-2013 04:00:00 5.69167 C 6.31 g/m*3 5.69 C 3.34167 km/h
30 08-12-2013 05:00:00 5.63333 C 6.36 g/m*3 4.44 C 6.03333 km/h
31 08-12-2013 06:00:00 6.05 C 6.49 g/m*3 4.76 C 6.56667 km/h
32 08-12-2013 07:00:00 6.10833 C 6.52 g/m*3 4.52 C 7.65833 km/h
33 08-12-2013 08:00:00 6.06667 C 6.62 g/m*3 3.94 C 9.95 km/h
34 08-12-2013 09:00:00 6.56667 C 6.68 g/m*3 4.35 C 10.9 km/h
35 08-12-2013 10:00:00 6.73333 C 6.76 g/m*3 4.74 C 9.94167 km/h
36 08-12-2013 11:00:00 7.68333 C 6.95 g/m*3 5.32 C 13.16667 km/h
37 08-12-2013 12:00:00 7.90833 C 7.01 g/m*3 5.44 C 14.23333 km/h
38 08-12-2013 13:00:00 7.71667 C 7.04 g/m*3 5.84 C 10.35 km/h
39 08-12-2013 14:00:00 7.74167 C 7.05 g/m*3 5.97 C 9.81667 km/h
40 08-12-2013 15:00:00 8.075 C 6.99 g/m*3 5.95 C 12.21667 km/h
41 08-12-2013 16:00:00 7.66667 C 6.96 g/m*3 5.36 C 12.76667 km/h
42 08-12-2013 17:00:00 7.31667 C 6.9 g/m*3 4.75 C 13.96667 km/h
43 08-12-2013 18:00:00 7.33333 C 6.95 g/m*3 4.83 C 13.56667 km/h
44 08-12-2013 19:00:00 7.38333 C 6.99 g/m*3 5.44 C 10.34167 km/h
45 08-12-2013 20:00:00 7.78333 C 6.98 g/m*3 5.04 C 16.1 km/h
46 08-12-2013 21:00:00 8.21667 C 6.96 g/m*3 5.3 C 18.36667 km/h
47 08-12-2013 22:00:00 8.1 C 6.93 g/m*3 5.58 C 14.9 km/h
48 08-12-2013 23:00:00 7.85833 C 6.97 g/m*3 5.44 C 13.83333 km/h
49 09-12-2013 00:00:00 7.90833 C 6.97 g/m*3 5.68 C 12.625 km/h
50 09-12-2013 01:00:00 7.825 C 6.85 g/m*3 5.19 C 15.3 km/h
Sensor: Nr:Datum:Temp:Abs-Feuchte:Windchill:Wind:
Aussen-T/F 51 09-12-2013 02:00:00 7.44167 C 6.63 g/m*3 5.27 C 11.7 km/h
52 09-12-2013 03:00:00 6.875 C 6.46 g/m*3 4.99 C 9.55 km/h
53 09-12-2013 04:00:00 6.78333 C 6.3 g/m*3 4.97 C 9.14167 km/h
54 09-12-2013 05:00:00 6.78333 C 6.19 g/m*3 4.36 C 12.36667 km/h
55 09-12-2013 06:00:00 6.625 C 6.11 g/m*3 3.91 C 13.96667 km/h
56 09-12-2013 07:00:00 6.26667 C 6.05 g/m*3 4.51 C 8.475 km/h
57 09-12-2013 08:00:00 6.55833 C 6.1 g/m*3 4.15 C 11.96667 km/h
58 09-12-2013 09:00:00 6.91667 C 6.11 g/m*3 4.18 C 14.5 km/h
59 09-12-2013 10:00:00 7.28333 C 6.19 g/m*3 4.43 C 15.96667 km/h
60 09-12-2013 11:00:00 7.49167 C 6.33 g/m*3 5.24 C 12.225 km/h
61 09-12-2013 12:00:00 8.21667 C 6.64 g/m*3 6.9 C 8.05833 km/h
62 09-12-2013 13:00:00 8.40833 C 6.71 g/m*3 6.89 C 9.15 km/h
63 09-12-2013 14:00:00 7.95 C 6.56 g/m*3 5.97 C 11.16667 km/h
64 09-12-2013 15:00:00 7.825 C 6.53 g/m*3 6.18 C 9.26667 km/h
65 09-12-2013 16:00:00 6.73333 C 6.4 g/m*3 5.98 C 5.2 km/h
66 09-12-2013 17:00:00 6.23333 C 6.35 g/m*3 5.45 C 5.075 km/h
67 09-12-2013 18:00:00 6.16667 C 6.34 g/m*3 4.9 C 6.55 km/h
68 09-12-2013 19:00:00 5.30833 C 6.16 g/m*3 5.31 C 1.6 km/h
69 09-12-2013 20:00:00 3.975 C 5.9 g/m*3 3.98 C 0.4 km/h
70 09-12-2013 21:00:00 3.43333 C 5.75 g/m*3 3.43 C 0.4 km/h
71 09-12-2013 22:00:00 2.79167 C 5.56 g/m*3 2.79 C 0 km/h
72 09-12-2013 23:00:00 2.33333 C 5.42 g/m*3 2.33 C 0 km/h
73 10-12-2013 00:00:00 1.9 C 5.3 g/m*3 1.9 C 0 km/h
74 10-12-2013 01:00:00 1.625 C 5.2 g/m*3 1.63 C 0.4 km/h
75 10-12-2013 02:00:00 1.20833 C 5.07 g/m*3 1.21 C 0 km/h
Sensor: Nr:Datum:Temp:Abs-Feuchte:Windchill:Wind:
Aussen-T/F 76 10-12-2013 03:00:00 1.125 C 5.08 g/m*3 1.13 C 0.13333 km/h
77 10-12-2013 04:00:00 1.43333 C 5.19 g/m*3 1.43 C 0.13333 km/h
78 10-12-2013 05:00:00 1.59167 C 5.24 g/m*3 1.59 C 0.26667 km/h
79 10-12-2013 06:00:00 1.66667 C 5.27 g/m*3 1.67 C 0.26667 km/h
80 10-12-2013 07:00:00 1.725 C 5.29 g/m*3 1.73 C 1.33333 km/h
81 10-12-2013 08:00:00 1.85 C 5.32 g/m*3 1.85 C 1.2 km/h
82 10-12-2013 09:00:00 2.25 C 5.42 g/m*3 2.25 C 2.8 km/h
83 10-12-2013 10:00:00 2.96667 C 5.69 g/m*3 2.97 C 1.6 km/h
84 10-12-2013 11:00:00 3.54167 C 5.92 g/m*3 3.54 C 2.53333 km/h
85 10-12-2013 12:00:00 4.35833 C 6.22 g/m*3 4.36 C 4.00833 km/h
86 10-12-2013 13:00:00 4.925 C 6.37 g/m*3 4.93 C 2.66667 km/h
87 10-12-2013 14:00:00 5.60833 C 6.57 g/m*3 5.61 C 0.66667 km/h
88 10-12-2013 15:00:00 5.16667 C 6.4 g/m*3 5.17 C 0.26667 km/h
89 10-12-2013 16:00:00 4.55 C 6.28 g/m*3 4.55 C 0.13333 km/h
90 10-12-2013 17:00:00 4.68333 C 6.39 g/m*3 4.68 C 0.13333 km/h
91 10-12-2013 18:00:00 4.80833 C 6.44 g/m*3 4.81 C 0 km/h
92 10-12-2013 19:00:00 4.9 C 6.48 g/m*3 4.9 C 0 km/h
93 10-12-2013 20:00:00 4.85 C 6.46 g/m*3 4.85 C 0 km/h
94 10-12-2013 21:00:00 4.33333 C 6.24 g/m*3 4.33 C 1.6 km/h
95 10-12-2013 22:00:00 3.65 C 5.99 g/m*3 3.65 C 2.93333 km/h
96 10-12-2013 23:00:00 3.25833 C 5.87 g/m*3 3.26 C 3.2 km/h
97 11-12-2013 00:00:00 3.03333 C 5.78 g/m*3 3.03 C 2.53333 km/h
98 11-12-2013 01:00:00 2.79167 C 5.7 g/m*3 2.79 C 3.6 km/h
99 11-12-2013 02:00:00 2.51667 C 5.62 g/m*3 2.52 C 4.13333 km/h
100 11-12-2013 03:00:00 2.24167 C 5.53 g/m*3 2.24 C 3.06667 km/h
Sensor: Nr:Datum:Temp:Abs-Feuchte:Windchill:Wind:
Aussen-T/F 101 11-12-2013 04:00:00 2.28333 C 5.55 g/m*3 2.28 C 2.93333 km/h
102 11-12-2013 05:00:00 2.275 C 5.55 g/m*3 2.28 C 3.46667 km/h
103 11-12-2013 06:00:00 2.24167 C 5.54 g/m*3 2.24 C 4.95 km/h
104 11-12-2013 07:00:00 2.29167 C 5.55 g/m*3 2.29 C 4.275 km/h
105 11-12-2013 08:00:00 2.34167 C 5.57 g/m*3 2.34 C 4.41667 km/h
106 11-12-2013 09:00:00 2.475 C 5.62 g/m*3 2.48 C 4.66667 km/h
107 11-12-2013 10:00:00 2.775 C 5.74 g/m*3 2.78 C 4.4 km/h
108 11-12-2013 11:00:00 3.24167 C 5.87 g/m*3 1.9 C 5.475 km/h
109 11-12-2013 12:00:00 3.83333 C 6.08 g/m*3 3.83 C 2.8 km/h
110 11-12-2013 13:00:00 4.375 C 6.26 g/m*3 4.38 C 1.2 km/h
111 11-12-2013 14:00:00 4.725 C 6.41 g/m*3 4.72 C 0.8 km/h
112 11-12-2013 15:00:00 4.91667 C 6.48 g/m*3 4.92 C 0.4 km/h
113 11-12-2013 16:00:00 5.275 C 6.64 g/m*3 5.28 C 0 km/h
114 11-12-2013 17:00:00 5.44167 C 6.72 g/m*3 5.44 C 0.53333 km/h
115 11-12-2013 18:00:00 5.41667 C 6.69 g/m*3 5.42 C 0.13333 km/h
116 11-12-2013 19:00:00 5.29167 C 6.58 g/m*3 5.29 C 1.73333 km/h
117 11-12-2013 20:00:00 5.14167 C 6.5 g/m*3 5.14 C 1.46667 km/h
118 11-12-2013 21:00:00 4.99167 C 6.41 g/m*3 4.99 C 2.68333 km/h
119 11-12-2013 22:00:00 4.81667 C 6.35 g/m*3 4.82 C 2.80833 km/h
120 11-12-2013 23:00:00 4.65833 C 6.24 g/m*3 4.66 C 4.15 km/h
121 12-12-2013 00:00:00 4.45833 C 6.16 g/m*3 4.46 C 1.46667 km/h
122 12-12-2013 01:00:00 4.325 C 6.11 g/m*3 4.33 C 2.93333 km/h
123 12-12-2013 02:00:00 4.25833 C 6.08 g/m*3 4.26 C 1.73333 km/h
124 12-12-2013 03:00:00 4.29167 C 6.12 g/m*3 4.29 C 0.13333 km/h
125 12-12-2013 04:00:00 4.3 C 6.1 g/m*3 4.3 C 1.73333 km/h
Sensor: Nr:Datum:Temp:Abs-Feuchte:Windchill:Wind:
Aussen-T/F 126 12-12-2013 05:00:00 4.26667 C 6.08 g/m*3 4.27 C 1.20833 km/h
127 12-12-2013 06:00:00 4.14167 C 6.03 g/m*3 4.14 C 3.075 km/h
128 12-12-2013 07:00:00 4.025 C 5.93 g/m*3 4.03 C 3.2 km/h
129 12-12-2013 08:00:00 3.85 C 5.83 g/m*3 3.85 C 2.66667 km/h
130 12-12-2013 09:00:00 3.91667 C 5.81 g/m*3 3.92 C 4.53333 km/h
131 12-12-2013 10:00:00 4.11667 C 5.79 g/m*3 4.12 C 3.33333 km/h
132 12-12-2013 11:00:00 4.26667 C 5.82 g/m*3 4.27 C 4.26667 km/h
133 12-12-2013 12:00:00 4.6 C 5.95 g/m*3 4.6 C 3.2 km/h
134 12-12-2013 13:00:00 4.78333 C 5.99 g/m*3 3.66 C 5.475 km/h
135 12-12-2013 14:00:00 4.99167 C 6.07 g/m*3 4.99 C 2.26667 km/h
136 12-12-2013 15:00:00 4.74167 C 5.97 g/m*3 4.74 C 3.73333 km/h
137 12-12-2013 16:00:00 3.84167 C 5.76 g/m*3 3.84 C 4.4 km/h
138 12-12-2013 17:00:00 3.6 C 5.69 g/m*3 3.6 C 2.8 km/h
139 12-12-2013 18:00:00 3.6 C 5.69 g/m*3 3.6 C 0.66667 km/h
140 12-12-2013 19:00:00 3.54167 C 5.67 g/m*3 3.54 C 0.4 km/h
141 12-12-2013 20:00:00 3.525 C 5.73 g/m*3 3.53 C 0 km/h
142 12-12-2013 21:00:00 3.60833 C 5.76 g/m*3 3.61 C 0 km/h
143 12-12-2013 22:00:00 3.6 C 5.76 g/m*3 3.6 C 0 km/h
144 12-12-2013 23:00:00 3.50833 C 5.67 g/m*3 3.51 C 0.66667 km/h
145 13-12-2013 00:00:00 3.325 C 5.5 g/m*3 3.33 C 4.01667 km/h
146 13-12-2013 01:00:00 2.99167 C 5.34 g/m*3 1.46 C 5.86667 km/h
147 13-12-2013 02:00:00 2.55 C 5.27 g/m*3 0.66 C 6.70833 km/h
148 13-12-2013 03:00:00 2.4 C 5.25 g/m*3 0.27 C 7.38333 km/h
149 13-12-2013 04:00:00 2.4 C 5.25 g/m*3 0.58 C 6.41667 km/h
150 13-12-2013 05:00:00 2.31667 C 5.21 g/m*3 0.05 C 7.78333 km/h
Sensor: Nr:Datum:Temp:Abs-Feuchte:Windchill:Wind:
Aussen-T/F 151 13-12-2013 06:00:00 2.3 C 5.18 g/m*3 0.07 C 7.65 km/h
152 13-12-2013 07:00:00 2.11667 C 5.15 g/m*3 -0.39 C 8.48333 km/h
153 13-12-2013 08:00:00 2.075 C 5.14 g/m*3 0.25 C 6.3 km/h
154 13-12-2013 09:00:00 2.05 C 5.12 g/m*3 0.59 C 5.35 km/h
155 13-12-2013 10:00:00 2.275 C 5.16 g/m*3 0.29 C 6.84167 km/h
156 13-12-2013 11:00:00 2.625 C 5.25 g/m*3 0.44 C 7.66667 km/h
157 13-12-2013 12:00:00 2.96667 C 5.32 g/m*3 1.29 C 6.28333 km/h
158 13-12-2013 13:00:00 3.2 C 5.36 g/m*3 1.7 C 5.875 km/h
159 13-12-2013 14:00:00 3.45 C 5.44 g/m*3 3.45 C 3.2 km/h
160 13-12-2013 15:00:00 3.38333 C 5.39 g/m*3 3.38 C 4.80833 km/h
161 13-12-2013 16:00:00 3.11667 C 5.35 g/m*3 3.12 C 2.13333 km/h
162 13-12-2013 17:00:00 2.83333 C 5.29 g/m*3 2.83 C 1.6 km/h
163 13-12-2013 18:00:00 2.89167 C 5.36 g/m*3 2.89 C 1.2 km/h
164 13-12-2013 19:00:00 2.76667 C 5.24 g/m*3 2.77 C 3.46667 km/h
165 13-12-2013 20:00:00 2.55833 C 5.19 g/m*3 2.56 C 1.46667 km/h
166 13-12-2013 21:00:00 2.66667 C 5.27 g/m*3 2.67 C 2.8 km/h
167 13-12-2013 22:00:00 2.425 C 5.18 g/m*3 2.42 C 4.675 km/h
168 13-12-2013 23:00:00 2.08333 C 5.02 g/m*3 0.67 C 5.24167 km/h
169 14-12-2013 00:00:00 1.89167 C 4.96 g/m*3 0.09 C 6.16667 km/h
170 14-12-2013 01:00:00 1.88333 C 4.96 g/m*3 -0.7 C 8.61667 km/h
171 14-12-2013 02:00:00 1.625 C 4.93 g/m*3 1.63 C 4.81667 km/h
172 14-12-2013 03:00:00 1.71667 C 5.01 g/m*3 1.72 C 4.40833 km/h
173 14-12-2013 04:00:00 1.93333 C 5.09 g/m*3 1.93 C 0.26667 km/h
174 14-12-2013 05:00:00 2.18333 C 5.23 g/m*3 2.18 C 0 km/h
175 14-12-2013 06:00:00 2.56667 C 5.37 g/m*3 2.57 C 4.55833 km/h
Sensor: Nr:Datum:Temp:Abs-Feuchte:Windchill:Wind:
Aussen-T/F 176 14-12-2013 07:00:00 3.05833 C 5.6 g/m*3 0.41 C 9.69167 km/h
177 14-12-2013 08:00:00 3.3 C 5.76 g/m*3 0.97 C 8.6 km/h
178 14-12-2013 09:00:00 3.43 C 5.81 g/m*3 0.75 C 10.15 km/h
179 14-12-2013 10:00:00 3.74167 C 5.92 g/m*3 1.2 C 9.81667 km/h
180 14-12-2013 11:00:00 4.11667 C 6.05 g/m*3 1.78 C 9.25833 km/h
181 14-12-2013 12:00:00 4.78333 C 6.24 g/m*3 2.35 C 10.21667 km/h
182 14-12-2013 13:00:00 5.13333 C 6.38 g/m*3 3.21 C 8.33333 km/h
183 14-12-2013 14:00:00 5.56667 C 6.47 g/m*3 3.49 C 9.28333 km/h
184 14-12-2013 15:00:00 5.43333 C 6.4 g/m*3 4.04 C 6.56667 km/h
185 14-12-2013 16:00:00 5.375 C 6.37 g/m*3 3.98 C 6.55833 km/h
186 14-12-2013 17:00:00 4.76667 C 6.16 g/m*3 3.79 C 5.08333 km/h
187 14-12-2013 18:00:00 3.075 C 5.7 g/m*3 3.08 C 3.33333 km/h
188 14-12-2013 19:00:00 3.76667 C 5.96 g/m*3 1.78 C 7.65833 km/h
189 14-12-2013 20:00:00 3.93333 C 5.89 g/m*3 2.64 C 5.60833 km/h
190 14-12-2013 21:00:00 3.83333 C 5.83 g/m*3 2.19 C 6.56667 km/h
191 14-12-2013 22:00:00 4.24167 C 5.9 g/m*3 1.8 C 9.80833 km/h
192 14-12-2013 23:00:00 4.775 C 6.06 g/m*3 1.66 C 13.825 km/h
193 15-12-2013 00:00:00 5.04167 C 6.07 g/m*3 3 C 8.71667 km/h
194 15-12-2013 01:00:00 4.9 C 6.08 g/m*3 3.56 C 6.15 km/h
195 15-12-2013 02:00:00 5.04167 C 6.12 g/m*3 4 C 5.35833 km/h
196 15-12-2013 03:00:00 5.16667 C 6.15 g/m*3 5.17 C 4.825 km/h
197 15-12-2013 04:00:00 5.075 C 6.1 g/m*3 5.08 C 3.2 km/h
198 15-12-2013 05:00:00 4.90833 C 6.08 g/m*3 3.2 C 7.375 km/h
199 15-12-2013 06:00:00 5.55833 C 6 g/m*3 4.11 C 6.83333 km/h
200 15-12-2013 07:00:00 5.11667 C 5.91 g/m*3 5.12 C 2.80833 km/h
Sensor: Nr:Datum:Temp:Abs-Feuchte:Windchill:Wind:
Aussen-T/F 201 15-12-2013 08:00:00 4.84167 C 5.97 g/m*3 4.84 C 1.06667 km/h
202 15-12-2013 09:00:00 5.45 C 5.92 g/m*3 3.83 C 7.38333 km/h
203 15-12-2013 10:00:00 6.65833 C 5.82 g/m*3 4.79 C 9.25833 km/h
204 15-12-2013 11:00:00 6.95 C 5.82 g/m*3 4.39 C 13.43333 km/h
205 15-12-2013 12:00:00 7.69167 C 5.87 g/m*3 4.97 C 15.7 km/h
206 15-12-2013 13:00:00 8.21667 C 5.88 g/m*3 5.73 C 14.9 km/h
207 15-12-2013 14:00:00 7.91667 C 6.04 g/m*3 6.74 C 7.25833 km/h
208 15-12-2013 15:00:00 6.39167 C 6.11 g/m*3 6.39 C 3.74167 km/h
209 15-12-2013 16:00:00 5.075 C 5.93 g/m*3 5.08 C 3.33333 km/h
210 15-12-2013 17:00:00 4.43333 C 5.76 g/m*3 4.43 C 2.53333 km/h
211 15-12-2013 18:00:00 4.51667 C 5.91 g/m*3 4.52 C 0.93333 km/h
212 15-12-2013 19:00:00 3.54167 C 5.58 g/m*3 3.54 C 0.8 km/h
213 15-12-2013 20:00:00 2.64167 C 5.37 g/m*3 2.64 C 0.26667 km/h
214 15-12-2013 21:00:00 2.09167 C 5.22 g/m*3 2.09 C 0.26667 km/h
215 15-12-2013 22:00:00 1.48333 C 5.03 g/m*3 1.48 C 0.53333 km/h
216 15-12-2013 23:00:00 1.21667 C 4.99 g/m*3 1.22 C 0.13333 km/h
217 16-12-2013 00:00:00 1.05 C 4.95 g/m*3 1.05 C 0.66667 km/h
218 16-12-2013 01:00:00 0.78333 C 4.86 g/m*3 0.78 C 0 km/h
219 16-12-2013 02:00:00 0.475 C 4.76 g/m*3 0.48 C 0.66667 km/h
220 16-12-2013 03:00:00 0.325 C 4.71 g/m*3 0.33 C 0.66667 km/h
221 16-12-2013 04:00:00 -0.03333 C 4.6 g/m*3 -0.03 C 0.13333 km/h
222 16-12-2013 05:00:00 0.29167 C 4.74 g/m*3 0.29 C 0.26667 km/h
223 16-12-2013 06:00:00 0 C 4.63 g/m*3 0 C 0.43636 km/h
224 16-12-2013 07:00:00 -0.3 C 4.56 g/m*3 -0.3 C 0 km/h
225 16-12-2013 08:00:00 -0.30833 C 4.55 g/m*3 -0.31 C 0.8 km/h
Sensor: Nr:Datum:Temp:Abs-Feuchte:Windchill:Wind:
Aussen-T/F 226 16-12-2013 09:00:00 -0.3 C 4.56 g/m*3 -0.3 C 0.26667 km/h
227 16-12-2013 10:00:00 0.31667 C 4.75 g/m*3 0.32 C 0.4 km/h
228 16-12-2013 11:00:00 1.24167 C 5.03 g/m*3 1.24 C 0.13333 km/h
229 16-12-2013 12:00:00 2.31667 C 5.37 g/m*3 2.32 C 1.46667 km/h
230 16-12-2013 13:00:00 3.33333 C 5.66 g/m*3 3.33 C 2.8 km/h
231 16-12-2013 14:00:00 4.175 C 5.92 g/m*3 4.18 C 3.73333 km/h
232 16-12-2013 15:00:00 4.49167 C 6.02 g/m*3 4.49 C 3.06667 km/h
233 16-12-2013 16:00:00 4.09167 C 5.84 g/m*3 4.09 C 2.66667 km/h
234 16-12-2013 17:00:00 3.225 C 5.62 g/m*3 3.23 C 1.6 km/h
235 16-12-2013 18:00:00 2.575 C 5.4 g/m*3 2.58 C 0.66667 km/h
236 16-12-2013 19:00:00 2.29167 C 5.38 g/m*3 2.29 C 0.13333 km/h
237 16-12-2013 20:00:00 1.78333 C 5.19 g/m*3 1.78 C 0.93333 km/h
238 16-12-2013 21:00:00 1.1 C 4.97 g/m*3 1.1 C 0 km/h
239 16-12-2013 22:00:00 0.88333 C 4.94 g/m*3 0.88 C 0.8 km/h
240 16-12-2013 23:00:00 0.64167 C 4.87 g/m*3 0.64 C 0.26667 km/h
241 17-12-2013 00:00:00 0.15 C 4.7 g/m*3 0.15 C 0.26667 km/h
242 17-12-2013 01:00:00 -0.175 C 4.62 g/m*3 -0.18 C 0 km/h
243 17-12-2013 02:00:00 -0.325 C 4.6 g/m*3 -0.33 C 0 km/h
244 17-12-2013 03:00:00 -0.575 C 4.52 g/m*3 -0.57 C 0 km/h
245 17-12-2013 04:00:00 -0.86667 C 4.43 g/m*3 -0.87 C 0.13333 km/h
246 17-12-2013 05:00:00 -1.175 C 4.33 g/m*3 -1.18 C 0 km/h
247 17-12-2013 06:00:00 -1.15 C 4.34 g/m*3 -1.15 C 0.66667 km/h
248 17-12-2013 07:00:00 -1.34167 C 4.28 g/m*3 -1.34 C 0.8 km/h
249 17-12-2013 08:00:00 -1.5 C 4.23 g/m*3 -1.5 C 0 km/h
250 17-12-2013 09:00:00 -0.94167 C 4.41 g/m*3 -0.94 C 0.93333 km/h
Sensor: Nr:Datum:Temp:Abs-Feuchte:Windchill:Wind:
Aussen-T/F 251 17-12-2013 10:00:00 -0.50833 C 4.55 g/m*3 -0.51 C 0 km/h
252 17-12-2013 11:00:00 1.175 C 5.15 g/m*3 1.18 C 1.6 km/h
253 17-12-2013 12:00:00 3.04167 C 5.84 g/m*3 3.04 C 0.66667 km/h
254 17-12-2013 13:00:00 4.44167 C 6.26 g/m*3 4.44 C 2.8 km/h
255 17-12-2013 14:00:00 5.31667 C 6.34 g/m*3 5.32 C 2.93333 km/h
256 17-12-2013 15:00:00 5.86667 C 6.4 g/m*3 5.87 C 4.53333 km/h
257 17-12-2013 16:00:00 5.10833 C 6.07 g/m*3 5.11 C 2.66667 km/h
258 17-12-2013 17:00:00 3.84167 C 5.8 g/m*3 3.84 C 1.06667 km/h
259 17-12-2013 18:00:00 3.00833 C 5.54 g/m*3 3.01 C 0.4 km/h
260 17-12-2013 19:00:00 2.35833 C 5.37 g/m*3 2.36 C 0 km/h
261 17-12-2013 20:00:00 1.66667 C 5.15 g/m*3 1.67 C 0.26667 km/h
262 17-12-2013 21:00:00 1.08333 C 5 g/m*3 1.08 C 0 km/h
263 17-12-2013 22:00:00 0.99167 C 4.99 g/m*3 0.99 C 0.53333 km/h
264 17-12-2013 23:00:00 0.61667 C 4.87 g/m*3 0.62 C 0 km/h
265 18-12-2013 00:00:00 0.35833 C 4.82 g/m*3 0.36 C 0.13333 km/h
266 18-12-2013 01:00:00 0.4 C 4.83 g/m*3 0.4 C 0 km/h
267 18-12-2013 02:00:00 0.75833 C 4.95 g/m*3 0.76 C 0.26667 km/h
268 18-12-2013 03:00:00 1.04167 C 5.05 g/m*3 1.04 C 0.13333 km/h
269 18-12-2013 04:00:00 1.2 C 5.1 g/m*3 1.2 C 0 km/h
270 18-12-2013 05:00:00 1.49167 C 5.22 g/m*3 1.49 C 0.13333 km/h
271 18-12-2013 06:00:00 1.70833 C 5.29 g/m*3 1.71 C 0.93333 km/h
272 18-12-2013 07:00:00 1.775 C 5.31 g/m*3 1.78 C 1.06667 km/h
273 18-12-2013 08:00:00 1.93333 C 5.37 g/m*3 1.93 C 0.93333 km/h
274 18-12-2013 09:00:00 2.66667 C 5.64 g/m*3 2.67 C 2 km/h
275 18-12-2013 10:00:00 3.29167 C 5.83 g/m*3 3.29 C 2.4 km/h
Sensor: Nr:Datum:Temp:Abs-Feuchte:Windchill:Wind:
Aussen-T/F 276 18-12-2013 11:00:00 3.98333 C 6.01 g/m*3 3.98 C 1.86667 km/h
277 18-12-2013 12:00:00 4.475 C 6.15 g/m*3 4.47 C 0 km/h
278 18-12-2013 13:00:00 6.85833 C 7.1 g/m*3 5.54 C 7.11667 km/h
279 18-12-2013 14:00:00 8.98333 C 7.6 g/m*3 8.15 C 6.56667 km/h
280 18-12-2013 15:00:00 8.75 C 7.61 g/m*3 8.75 C 4.68333 km/h
281 18-12-2013 16:00:00 8.20833 C 7.46 g/m*3 8.21 C 2.13333 km/h
282 18-12-2013 17:00:00 7.35 C 7.26 g/m*3 7.35 C 2 km/h
283 18-12-2013 18:00:00 7.11667 C 7.07 g/m*3 7.12 C 3.2 km/h
284 18-12-2013 19:00:00 5.9 C 6.66 g/m*3 5.9 C 2.8 km/h
285 18-12-2013 20:00:00 5.23333 C 6.47 g/m*3 5.23 C 3.2 km/h
286 18-12-2013 21:00:00 5.11667 C 6.49 g/m*3 5.12 C 3.06667 km/h
287 18-12-2013 22:00:00 5.80833 C 6.77 g/m*3 5.81 C 4.13333 km/h
288 18-12-2013 23:00:00 6.38333 C 6.94 g/m*3 6.38 C 2.93333 km/h
289 19-12-2013 00:00:00 7.03333 C 7.09 g/m*3 7.03 C 4.40833 km/h
290 19-12-2013 01:00:00 8.35833 C 7.24 g/m*3 7.54 C 6.16667 km/h
291 19-12-2013 02:00:00 9.18333 C 7.31 g/m*3 8.53 C 6.025 km/h
292 19-12-2013 03:00:00 9.3 C 7.4 g/m*3 8.42 C 6.975 km/h
293 19-12-2013 04:00:00 9.38333 C 7.47 g/m*3 9.38 C 4.40833 km/h
294 19-12-2013 05:00:00 9.01667 C 7.83 g/m*3 9.02 C 4.675 km/h
295 19-12-2013 06:00:00 8.66667 C 7.99 g/m*3 8.67 C 4.94167 km/h
296 19-12-2013 07:00:00 8.53333 C 8.04 g/m*3 8.53 C 4.95 km/h
297 19-12-2013 08:00:00 8.45833 C 8.14 g/m*3 8.46 C 3.46667 km/h
298 19-12-2013 09:00:00 8.925 C 8.37 g/m*3 8.93 C 4.69167 km/h
299 19-12-2013 10:00:00 9.725 C 8.59 g/m*3 9.22 C 5.775 km/h
300 19-12-2013 11:00:00 10.64167 C 8.36 g/m*3 8.77 C 14.48333 km/h
Sensor: Nr:Datum:Temp:Abs-Feuchte:Windchill:Wind:
Aussen-T/F 301 19-12-2013 12:00:00 10.80833 C 7.93 g/m*3 9.03 C 13.96667 km/h
302 19-12-2013 13:00:00 10.6 C 7.65 g/m*3 9.19 C 11.025 km/h
303 19-12-2013 14:00:00 10.23333 C 7.41 g/m*3 8.57 C 12.21667 km/h
304 19-12-2013 15:00:00 9.3 C 7.17 g/m*3 7.6 C 11.16667 km/h
305 19-12-2013 16:00:00 8.6 C 7 g/m*3 7.1 C 9.275 km/h
306 19-12-2013 17:00:00 7.6 C 7.02 g/m*3 7.6 C 2.4 km/h
307 19-12-2013 18:00:00 6.58333 C 6.84 g/m*3 6.58 C 2.93333 km/h
308 19-12-2013 19:00:00 6.25 C 6.94 g/m*3 6.25 C 2 km/h
309 19-12-2013 20:00:00 5.425 C 6.61 g/m*3 5.43 C 2.13333 km/h
310 19-12-2013 21:00:00 4.9 C 6.42 g/m*3 4.9 C 1.33333 km/h
311 19-12-2013 22:00:00 4.19167 C 6.14 g/m*3 4.19 C 2 km/h
312 19-12-2013 23:00:00 3.575 C 5.91 g/m*3 3.58 C 0.66667 km/h
313 20-12-2013 00:00:00 2.98333 C 5.71 g/m*3 2.98 C 1.33333 km/h
314 20-12-2013 01:00:00 2.61667 C 5.59 g/m*3 2.62 C 0.53333 km/h
315 20-12-2013 02:00:00 2.99167 C 5.76 g/m*3 2.99 C 0.53333 km/h
316 20-12-2013 03:00:00 2.96667 C 5.75 g/m*3 2.97 C 0.53333 km/h
317 20-12-2013 04:00:00 2.98333 C 5.76 g/m*3 2.98 C 0 km/h
318 20-12-2013 05:00:00 3.275 C 5.9 g/m*3 3.28 C 0.4 km/h
319 20-12-2013 06:00:00 3.15833 C 5.83 g/m*3 3.16 C 0.53333 km/h
320 20-12-2013 07:00:00 4.04167 C 6.24 g/m*3 4.04 C 2 km/h
321 20-12-2013 08:00:00 4.05833 C 6.2 g/m*3 4.06 C 0.93333 km/h
322 20-12-2013 09:00:00 4.65 C 6.41 g/m*3 4.65 C 4.14167 km/h
323 20-12-2013 10:00:00 5.73333 C 6.57 g/m*3 5.73 C 4.53333 km/h
324 20-12-2013 11:00:00 6.35833 C 6.64 g/m*3 5.11 C 6.575 km/h
325 20-12-2013 12:00:00 6.35 C 6.54 g/m*3 5.53 C 5.23333 km/h
Sensor: Nr:Datum:Temp:Abs-Feuchte:Windchill:Wind:
Aussen-T/F 326 20-12-2013 13:00:00 6.50833 C 6.38 g/m*3 5.03 C 7.51667 km/h
327 20-12-2013 14:00:00 6.325 C 6.28 g/m*3 5.04 C 6.69167 km/h
328 20-12-2013 15:00:00 5.9 C 6.24 g/m*3 4.88 C 5.61667 km/h
329 20-12-2013 16:00:00 5.36667 C 6.09 g/m*3 5.37 C 4.26667 km/h
330 20-12-2013 17:00:00 4.2 C 5.88 g/m*3 4.2 C 4.40833 km/h
331 20-12-2013 18:00:00 4.05 C 5.84 g/m*3 4.05 C 4.66667 km/h
332 20-12-2013 19:00:00 4.20833 C 5.77 g/m*3 3.1 C 5.20833 km/h
333 20-12-2013 20:00:00 4.05 C 5.7 g/m*3 2.92 C 5.21667 km/h
334 20-12-2013 21:00:00 3.45 C 5.62 g/m*3 3.45 C 3.2 km/h
335 20-12-2013 22:00:00 3.675 C 5.72 g/m*3 3.68 C 4.675 km/h
336 20-12-2013 23:00:00 5.31667 C 5.97 g/m*3 3.79 C 6.975 km/h
337 21-12-2013 00:00:00 4.89167 C 5.84 g/m*3 3.38 C 6.7 km/h
338 21-12-2013 01:00:00 5.125 C 5.88 g/m*3 3.86 C 6.01667 km/h
339 21-12-2013 02:00:00 4.625 C 5.73 g/m*3 4.63 C 4.53333 km/h
340 21-12-2013 03:00:00 3.28333 C 5.48 g/m*3 3.28 C 2.8 km/h
341 21-12-2013 04:00:00 2.675 C 5.4 g/m*3 2.68 C 3.33333 km/h
342 21-12-2013 05:00:00 2.76667 C 5.44 g/m*3 2.77 C 1.33333 km/h
343 21-12-2013 06:00:00 3.28333 C 5.56 g/m*3 3.28 C 1.6 km/h
344 21-12-2013 07:00:00 3.925 C 5.59 g/m*3 3.93 C 2.54167 km/h
345 21-12-2013 08:00:00 3.45833 C 5.51 g/m*3 3.46 C 0.8 km/h
346 21-12-2013 09:00:00 2.93333 C 5.46 g/m*3 2.93 C 0.8 km/h
347 21-12-2013 10:00:00 4.5 C 5.71 g/m*3 4.5 C 1.2 km/h
348 21-12-2013 11:00:00 6 C 5.81 g/m*3 6 C 3.33333 km/h
349 21-12-2013 12:00:00 6.95 C 5.57 g/m*3 5.35 C 8.31667 km/h
350 21-12-2013 13:00:00 7.21667 C 5.51 g/m*3 6.57 C 5.09167 km/h
Sensor: Nr:Datum:Temp:Abs-Feuchte:Windchill:Wind:
Aussen-T/F 351 21-12-2013 14:00:00 6.9 C 5.59 g/m*3 6.9 C 1.86667 km/h
352 21-12-2013 15:00:00 6.31667 C 5.45 g/m*3 6.32 C 2.13333 km/h
353 21-12-2013 16:00:00 5.65833 C 5.32 g/m*3 5.66 C 2.13333 km/h
354 21-12-2013 17:00:00 5.025 C 5.3 g/m*3 5.03 C 2 km/h
355 21-12-2013 18:00:00 4.86667 C 5.15 g/m*3 4.87 C 2.13333 km/h
356 21-12-2013 19:00:00 4.81667 C 5.2 g/m*3 4.82 C 2.66667 km/h
357 21-12-2013 20:00:00 5.00833 C 5.25 g/m*3 5.01 C 4.01667 km/h
358 21-12-2013 21:00:00 4.78333 C 5.31 g/m*3 4.78 C 2.8 km/h
359 21-12-2013 22:00:00 4.79167 C 5.23 g/m*3 4.79 C 3.06667 km/h
360 21-12-2013 23:00:00 5.725 C 4.99 g/m*3 5.73 C 4.40833 km/h
361 22-12-2013 00:00:00 6.39167 C 4.57 g/m*3 5.12 C 6.69167 km/h
362 22-12-2013 01:00:00 7.3 C 4.31 g/m*3 6.62 C 5.21667 km/h
363 22-12-2013 02:00:00 7.425 C 4.9 g/m*3 6.31 C 6.7 km/h
364 22-12-2013 03:00:00 8.35 C 5.78 g/m*3 5.47 C 18.375 km/h
365 22-12-2013 04:00:00 8.01667 C 6.26 g/m*3 5.34 C 15.96667 km/h
366 22-12-2013 05:00:00 7.28333 C 6.84 g/m*3 4.5 C 15.43333 km/h
367 22-12-2013 06:00:00 7.34167 C 7.01 g/m*3 4.14 C 18.9 km/h
368 22-12-2013 07:00:00 7.66667 C 7.3 g/m*3 5.5 C 11.94167 km/h
369 22-12-2013 08:00:00 7.35833 C 7.46 g/m*3 7.36 C 2.13333 km/h
370 22-12-2013 09:00:00 8.13333 C 7.78 g/m*3 7.48 C 5.49167 km/h
371 22-12-2013 10:00:00 9.16667 C 7.91 g/m*3 7.88 C 8.71667 km/h
372 22-12-2013 11:00:00 9.46667 C 7.94 g/m*3 8.65 C 6.83333 km/h
373 22-12-2013 12:00:00 9.71667 C 8.04 g/m*3 9.33 C 5.35833 km/h
374 22-12-2013 13:00:00 10.16667 C 8.01 g/m*3 8.69 C 10.88333 km/h
375 22-12-2013 14:00:00 10.21667 C 7.99 g/m*3 8.34 C 13.7 km/h
Sensor: Nr:Datum:Temp:Abs-Feuchte:Windchill:Wind:
Aussen-T/F 376 22-12-2013 15:00:00 9.96667 C 8.05 g/m*3 8.06 C 13.56667 km/h
377 22-12-2013 16:00:00 10.09167 C 7.95 g/m*3 8.12 C 14.23333 km/h
378 22-12-2013 17:00:00 10 C 7.92 g/m*3 7.93 C 14.9 km/h
379 22-12-2013 18:00:00 9.925 C 7.93 g/m*3 7.51 C 17.7 km/h
380 22-12-2013 19:00:00 9.9 C 7.95 g/m*3 7.19 C 20.65 km/h
381 22-12-2013 20:00:00 9.93333 C 7.94 g/m*3 7.23 C 20.63333 km/h
382 22-12-2013 21:00:00 9.725 C 8 g/m*3 7.67 C 14.23333 km/h
383 22-12-2013 22:00:00 9.38333 C 8.15 g/m*3 8.08 C 9.00833 km/h
384 22-12-2013 23:00:00 8.63333 C 8.06 g/m*3 8.63 C 3.60833 km/h
385 23-12-2013 00:00:00 8.025 C 7.84 g/m*3 8.03 C 4.26667 km/h
386 23-12-2013 01:00:00 7.83333 C 7.39 g/m*3 5.43 C 13.675 km/h
387 23-12-2013 02:00:00 5.83333 C 6.77 g/m*3 5.83 C 4.14167 km/h
388 23-12-2013 03:00:00 5.975 C 6.82 g/m*3 5.11 C 5.20833 km/h
389 23-12-2013 04:00:00 5.9 C 6.82 g/m*3 5.9 C 4.13333 km/h
390 23-12-2013 05:00:00 7.15833 C 6.88 g/m*3 5.19 C 10.21667 km/h
391 23-12-2013 06:00:00 6.43333 C 6.73 g/m*3 5.4 C 5.9 km/h
392 23-12-2013 07:00:00 5.95 C 6.74 g/m*3 5.95 C 3.46667 km/h
393 23-12-2013 08:00:00 5.51667 C 6.58 g/m*3 5.52 C 2 km/h
394 23-12-2013 09:00:00 5.175 C 6.53 g/m*3 5.18 C 0.8 km/h
395 23-12-2013 10:00:00 6.825 C 7.14 g/m*3 5.17 C 8.4625 km/h
396 23-12-2013 11:00:00 8.99167 C 7.38 g/m*3 7.67 C 8.73333 km/h
397 23-12-2013 12:00:00 9.54167 C 7.54 g/m*3 8.54 C 7.65833 km/h
398 23-12-2013 13:00:00 10.1125 C 7.52 g/m*3 9.7 C 5.625 km/h
399 23-12-2013 14:00:00 10.69167 C 7.61 g/m*3 9.76 C 8.325 km/h
400 23-12-2013 15:00:00 10.9 C 7.6 g/m*3 9.88 C 9 km/h
Sensor: Nr:Datum:Temp:Abs-Feuchte:Windchill:Wind:
Aussen-T/F 401 23-12-2013 16:00:00 10.1 C 7.61 g/m*3 9.48 C 6.4 km/h
402 23-12-2013 17:00:00 10.58333 C 7.78 g/m*3 9.82 C 7.4 km/h
403 23-12-2013 18:00:00 10.55833 C 7.8 g/m*3 10.21 C 5.625 km/h
404 23-12-2013 19:00:00 9.97778 C 7.59 g/m*3 9.43 C 6.07778 km/h
405 23-12-2013 20:00:00 10.26667 C 7.46 g/m*3 9.2 C 8.58333 km/h
406 23-12-2013 21:00:00 10.21667 C 7.42 g/m*3 9.19 C 8.34167 km/h
407 23-12-2013 22:00:00 10.43333 C 7.42 g/m*3 9.23 C 9.54167 km/h
408 23-12-2013 23:00:00 10.25833 C 7.26 g/m*3 8.99 C 9.69167 km/h
409 24-12-2013 00:00:00 9.9 C 6.99 g/m*3 8.72 C 8.86667 km/h
410 24-12-2013 01:00:00 9.575 C 6.84 g/m*3 8.62 C 7.5 km/h
411 24-12-2013 02:00:00 8.85833 C 6.65 g/m*3 7.9 C 6.98333 km/h
412 24-12-2013 03:00:00 8.51667 C 6.66 g/m*3 7.88 C 5.61667 km/h
413 24-12-2013 04:00:00 8.625 C 6.75 g/m*3 7.96 C 5.75833 km/h
414 24-12-2013 05:00:00 9.61667 C 6.84 g/m*3 8.88 C 6.575 km/h
415 24-12-2013 06:00:00 9.81667 C 6.97 g/m*3 9.26 C 6.01667 km/h
416 24-12-2013 07:00:00 9.95833 C 7.05 g/m*3 9.12 C 7.25 km/h
417 24-12-2013 08:00:00 11.84167 C 7.24 g/m*3 11.84 C 8.05833 km/h
418 24-12-2013 09:00:00 12.26667 C 7.36 g/m*3 12.27 C 8.18333 km/h
419 24-12-2013 10:00:00 12.8 C 7.57 g/m*3 12.8 C 8.73333 km/h
420 24-12-2013 11:00:00 13.88333 C 7.48 g/m*3 13.88 C 16.10833 km/h
421 24-12-2013 12:00:00 13.96667 C 7.71 g/m*3 13.97 C 9.94167 km/h
422 24-12-2013 13:00:00 13.85833 C 7.8 g/m*3 13.86 C 10.71667 km/h
423 24-12-2013 14:00:00 13.90833 C 7.92 g/m*3 13.91 C 10.225 km/h
424 24-12-2013 15:00:00 13.08333 C 8.39 g/m*3 13.08 C 8.45833 km/h
425 24-12-2013 16:00:00 12.75 C 8.32 g/m*3 12.75 C 8.6 km/h
Sensor: Nr:Datum:Temp:Abs-Feuchte:Windchill:Wind:
Aussen-T/F 426 24-12-2013 17:00:00 12.74167 C 8.3 g/m*3 12.74 C 9.26667 km/h
427 24-12-2013 18:00:00 12.78333 C 8.22 g/m*3 12.78 C 6.70833 km/h
428 24-12-2013 19:00:00 12.73333 C 8.25 g/m*3 12.73 C 8.05 km/h
429 24-12-2013 20:00:00 12.58333 C 8.27 g/m*3 12.58 C 8.6 km/h
430 24-12-2013 21:00:00 11.98182 C 8.58 g/m*3 11.98 C 9.82727 km/h
431 24-12-2013 22:00:00 11.16 C 8.77 g/m*3 11.16 C 5.3 km/h
432 24-12-2013 23:00:00 10.575 C 8.62 g/m*3 10.58 C 4.81667 km/h
433 25-12-2013 00:00:00 10.85833 C 8.53 g/m*3 10 C 8.05833 km/h
434 25-12-2013 01:00:00 10.64167 C 8.6 g/m*3 10.14 C 6.29167 km/h
435 25-12-2013 02:00:00 10.675 C 8.56 g/m*3 9.9 C 7.50833 km/h
436 25-12-2013 03:00:00 10.8 C 8.7 g/m*3 10.22 C 6.70833 km/h
437 25-12-2013 04:00:00 10.775 C 8.85 g/m*3 10.25 C 6.44167 km/h
438 25-12-2013 05:00:00 10.53333 C 8.86 g/m*3 9.52 C 8.6 km/h
439 25-12-2013 06:00:00 10.025 C 8.58 g/m*3 9.32 C 6.71667 km/h
440 25-12-2013 07:00:00 9.425 C 8.27 g/m*3 7.91 C 10.2 km/h
441 25-12-2013 08:00:00 8.275 C 7.57 g/m*3 7.44 C 6.16667 km/h
442 25-12-2013 09:00:00 7.55 C 7.47 g/m*3 7.55 C 2.93333 km/h
443 25-12-2013 11:00:00 8.16667 C 8.08 g/m*3 8.17 C 0 km/h
444 25-12-2013 16:00:00 7.775 C 7.82 g/m*3 7.78 C 0.26667 km/h
445 25-12-2013 17:00:00 7.40833 C 7.59 g/m*3 7.41 C 0.93333 km/h
446 25-12-2013 18:00:00 6.28333 C 7.06 g/m*3 6.28 C 2.66667 km/h
447 25-12-2013 19:00:00 5.85 C 6.94 g/m*3 5.85 C 1.46667 km/h
448 25-12-2013 20:00:00 6.275 C 7.11 g/m*3 6.28 C 0.8 km/h
449 25-12-2013 21:00:00 5.65 C 6.78 g/m*3 5.65 C 1.73333 km/h
450 25-12-2013 22:00:00 6.06667 C 7.01 g/m*3 6.07 C 1.74167 km/h
Sensor: Nr:Datum:Temp:Abs-Feuchte:Windchill:Wind:
Aussen-T/F 451 25-12-2013 23:00:00 6.375 C 7.09 g/m*3 6.38 C 1.33333 km/h
452 26-12-2013 00:00:00 5.80833 C 6.8 g/m*3 5.81 C 2.13333 km/h
453 26-12-2013 01:00:00 5.41667 C 6.69 g/m*3 5.42 C 0.26667 km/h
454 26-12-2013 02:00:00 5.30833 C 6.66 g/m*3 5.31 C 0.13333 km/h
455 26-12-2013 03:00:00 5.50833 C 6.76 g/m*3 5.51 C 0.13333 km/h
456 26-12-2013 04:00:00 5.79167 C 6.87 g/m*3 5.79 C 0 km/h
457 26-12-2013 05:00:00 5.74167 C 6.85 g/m*3 5.74 C 0 km/h
458 26-12-2013 06:00:00 5.65833 C 6.81 g/m*3 5.66 C 0 km/h
459 26-12-2013 07:00:00 5.7 C 6.83 g/m*3 5.7 C 0.4 km/h
460 26-12-2013 08:00:00 5.79167 C 6.91 g/m*3 5.79 C 0 km/h
461 26-12-2013 09:00:00 5.975 C 7.03 g/m*3 5.98 C 0 km/h
462 26-12-2013 10:00:00 6.15833 C 7.11 g/m*3 6.16 C 0 km/h
463 26-12-2013 11:00:00 6.39167 C 7.2 g/m*3 6.39 C 3.33333 km/h
464 26-12-2013 12:00:00 6.5 C 7.2 g/m*3 5.58 C 5.6 km/h
465 26-12-2013 13:00:00 7.42857 C 7.33 g/m*3 7.43 C 0.68571 km/h
466 26-12-2013 14:00:00 7.65 C 7.37 g/m*3 7.65 C 0.53333 km/h
467 26-12-2013 15:00:00 7.68 C 7.36 g/m*3 7.68 C 0.16 km/h
468 26-12-2013 16:00:00 7.21818 C 7.38 g/m*3 7.22 C 0 km/h
469 26-12-2013 17:00:00 7.05833 C 7.29 g/m*3 7.06 C 1.6 km/h
470 26-12-2013 18:00:00 6.65 C 7.19 g/m*3 6.65 C 2.53333 km/h
471 26-12-2013 19:00:00 6.11667 C 6.98 g/m*3 6.12 C 2.93333 km/h
472 26-12-2013 20:00:00 5.71667 C 6.84 g/m*3 5.72 C 2.66667 km/h
473 26-12-2013 21:00:00 4.83333 C 6.36 g/m*3 4.83 C 4.40833 km/h
474 26-12-2013 22:00:00 5.18333 C 6.41 g/m*3 4.11 C 5.49167 km/h
475 26-12-2013 23:00:00 5.55833 C 6.28 g/m*3 3.96 C 7.36667 km/h
Sensor: Nr:Datum:Temp:Abs-Feuchte:Windchill:Wind:
Aussen-T/F 476 27-12-2013 00:00:00 4.73333 C 6.05 g/m*3 3.32 C 6.29167 km/h
477 27-12-2013 01:00:00 4.975 C 6 g/m*3 3.35 C 7.1 km/h
478 27-12-2013 02:00:00 3.525 C 5.69 g/m*3 3.53 C 3.46667 km/h
479 27-12-2013 03:00:00 2.50833 C 5.46 g/m*3 2.51 C 2.53333 km/h
480 27-12-2013 04:00:00 3.53333 C 5.84 g/m*3 3.53 C 3.73333 km/h
481 27-12-2013 05:00:00 5.075 C 6.02 g/m*3 3.94 C 5.625 km/h
482 27-12-2013 06:00:00 4.95833 C 5.87 g/m*3 4.96 C 3.875 km/h
483 27-12-2013 07:00:00 4.25833 C 5.84 g/m*3 4.26 C 2.13333 km/h
484 27-12-2013 08:00:00 3.90833 C 5.78 g/m*3 3.91 C 3.46667 km/h
485 27-12-2013 09:00:00 5.175 C 5.95 g/m*3 4.15 C 5.35833 km/h
486 27-12-2013 10:00:00 6.55833 C 5.82 g/m*3 4.25 C 11.40833 km/h
487 27-12-2013 11:00:00 7.125 C 5.85 g/m*3 5.59 C 8.18333 km/h
488 27-12-2013 12:00:00 7.71111 C 6 g/m*3 5.96 C 9.68889 km/h
489 27-12-2013 13:00:00 8.35 C 6.26 g/m*3 6.43 C 11.275 km/h
490 27-12-2013 14:00:00 8.8 C 6.44 g/m*3 7.59 C 8.05 km/h
491 27-12-2013 16:00:00 9.2 C 6.71 g/m*3 8.05 C 8.0625 km/h
492 27-12-2013 17:00:00 8.85 C 6.96 g/m*3 8.45 C 5.0125 km/h
493 27-12-2013 18:00:00 8.9 C 7.1 g/m*3 7.82 C 7.525 km/h
494 27-12-2013 19:00:00 9.25 C 7.29 g/m*3 8.71 C 5.625 km/h
495 27-12-2013 20:00:00 9.66667 C 7.64 g/m*3 9.35 C 5.08333 km/h
496 27-12-2013 21:00:00 9.925 C 7.85 g/m*3 9.93 C 4.28333 km/h
497 27-12-2013 22:00:00 10.03333 C 8.25 g/m*3 9.3 C 6.84167 km/h
498 27-12-2013 23:00:00 9.675 C 8.39 g/m*3 9.09 C 6.025 km/h
499 28-12-2013 00:00:00 9.71667 C 8.38 g/m*3 9.72 C 4.675 km/h
500 28-12-2013 01:00:00 9.94167 C 8.27 g/m*3 9.94 C 3.2 km/h
Sensor: Nr:Datum:Temp:Abs-Feuchte:Windchill:Wind:
Aussen-T/F 501 28-12-2013 02:00:00 10.85 C 8.06 g/m*3 10.37 C 6.3 km/h
502 28-12-2013 03:00:00 10.79167 C 7.87 g/m*3 10.45 C 5.74167 km/h
503 28-12-2013 04:00:00 10.54167 C 7.77 g/m*3 10.54 C 4.8 km/h
504 28-12-2013 05:00:00 9.9 C 7.99 g/m*3 9.9 C 4.275 km/h
505 28-12-2013 06:00:00 9.20833 C 7.94 g/m*3 9.21 C 4.53333 km/h
506 28-12-2013 07:00:00 9.35 C 7.86 g/m*3 9.35 C 4.95 km/h
507 28-12-2013 08:00:00 10.06667 C 7.96 g/m*3 9.16 C 7.64167 km/h
508 28-12-2013 09:00:00 9.95833 C 7.92 g/m*3 8.95 C 8.05833 km/h
509 28-12-2013 10:00:00 10.25 C 8.07 g/m*3 8.87 C 10.34167 km/h
510 28-12-2013 11:00:00 10.48333 C 8.19 g/m*3 9.95 C 6.30833 km/h
511 28-12-2013 12:00:00 9.84167 C 8.47 g/m*3 9.84 C 2.54167 km/h
512 28-12-2013 13:00:00 9.45 C 8.51 g/m*3 9.45 C 0.4 km/h
513 28-12-2013 14:00:00 9.36667 C 8.57 g/m*3 9.37 C 0.13333 km/h
514 28-12-2013 15:00:00 9.24167 C 8.58 g/m*3 9.24 C 0 km/h
515 28-12-2013 16:00:00 8.86667 C 8.4 g/m*3 8.87 C 0 km/h
516 28-12-2013 17:00:00 8.51667 C 8.28 g/m*3 8.52 C 0.13333 km/h
517 28-12-2013 18:00:00 8.24167 C 8.15 g/m*3 8.24 C 0 km/h
518 28-12-2013 19:00:00 7.93333 C 7.98 g/m*3 7.93 C 0.4 km/h
519 28-12-2013 20:00:00 7.73333 C 7.9 g/m*3 7.73 C 0.13333 km/h
520 28-12-2013 21:00:00 7.29167 C 7.67 g/m*3 7.29 C 4.28333 km/h
521 28-12-2013 22:00:00 6.58333 C 7.08 g/m*3 5.58 C 5.89167 km/h
522 28-12-2013 23:00:00 5.34167 C 6.43 g/m*3 2.65 C 12.09167 km/h
523 29-12-2013 00:00:00 4.66667 C 6.21 g/m*3 3.19 C 6.45 km/h
524 29-12-2013 01:00:00 4.4 C 6.2 g/m*3 4.4 C 2.13333 km/h
525 29-12-2013 02:00:00 5.075 C 6.29 g/m*3 2.3 C 12.23333 km/h
Sensor: Nr:Datum:Temp:Abs-Feuchte:Windchill:Wind:
Aussen-T/F 526 29-12-2013 03:00:00 5.3 C 6.27 g/m*3 3.65 C 7.375 km/h
527 29-12-2013 04:00:00 5.60833 C 6.45 g/m*3 5.61 C 4.95 km/h
528 29-12-2013 05:00:00 5.46667 C 6.59 g/m*3 5.47 C 1.6 km/h
529 29-12-2013 06:00:00 5.51667 C 6.66 g/m*3 5.52 C 3.475 km/h
530 29-12-2013 07:00:00 5.025 C 6.48 g/m*3 5.03 C 2.93333 km/h
531 29-12-2013 08:00:00 5.10833 C 6.57 g/m*3 5.11 C 3.75 km/h
532 29-12-2013 09:00:00 4.925 C 6.46 g/m*3 4.93 C 3.86667 km/h
533 29-12-2013 10:00:00 5.05 C 6.47 g/m*3 5.05 C 4.97 km/h
534 29-12-2013 13:00:00 7.16667 C 6.66 g/m*3 5.1 C 10.76667 km/h
535 29-12-2013 18:00:00 3.62 C 6.2 g/m*3 3.62 C 3.84 km/h
536 29-12-2013 21:00:00 2.95 C 5.57 g/m*3 2.95 C 4.8 km/h
537 29-12-2013 22:00:00 3.375 C 5.74 g/m*3 3.38 C 4.95833 km/h
538 29-12-2013 23:00:00 2.65 C 5.51 g/m*3 2.65 C 2.54167 km/h
539 30-12-2013 00:00:00 3.13333 C 5.66 g/m*3 3.13 C 3.48333 km/h
540 30-12-2013 01:00:00 3.69167 C 5.82 g/m*3 3.69 C 2.80833 km/h
541 30-12-2013 02:00:00 4.26667 C 5.86 g/m*3 4.27 C 3.6 km/h
542 30-12-2013 03:00:00 3.89167 C 5.75 g/m*3 3.89 C 3.73333 km/h
543 30-12-2013 04:00:00 4.35 C 5.8 g/m*3 4.35 C 3.60833 km/h
544 30-12-2013 05:00:00 4.66667 C 5.76 g/m*3 4.67 C 3.075 km/h
545 30-12-2013 06:00:00 4.82 C 5.68 g/m*3 4.82 C 3.2 km/h
546 30-12-2013 07:00:00 4.8 C 5.63 g/m*3 4.8 C 3.2 km/h
547 30-12-2013 13:00:00 6 C 5.81 g/m*3 4.73 C 6.45 km/h
548 30-12-2013 14:00:00 5.77143 C 5.81 g/m*3 5.77 C 3.2 km/h
549 30-12-2013 15:00:00 4.7 C 5.86 g/m*3 4.7 C 2.4 km/h
550 30-12-2013 16:00:00 4.2 C 5.8 g/m*3 4.2 C 1.6 km/h
Sensor: Nr:Datum:Temp:Abs-Feuchte:Windchill:Wind:
Aussen-T/F 551 30-12-2013 18:00:00 4.16667 C 5.79 g/m*3 4.17 C 2.66667 km/h
552 30-12-2013 20:00:00 3.7 C 5.73 g/m*3 3.7 C 0 km/h
553 30-12-2013 21:00:00 3.70833 C 5.74 g/m*3 3.71 C 0 km/h
554 30-12-2013 22:00:00 3.8 C 5.77 g/m*3 3.8 C 0.53333 km/h
555 31-12-2013 01:00:00 3.33333 C 5.53 g/m*3 3.33 C 3.2 km/h
556 31-12-2013 02:00:00 3.2 C 5.48 g/m*3 3.2 C 3.2 km/h
557 31-12-2013 07:00:00 1.02727 C 4.96 g/m*3 1.03 C 2.03636 km/h
558 31-12-2013 08:00:00 1.075 C 4.96 g/m*3 1.08 C 0.4 km/h
559 31-12-2013 09:00:00 1.15 C 5 g/m*3 1.15 C 0.13333 km/h
560 31-12-2013 10:00:00 1.78333 C 5.26 g/m*3 1.78 C 0.26667 km/h
561 31-12-2013 11:00:00 2.7 C 5.56 g/m*3 2.7 C 0.64 km/h
562 31-12-2013 12:00:00 3.1 C 5.78 g/m*3 3.1 C 2.4 km/h
563 31-12-2013 13:00:00 4.35 C 5.92 g/m*3 4.35 C 1.2 km/h
564 31-12-2013 18:00:00 4.14444 C 5.4 g/m*3 1.93 C 8.76667 km/h
565 31-12-2013 19:00:00 4.60833 C 5.38 g/m*3 2.59 C 8.325 km/h
566 31-12-2013 20:00:00 4.35833 C 5.39 g/m*3 3.11 C 5.63333 km/h
567 31-12-2013 21:00:00 3.925 C 5.39 g/m*3 3.93 C 3.20833 km/h
568 31-12-2013 22:00:00 3.8 C 5.29 g/m*3 3.8 C 4.55 km/h
569 31-12-2013 23:00:00 2.775 C 5.23 g/m*3 2.78 C 2.13333 km/h
570 01-01-2014 00:00:00 2.65 C 5.19 g/m*3 2.65 C 1.46667 km/h
571 01-01-2014 01:00:00 3 C 5.35 g/m*3 3 C 1.2 km/h
572 01-01-2014 02:00:00 3.675 C 5.46 g/m*3 3.68 C 2.80833 km/h
573 01-01-2014 03:00:00 4.36667 C 5.71 g/m*3 4.37 C 2 km/h
574 01-01-2014 04:00:00 4.60833 C 5.98 g/m*3 4.61 C 1.46667 km/h
575 01-01-2014 05:00:00 5.16667 C 6.13 g/m*3 5.17 C 1.86667 km/h
Sensor: Nr:Datum:Temp:Abs-Feuchte:Windchill:Wind:
Aussen-T/F 576 01-01-2014 06:00:00 5.48333 C 6.37 g/m*3 5.48 C 0.66667 km/h
577 01-01-2014 07:00:00 5.575 C 6.53 g/m*3 5.58 C 0.53333 km/h
578 01-01-2014 08:00:00 5.025 C 6.34 g/m*3 5.03 C 2.26667 km/h
579 01-01-2014 09:00:00 5.1 C 6.48 g/m*3 5.1 C 1.24444 km/h
580 01-01-2014 10:00:00 6.325 C 6.68 g/m*3 6.33 C 1.6 km/h
581 01-01-2014 11:00:00 7.025 C 6.8 g/m*3 7.03 C 2.54167 km/h
582 01-01-2014 12:00:00 6.95833 C 6.82 g/m*3 6.96 C 2.93333 km/h
583 01-01-2014 13:00:00 8.69167 C 6.7 g/m*3 8.69 C 4.14167 km/h
584 01-01-2014 14:00:00 8.78333 C 6.79 g/m*3 8.78 C 4.68333 km/h
585 01-01-2014 15:00:00 8.39167 C 6.83 g/m*3 8.39 C 2.8 km/h
586 01-01-2014 16:00:00 7.6 C 6.76 g/m*3 7.6 C 4.55 km/h
587 01-01-2014 17:00:00 7.8 C 6.87 g/m*3 7.01 C 5.76667 km/h
588 01-01-2014 18:00:00 7.95 C 6.98 g/m*3 6.75 C 7.38333 km/h
589 01-01-2014 19:00:00 8.15 C 6.91 g/m*3 7.29 C 6.175 km/h
590 01-01-2014 20:00:00 7.91667 C 6.93 g/m*3 7.92 C 4.81667 km/h
591 01-01-2014 21:00:00 8.5 C 6.97 g/m*3 7.59 C 6.575 km/h
592 01-01-2014 22:00:00 8.13333 C 6.98 g/m*3 7.57 C 5.21667 km/h
593 01-01-2014 23:00:00 8.04167 C 7.02 g/m*3 7.42 C 5.35 km/h
594 02-01-2014 00:00:00 8.63333 C 7.11 g/m*3 8.09 C 5.35833 km/h
595 02-01-2014 01:00:00 8.89167 C 7.19 g/m*3 8.34 C 5.49167 km/h
596 02-01-2014 02:00:00 9.375 C 7.42 g/m*3 8.51 C 6.96667 km/h
597 02-01-2014 03:00:00 8.95833 C 7.53 g/m*3 8.96 C 4.95 km/h
598 02-01-2014 04:00:00 8.1 C 7.57 g/m*3 8.1 C 4.8 km/h
599 02-01-2014 05:00:00 7.69167 C 7.57 g/m*3 7.69 C 3.46667 km/h
600 02-01-2014 06:00:00 7.7 C 7.66 g/m*3 7.7 C 3.2 km/h
Sensor: Nr:Datum:Temp:Abs-Feuchte:Windchill:Wind:
Aussen-T/F 601 02-01-2014 07:00:00 7.84545 C 7.78 g/m*3 7.85 C 3.64545 km/h
602 02-01-2014 08:00:00 8.8 C 8.18 g/m*3 7.47 C 8.6 km/h
603 02-01-2014 09:00:00 9.08 C 8.05 g/m*3 9.08 C 3.52 km/h
604 02-01-2014 10:00:00 9.53333 C 8.18 g/m*3 9.53 C 4.68333 km/h
605 02-01-2014 11:00:00 10.38333 C 8.52 g/m*3 10.38 C 4.66667 km/h
606 02-01-2014 12:00:00 11.01667 C 8.3 g/m*3 11.02 C 9.79167 km/h
607 02-01-2014 13:00:00 10.89167 C 7.94 g/m*3 8.96 C 15.43333 km/h
608 02-01-2014 14:00:00 10.54167 C 7.84 g/m*3 8.63 C 14.63333 km/h
609 02-01-2014 15:00:00 9.29167 C 7.74 g/m*3 8.13 C 8.2 km/h
610 02-01-2014 16:00:00 8.70833 C 7.31 g/m*3 7.23 C 9.275 km/h
611 02-01-2014 17:00:00 7.71111 C 7.08 g/m*3 7.71 C 4.45556 km/h
612 02-01-2014 18:00:00 6.81667 C 7.02 g/m*3 6.82 C 2.8 km/h
613 02-01-2014 19:00:00 6.80833 C 7.14 g/m*3 6.81 C 3.2 km/h
614 02-01-2014 20:00:00 6.31667 C 7.01 g/m*3 6.32 C 2.93333 km/h
615 02-01-2014 21:00:00 6.06667 C 6.88 g/m*3 6.07 C 2.66667 km/h
616 02-01-2014 22:00:00 5.85 C 6.8 g/m*3 5.85 C 2.13333 km/h
617 02-01-2014 23:00:00 4.95833 C 6.43 g/m*3 4.96 C 0.13333 km/h
618 03-01-2014 00:00:00 4.025 C 6.1 g/m*3 4.03 C 0.26667 km/h
619 03-01-2014 01:00:00 3.80833 C 6.06 g/m*3 3.81 C 0.26667 km/h
620 03-01-2014 02:00:00 4.39167 C 6.33 g/m*3 4.39 C 1.73333 km/h
621 03-01-2014 03:00:00 5.03333 C 6.63 g/m*3 5.03 C 2.26667 km/h
622 03-01-2014 04:00:00 6.08333 C 7.02 g/m*3 6.08 C 3.46667 km/h
623 03-01-2014 05:00:00 5.925 C 6.8 g/m*3 5.93 C 3.48333 km/h
624 03-01-2014 06:00:00 5.71667 C 6.81 g/m*3 5.72 C 3.33333 km/h
625 03-01-2014 07:00:00 5.91667 C 6.9 g/m*3 5.92 C 2.8 km/h
Sensor: Nr:Datum:Temp:Abs-Feuchte:Windchill:Wind:
Aussen-T/F 626 03-01-2014 08:00:00 6.175 C 7.05 g/m*3 6.18 C 1.2 km/h
627 03-01-2014 09:00:00 7.31667 C 7.34 g/m*3 7.32 C 4.94167 km/h
628 03-01-2014 10:00:00 9.15 C 7.83 g/m*3 8.38 C 6.43333 km/h
629 03-01-2014 11:00:00 9.28333 C 8.08 g/m*3 8.83 C 5.36667 km/h
630 03-01-2014 12:00:00 10.55 C 8.46 g/m*3 8.95 C 12.225 km/h
631 03-01-2014 13:00:00 11.08333 C 8.48 g/m*3 11.08 C 8.18333 km/h
632 03-01-2014 14:00:00 12.00833 C 8.41 g/m*3 12.01 C 8.59167 km/h
633 03-01-2014 15:00:00 11.86667 C 8.37 g/m*3 11.87 C 4.68333 km/h
634 03-01-2014 16:00:00 11.06667 C 8.28 g/m*3 11.07 C 4.68333 km/h
635 03-01-2014 17:00:00 10.85 C 8.18 g/m*3 10.41 C 6.16667 km/h
636 03-01-2014 18:00:00 10.96667 C 8.17 g/m*3 10.08 C 8.33333 km/h
637 03-01-2014 19:00:00 11.86667 C 8.16 g/m*3 11.87 C 11.01667 km/h
638 03-01-2014 20:00:00 12.36667 C 8.05 g/m*3 12.37 C 20.78333 km/h
639 03-01-2014 21:00:00 12.08333 C 7.84 g/m*3 12.08 C 20.375 km/h
640 03-01-2014 22:00:00 11.55 C 7.49 g/m*3 11.55 C 16.63333 km/h
641 03-01-2014 23:00:00 10.88333 C 6.91 g/m*3 8.92 C 15.7 km/h
642 04-01-2014 00:00:00 9.73333 C 6.63 g/m*3 8.23 C 10.475 km/h
643 04-01-2014 01:00:00 8.58333 C 6.7 g/m*3 8.04 C 5.35 km/h
644 04-01-2014 02:00:00 7.55833 C 6.71 g/m*3 7.56 C 4.80833 km/h
645 04-01-2014 03:00:00 7.925 C 6.75 g/m*3 7.93 C 4.54167 km/h
646 04-01-2014 04:00:00 7.38333 C 6.81 g/m*3 7.38 C 2.66667 km/h
647 04-01-2014 05:00:00 6.20833 C 6.56 g/m*3 6.21 C 3.2 km/h
648 04-01-2014 06:00:00 5.3 C 6.37 g/m*3 5.3 C 3.6 km/h
649 04-01-2014 07:00:00 6.10833 C 6.59 g/m*3 5.17 C 5.48333 km/h
650 04-01-2014 08:00:00 7.01667 C 6.74 g/m*3 5.8 C 6.85 km/h
Sensor: Nr:Datum:Temp:Abs-Feuchte:Windchill:Wind:
Aussen-T/F 651 04-01-2014 09:00:00 7.20833 C 6.81 g/m*3 6.1 C 6.55 km/h
652 04-01-2014 10:00:00 7.91667 C 7.07 g/m*3 6.84 C 6.85 km/h
653 04-01-2014 11:00:00 8.275 C 7.14 g/m*3 7.09 C 7.51667 km/h
654 04-01-2014 12:00:00 9.04167 C 7.23 g/m*3 8.64 C 5.075 km/h
655 04-01-2014 13:00:00 9.41667 C 7.28 g/m*3 8.46 C 7.375 km/h
656 04-01-2014 14:00:00 9.04167 C 7.31 g/m*3 9.04 C 2.40833 km/h
657 04-01-2014 15:00:00 7.9 C 7.63 g/m*3 7.9 C 0.13333 km/h
658 04-01-2014 16:00:00 7.28333 C 7.53 g/m*3 7.28 C 0 km/h
659 04-01-2014 17:00:00 6.71667 C 7.3 g/m*3 6.72 C 0.26667 km/h
660 04-01-2014 18:00:00 6.66667 C 7.32 g/m*3 6.67 C 1.475 km/h
661 04-01-2014 19:00:00 6.59167 C 7.31 g/m*3 6.59 C 2 km/h
662 04-01-2014 20:00:00 6.575 C 7.31 g/m*3 6.58 C 0.4 km/h
663 04-01-2014 21:00:00 7.04167 C 7.54 g/m*3 7.04 C 2.4 km/h
664 04-01-2014 22:00:00 6.89167 C 7.39 g/m*3 6.89 C 2.8 km/h
665 04-01-2014 23:00:00 6.90833 C 7.45 g/m*3 6.91 C 3.73333 km/h
666 05-01-2014 00:00:00 6.85833 C 7.45 g/m*3 6.86 C 3.06667 km/h
667 05-01-2014 01:00:00 7.225 C 7.63 g/m*3 7.23 C 2.66667 km/h
668 05-01-2014 02:00:00 7.45 C 7.68 g/m*3 7.45 C 1.33333 km/h
669 05-01-2014 03:00:00 7.74167 C 7.68 g/m*3 6.75 C 6.425 km/h
670 05-01-2014 04:00:00 7.39167 C 7.46 g/m*3 7.39 C 3.86667 km/h
671 05-01-2014 05:00:00 7.10833 C 7.45 g/m*3 7.11 C 4.01667 km/h
672 05-01-2014 06:00:00 6.94167 C 7.33 g/m*3 6.94 C 4.4 km/h
673 05-01-2014 07:00:00 6.85833 C 7.1 g/m*3 5.65 C 6.70833 km/h
674 05-01-2014 08:00:00 6.00833 C 6.62 g/m*3 5.01 C 5.61667 km/h
675 05-01-2014 09:00:00 6 C 6.52 g/m*3 5.14 C 5.20833 km/h
Sensor: Nr:Datum:Temp:Abs-Feuchte:Windchill:Wind:
Aussen-T/F 676 05-01-2014 10:00:00 6.15833 C 6.48 g/m*3 4.92 C 6.43333 km/h
677 05-01-2014 11:00:00 6.5875 C 6.37 g/m*3 4.8 C 8.8625 km/h
678 05-01-2014 13:00:00 6.46667 C 6.24 g/m*3 4.07 C 11.8 km/h
679 05-01-2014 16:00:00 5.76667 C 6.12 g/m*3 4.82 C 5.36667 km/h
680 05-01-2014 17:00:00 5.6 C 6.23 g/m*3 5.6 C 2.74286 km/h
681 05-01-2014 18:00:00 5.79167 C 6.17 g/m*3 5.79 C 1.86667 km/h
682 05-01-2014 19:00:00 5.875 C 6.13 g/m*3 5.88 C 2.53333 km/h
683 05-01-2014 20:00:00 4.34167 C 5.83 g/m*3 4.34 C 2.26667 km/h
684 05-01-2014 21:00:00 3.85 C 5.76 g/m*3 3.85 C 2.8 km/h
685 05-01-2014 22:00:00 4.71667 C 6.01 g/m*3 4.72 C 2.13333 km/h
686 05-01-2014 23:00:00 3.925 C 5.78 g/m*3 3.93 C 2.93333 km/h
687 06-01-2014 00:00:00 3.31667 C 5.65 g/m*3 3.32 C 2.4 km/h
688 06-01-2014 01:00:00 3.59167 C 5.76 g/m*3 3.59 C 2.40833 km/h
689 06-01-2014 02:00:00 3.8 C 5.87 g/m*3 3.8 C 2.8 km/h
690 06-01-2014 03:00:00 5.075 C 6.28 g/m*3 5.08 C 3.06667 km/h
691 06-01-2014 04:00:00 5.69167 C 6.44 g/m*3 5.69 C 2.4 km/h
692 06-01-2014 05:00:00 5.95 C 6.44 g/m*3 5.95 C 1.73333 km/h
693 06-01-2014 06:00:00 6.25833 C 6.57 g/m*3 6.26 C 1.2 km/h
694 06-01-2014 07:00:00 6.51667 C 6.78 g/m*3 6.52 C 1.6 km/h
695 06-01-2014 08:00:00 7.2 C 7.2 g/m*3 7.2 C 1.46667 km/h
696 06-01-2014 09:00:00 8.21667 C 7.64 g/m*3 8.22 C 1.46667 km/h
697 06-01-2014 10:00:00 8.8 C 7.88 g/m*3 8.8 C 3.06667 km/h
698 06-01-2014 11:00:00 9.80833 C 8.22 g/m*3 9.81 C 3.475 km/h
699 06-01-2014 12:00:00 11.475 C 8.68 g/m*3 11.48 C 4.66667 km/h
700 06-01-2014 13:00:00 12.00833 C 8.73 g/m*3 12.01 C 3.475 km/h
Sensor: Nr:Datum:Temp:Abs-Feuchte:Windchill:Wind:
Aussen-T/F 701 06-01-2014 14:00:00 11.71667 C 8.42 g/m*3 11.72 C 4.00833 km/h
702 06-01-2014 15:00:00 10.71667 C 8.23 g/m*3 10.72 C 2.26667 km/h
703 06-01-2014 16:00:00 10.475 C 7.95 g/m*3 10.48 C 4.54167 km/h
704 06-01-2014 17:00:00 9.81667 C 7.97 g/m*3 9.82 C 2.94167 km/h
705 06-01-2014 18:00:00 10.275 C 8.08 g/m*3 10.28 C 4.80833 km/h
706 06-01-2014 19:00:00 10.65 C 8.52 g/m*3 10.47 C 5.08333 km/h
707 06-01-2014 20:00:00 9.79167 C 8.72 g/m*3 9.79 C 4.13333 km/h
708 06-01-2014 21:00:00 9.74167 C 8.78 g/m*3 9.74 C 3.33333 km/h
709 06-01-2014 22:00:00 9.61667 C 8.68 g/m*3 9.62 C 2.66667 km/h
710 06-01-2014 23:00:00 9.60833 C 8.65 g/m*3 8.68 C 7.38333 km/h
711 07-01-2014 00:00:00 10.76667 C 9.04 g/m*3 8.7 C 16.375 km/h
712 07-01-2014 01:00:00 10.70833 C 8.68 g/m*3 9.49 C 9.94167 km/h
713 07-01-2014 02:00:00 10.325 C 8.74 g/m*3 9.38 C 8.05833 km/h
714 07-01-2014 03:00:00 9.91667 C 8.47 g/m*3 9.45 C 5.74167 km/h
715 07-01-2014 04:00:00 9.28333 C 8.36 g/m*3 9.28 C 3.74167 km/h
716 07-01-2014 05:00:00 10.30833 C 8.25 g/m*3 9.44 C 7.64167 km/h
717 07-01-2014 06:00:00 10.31667 C 8.07 g/m*3 9.83 C 6.03333 km/h
718 07-01-2014 07:00:00 9.64167 C 7.91 g/m*3 9.64 C 4.8 km/h
719 07-01-2014 08:00:00 9.66667 C 7.87 g/m*3 9.27 C 5.35 km/h
720 07-01-2014 09:00:00 10.69167 C 7.91 g/m*3 9.65 C 8.86667 km/h
721 07-01-2014 10:00:00 11.35833 C 8.12 g/m*3 11.36 C 10.46667 km/h
722 07-01-2014 11:00:00 11.81667 C 8.24 g/m*3 11.82 C 8.59167 km/h
723 07-01-2014 12:00:00 11.84167 C 8.39 g/m*3 11.84 C 6.84167 km/h
724 07-01-2014 13:00:00 11.55 C 8.66 g/m*3 11.55 C 3.34167 km/h
725 07-01-2014 14:00:00 12.93333 C 8.39 g/m*3 12.93 C 6.975 km/h
Sensor: Nr:Datum:Temp:Abs-Feuchte:Windchill:Wind:
Aussen-T/F 726 07-01-2014 15:00:00 13.25 C 8.11 g/m*3 13.25 C 6.7 km/h
727 07-01-2014 16:00:00 11.85833 C 8.34 g/m*3 11.86 C 3.06667 km/h
728 07-01-2014 17:00:00 10.63333 C 8.39 g/m*3 10.63 C 2 km/h
729 07-01-2014 18:00:00 10.25 C 8.35 g/m*3 10.25 C 3.06667 km/h
730 07-01-2014 19:00:00 10.4 C 8.66 g/m*3 10.4 C 2.13333 km/h
731 07-01-2014 20:00:00 9.63333 C 8.6 g/m*3 9.63 C 1.86667 km/h
732 07-01-2014 21:00:00 9.79167 C 8.78 g/m*3 9.79 C 2.66667 km/h
733 07-01-2014 22:00:00 10.14167 C 8.8 g/m*3 10.14 C 2.26667 km/h
734 07-01-2014 23:00:00 10.40833 C 8.92 g/m*3 10.41 C 2.93333 km/h
735 08-01-2014 00:00:00 11.3 C 9.06 g/m*3 11.3 C 5.48333 km/h
736 08-01-2014 01:00:00 11.525 C 9.06 g/m*3 11.53 C 7.38333 km/h
737 08-01-2014 02:00:00 11.525 C 9.09 g/m*3 11.53 C 5.35 km/h
738 08-01-2014 03:00:00 11.08333 C 9.06 g/m*3 11.08 C 4.28333 km/h
739 08-01-2014 04:00:00 10.84167 C 9.09 g/m*3 10.84 C 3.34167 km/h
740 08-01-2014 05:00:00 11.51667 C 9.12 g/m*3 11.52 C 10.06667 km/h
741 08-01-2014 06:00:00 12.175 C 9.02 g/m*3 12.18 C 13.56667 km/h
742 08-01-2014 07:00:00 11.95833 C 8.82 g/m*3 11.96 C 10.9 km/h
743 08-01-2014 08:00:00 11.45 C 8.61 g/m*3 11.45 C 9.28333 km/h
744 08-01-2014 09:00:00 11.33333 C 8.48 g/m*3 11.33 C 8.06667 km/h
745 08-01-2014 10:00:00 11.52 C 8.46 g/m*3 11.52 C 9.68 km/h
746 08-01-2014 11:00:00 11.175 C 8.35 g/m*3 11.18 C 7.375 km/h
747 08-01-2014 12:00:00 11.25833 C 8.27 g/m*3 11.26 C 6.43333 km/h
748 08-01-2014 13:00:00 12.45833 C 8.34 g/m*3 12.46 C 10.06667 km/h
749 08-01-2014 14:00:00 12.03333 C 8.38 g/m*3 12.03 C 8.04167 km/h
750 08-01-2014 15:00:00 11.49167 C 8.25 g/m*3 11.49 C 8.45833 km/h
Sensor: Nr:Datum:Temp:Abs-Feuchte:Windchill:Wind:
Aussen-T/F 751 08-01-2014 16:00:00 10.38333 C 8.09 g/m*3 10.13 C 5.20833 km/h
752 08-01-2014 17:00:00 9.00833 C 7.92 g/m*3 9.01 C 2.66667 km/h
753 08-01-2014 18:00:00 8.2 C 7.7 g/m*3 8.2 C 1.33333 km/h
754 08-01-2014 19:00:00 7.325 C 7.47 g/m*3 7.33 C 0.26667 km/h
755 08-01-2014 20:00:00 6.98333 C 7.37 g/m*3 6.98 C 0.13333 km/h
756 08-01-2014 21:00:00 6.63333 C 7.26 g/m*3 6.63 C 0 km/h
757 08-01-2014 22:00:00 6.26667 C 7.09 g/m*3 6.27 C 0 km/h
758 09-01-2014 01:00:00 6.5 C 7.27 g/m*3 6.5 C 0.26667 km/h
759 09-01-2014 02:00:00 6.7 C 7.37 g/m*3 6.7 C 0.26667 km/h
760 09-01-2014 03:00:00 6.68333 C 7.36 g/m*3 6.68 C 0.4 km/h
761 09-01-2014 04:00:00 6.75833 C 7.4 g/m*3 6.76 C 0.8 km/h
762 09-01-2014 05:00:00 7 C 7.59 g/m*3 7 C 1.30909 km/h
763 09-01-2014 07:00:00 9.425 C 8.45 g/m*3 9.1 C 5 km/h
764 09-01-2014 08:00:00 9.53333 C 8.16 g/m*3 9.53 C 2.54167 km/h
765 09-01-2014 09:00:00 9.33333 C 8.2 g/m*3 9.33 C 2.53333 km/h
766 09-01-2014 10:00:00 10.01667 C 8.42 g/m*3 10.02 C 2.53333 km/h
767 09-01-2014 11:00:00 11.28333 C 8.54 g/m*3 11.28 C 8.19167 km/h
768 09-01-2014 12:00:00 12.46667 C 8.55 g/m*3 12.47 C 12.23333 km/h
769 09-01-2014 13:00:00 12.7 C 8.57 g/m*3 12.7 C 13.96667 km/h
770 09-01-2014 14:00:00 12.71667 C 8.6 g/m*3 12.72 C 18.64167 km/h
771 09-01-2014 15:00:00 11.45833 C 8.59 g/m*3 11.46 C 16.1 km/h
772 09-01-2014 16:00:00 10.44167 C 8.17 g/m*3 8.19 C 17.43333 km/h
773 09-01-2014 17:00:00 9.94167 C 8.04 g/m*3 7.79 C 15.43333 km/h
774 09-01-2014 18:00:00 9.91667 C 7.84 g/m*3 7.49 C 17.83333 km/h
775 09-01-2014 19:00:00 9.71667 C 7.78 g/m*3 7.27 C 17.575 km/h
Sensor: Nr:Datum:Temp:Abs-Feuchte:Windchill:Wind:
Aussen-T/F 776 09-01-2014 20:00:00 9.53333 C 7.25 g/m*3 7.35 C 14.9 km/h
777 09-01-2014 21:00:00 8.49167 C 6.36 g/m*3 6.14 C 14.35833 km/h
778 09-01-2014 22:00:00 6.95 C 5.84 g/m*3 5.48 C 7.79167 km/h
779 09-01-2014 23:00:00 6.425 C 5.86 g/m*3 6.43 C 4.275 km/h
780 10-01-2014 00:00:00 5.925 C 6.16 g/m*3 5.93 C 0 km/h
781 10-01-2014 01:00:00 5.7 C 6.3 g/m*3 5.7 C 1.33333 km/h
782 10-01-2014 02:00:00 6.2 C 6.35 g/m*3 6.2 C 3.86667 km/h
783 10-01-2014 03:00:00 5.88333 C 6.22 g/m*3 5.88 C 4.68333 km/h
784 10-01-2014 04:00:00 4.79167 C 5.95 g/m*3 4.79 C 4.80833 km/h
785 10-01-2014 05:00:00 5 C 5.95 g/m*3 3.02 C 8.45 km/h
786 10-01-2014 06:00:00 4.74167 C 5.91 g/m*3 3.76 C 5.075 km/h
787 10-01-2014 07:00:00 5.05833 C 6.02 g/m*3 3.05 C 8.61667 km/h
788 10-01-2014 08:00:00 5.41667 C 6.04 g/m*3 3 C 10.74167 km/h
789 10-01-2014 09:00:00 5.34167 C 6.1 g/m*3 3.7 C 7.38333 km/h
790 10-01-2014 10:00:00 5.69167 C 6.26 g/m*3 4.08 C 7.50833 km/h
791 10-01-2014 11:00:00 6.675 C 6.35 g/m*3 4.14 C 12.88333 km/h
792 10-01-2014 12:00:00 7.5 C 6.5 g/m*3 5.36 C 11.55 km/h
793 10-01-2014 13:00:00 7.71667 C 6.53 g/m*3 5.43 C 12.76667 km/h
794 10-01-2014 14:00:00 7.74167 C 6.59 g/m*3 5.89 C 10.20833 km/h
795 10-01-2014 15:00:00 7.85833 C 6.64 g/m*3 6.57 C 7.65 km/h
796 10-01-2014 16:00:00 6.5 C 6.37 g/m*3 6.5 C 4.26667 km/h
797 10-01-2014 17:00:00 5.1 C 6.12 g/m*3 5.1 C 3.6 km/h
798 10-01-2014 18:00:00 5.08333 C 6.06 g/m*3 4.15 C 5.06667 km/h
799 10-01-2014 19:00:00 5.36667 C 6.08 g/m*3 4.32 C 5.475 km/h
800 10-01-2014 20:00:00 4.7 C 5.91 g/m*3 4.7 C 4 km/h
Sensor: Nr:Datum:Temp:Abs-Feuchte:Windchill:Wind:
Aussen-T/F 801 10-01-2014 21:00:00 4.075 C 5.81 g/m*3 4.08 C 1.46667 km/h
802 10-01-2014 22:00:00 3.25 C 5.64 g/m*3 3.25 C 0.4 km/h
803 10-01-2014 23:00:00 3.05833 C 5.64 g/m*3 3.06 C 0 km/h
804 11-01-2014 00:00:00 2.525 C 5.47 g/m*3 2.53 C 0 km/h
805 11-01-2014 01:00:00 2.08333 C 5.31 g/m*3 2.08 C 0.13333 km/h
806 11-01-2014 02:00:00 1.78333 C 5.25 g/m*3 1.78 C 0.4 km/h
807 11-01-2014 03:00:00 1.54167 C 5.17 g/m*3 1.54 C 0.26667 km/h
808 11-01-2014 04:00:00 1.35 C 5.11 g/m*3 1.35 C 0.4 km/h
809 11-01-2014 05:00:00 0.89167 C 4.97 g/m*3 0.89 C 0 km/h
810 11-01-2014 06:00:00 1.10833 C 5.07 g/m*3 1.11 C 0.66667 km/h
811 11-01-2014 07:00:00 1.4 C 5.17 g/m*3 1.4 C 1.73333 km/h
812 11-01-2014 08:00:00 1.86667 C 5.34 g/m*3 1.87 C 1.2 km/h
813 11-01-2014 09:00:00 2.25833 C 5.49 g/m*3 2.26 C 0 km/h
814 11-01-2014 10:00:00 2.6 C 5.61 g/m*3 2.6 C 0.26667 km/h
815 11-01-2014 11:00:00 3.79167 C 6.12 g/m*3 3.79 C 2.81667 km/h
816 11-01-2014 12:00:00 5.975 C 6.68 g/m*3 3.92 C 9.55833 km/h
817 11-01-2014 13:00:00 6.85 C 6.71 g/m*3 5.14 C 8.73333 km/h
818 11-01-2014 14:00:00 7.66667 C 6.81 g/m*3 5.41 C 12.48333 km/h
819 11-01-2014 15:00:00 7.13333 C 6.79 g/m*3 5.5 C 8.59167 km/h
820 11-01-2014 16:00:00 7.36667 C 6.99 g/m*3 5.47 C 10.09167 km/h
821 11-01-2014 17:00:00 6.41667 C 7.01 g/m*3 5.56 C 5.36667 km/h
822 11-01-2014 18:00:00 6.24167 C 6.59 g/m*3 5.02 C 6.43333 km/h
823 11-01-2014 19:00:00 5.69167 C 6.31 g/m*3 5.69 C 4.43333 km/h
824 11-01-2014 20:00:00 4.46667 C 6.04 g/m*3 4.47 C 3.06667 km/h
825 11-01-2014 21:00:00 4.33333 C 5.92 g/m*3 4.33 C 4.66667 km/h
Sensor: Nr:Datum:Temp:Abs-Feuchte:Windchill:Wind:
Aussen-T/F 826 11-01-2014 22:00:00 3.45833 C 5.63 g/m*3 3.46 C 2.8 km/h
827 11-01-2014 23:00:00 2.49167 C 5.41 g/m*3 2.49 C 2 km/h
828 12-01-2014 00:00:00 2 C 5.28 g/m*3 2 C 3.06667 km/h
829 12-01-2014 01:00:00 1.575 C 5.13 g/m*3 1.58 C 3.74167 km/h
830 12-01-2014 02:00:00 1.1 C 4.97 g/m*3 -1.12 C 6.99167 km/h
831 12-01-2014 03:00:00 0.96667 C 4.97 g/m*3 -1.86 C 8.86667 km/h
832 12-01-2014 04:00:00 1.24167 C 5.07 g/m*3 -1.54 C 8.88333 km/h
833 12-01-2014 05:00:00 1.19167 C 5.05 g/m*3 -1.01 C 6.96667 km/h
834 12-01-2014 06:00:00 0.69167 C 4.88 g/m*3 0.69 C 2.4 km/h
835 12-01-2014 07:00:00 0.54167 C 4.87 g/m*3 0.54 C 3.86667 km/h
836 12-01-2014 08:00:00 0.11667 C 4.74 g/m*3 0.12 C 3.75 km/h
837 12-01-2014 09:00:00 -0.00833 C 4.7 g/m*3 -0.01 C 2 km/h
838 12-01-2014 10:00:00 0.15 C 4.75 g/m*3 0.15 C 4.95 km/h
839 12-01-2014 11:00:00 0.25833 C 4.81 g/m*3 -1.57 C 5.625 km/h
840 12-01-2014 12:00:00 0.46667 C 4.9 g/m*3 0.47 C 2.26667 km/h
841 12-01-2014 13:00:00 0.84167 C 5.03 g/m*3 0.84 C 2.26667 km/h
842 12-01-2014 14:00:00 1.35 C 5.21 g/m*3 1.35 C 2 km/h
843 12-01-2014 15:00:00 1.28571 C 5.19 g/m*3 1.29 C 2.74286 km/h
844 12-01-2014 16:00:00 1 C 5.09 g/m*3 1 C 1.2 km/h
845 12-01-2014 17:00:00 0.1875 C 4.81 g/m*3 0.19 C 0.6 km/h
846 12-01-2014 18:00:00 -0.26667 C 4.66 g/m*3 -0.27 C 0.8 km/h
847 12-01-2014 19:00:00 -0.55833 C 4.57 g/m*3 -0.56 C 0.4 km/h
848 12-01-2014 20:00:00 -0.80833 C 4.49 g/m*3 -0.81 C 1.2 km/h
849 12-01-2014 21:00:00 -1.225 C 4.36 g/m*3 -1.23 C 2.53333 km/h
850 12-01-2014 22:00:00 -1.55 C 4.26 g/m*3 -1.55 C 2.66667 km/h
Sensor: Nr:Datum:Temp:Abs-Feuchte:Windchill:Wind:
Aussen-T/F 851 12-01-2014 23:00:00 -1.7 C 4.22 g/m*3 -1.7 C 2 km/h
852 13-01-2014 00:00:00 -1.7 C 4.22 g/m*3 -1.7 C 0.26667 km/h
853 13-01-2014 01:00:00 -1.68333 C 4.22 g/m*3 -1.68 C 0.26667 km/h
854 13-01-2014 02:00:00 -1.08333 C 4.4 g/m*3 -1.08 C 0.66667 km/h
855 13-01-2014 03:00:00 -0.20833 C 4.68 g/m*3 -0.21 C 2.13333 km/h
856 13-01-2014 04:00:00 0.24167 C 4.83 g/m*3 0.24 C 2.13333 km/h
857 13-01-2014 05:00:00 1.05833 C 5.11 g/m*3 1.06 C 0.53333 km/h
858 13-01-2014 06:00:00 1.825 C 5.38 g/m*3 1.83 C 1.2 km/h
859 13-01-2014 07:00:00 2.33333 C 5.57 g/m*3 2.33 C 0.4 km/h
860 13-01-2014 08:00:00 2.65833 C 5.69 g/m*3 2.66 C 0.53333 km/h
861 13-01-2014 09:00:00 3.18333 C 5.9 g/m*3 3.18 C 0 km/h
862 13-01-2014 10:00:00 3.83333 C 6.19 g/m*3 3.83 C 0.53333 km/h
863 13-01-2014 11:00:00 5.125 C 6.77 g/m*3 5.13 C 2.26667 km/h
864 13-01-2014 12:00:00 6.38333 C 7.31 g/m*3 4.78 C 7.91667 km/h
865 13-01-2014 13:00:00 7.875 C 7.34 g/m*3 6.8 C 6.84167 km/h
866 13-01-2014 14:00:00 8.025 C 7.13 g/m*3 6.87 C 7.24167 km/h
867 13-01-2014 15:00:00 7.38333 C 7.12 g/m*3 7.38 C 1.2 km/h
868 13-01-2014 16:00:00 6.675 C 7.05 g/m*3 6.68 C 2 km/h
869 13-01-2014 17:00:00 6.20833 C 6.97 g/m*3 6.21 C 0.26667 km/h
870 13-01-2014 18:00:00 6.14167 C 6.99 g/m*3 6.14 C 0 km/h
871 13-01-2014 19:00:00 6.025 C 6.98 g/m*3 6.03 C 0 km/h
872 13-01-2014 20:00:00 5.73333 C 6.85 g/m*3 5.73 C 0.26667 km/h
873 13-01-2014 21:00:00 5.3 C 6.63 g/m*3 5.3 C 0 km/h
874 13-01-2014 22:00:00 4.29167 C 6.22 g/m*3 4.29 C 0.13333 km/h
875 13-01-2014 23:00:00 3.94167 C 6.12 g/m*3 3.94 C 1.2 km/h
Sensor: Nr:Datum:Temp:Abs-Feuchte:Windchill:Wind:
Aussen-T/F 876 14-01-2014 00:00:00 3.875 C 6.08 g/m*3 3.88 C 2.13333 km/h
877 14-01-2014 01:00:00 3.5 C 5.96 g/m*3 3.5 C 2 km/h
878 14-01-2014 02:00:00 3.3 C 5.88 g/m*3 3.3 C 1.46667 km/h
879 14-01-2014 03:00:00 4.01667 C 6.2 g/m*3 4.02 C 0.26667 km/h
880 14-01-2014 04:00:00 4.325 C 6.32 g/m*3 4.33 C 1.06667 km/h
881 14-01-2014 05:00:00 5.35 C 6.65 g/m*3 3.99 C 6.41667 km/h
882 14-01-2014 06:00:00 5.18333 C 6.47 g/m*3 5.18 C 4.54167 km/h
883 14-01-2014 07:00:00 4.65 C 6.31 g/m*3 4.65 C 2.54167 km/h
884 14-01-2014 08:00:00 4.275 C 6.22 g/m*3 4.28 C 2.54167 km/h
885 14-01-2014 09:00:00 4.975 C 6.56 g/m*3 4.97 C 2.53333 km/h
886 14-01-2014 10:00:00 5.8 C 6.71 g/m*3 5.8 C 2.93333 km/h
887 14-01-2014 11:00:00 5.88 C 6.77 g/m*3 5.88 C 2.88 km/h
888 14-01-2014 12:00:00 6.9 C 7 g/m*3 6.9 C 2.62727 km/h
889 14-01-2014 13:00:00 7.55833 C 7.16 g/m*3 7.56 C 3.33333 km/h
890 14-01-2014 14:00:00 7.975 C 7.18 g/m*3 7.98 C 2.93333 km/h
891 14-01-2014 15:00:00 7.38333 C 7.13 g/m*3 7.38 C 1.73333 km/h
892 14-01-2014 16:00:00 7.23333 C 6.93 g/m*3 7.23 C 3.2 km/h
893 14-01-2014 17:00:00 6.34167 C 6.82 g/m*3 6.34 C 2.26667 km/h
894 14-01-2014 18:00:00 5.20833 C 6.54 g/m*3 5.21 C 1.33333 km/h
895 14-01-2014 19:00:00 3.575 C 5.93 g/m*3 3.58 C 1.73333 km/h
896 14-01-2014 20:00:00 3.21667 C 5.84 g/m*3 3.22 C 0 km/h
897 14-01-2014 21:00:00 3.36667 C 5.91 g/m*3 3.37 C 0.53333 km/h
898 14-01-2014 22:00:00 3.81667 C 6.12 g/m*3 3.82 C 0.26667 km/h
899 14-01-2014 23:00:00 4.375 C 6.35 g/m*3 4.38 C 2.13333 km/h
900 15-01-2014 00:00:00 4.8 C 6.48 g/m*3 4.8 C 2.26667 km/h
Sensor: Nr:Datum:Temp:Abs-Feuchte:Windchill:Wind:
Aussen-T/F 901 15-01-2014 01:00:00 4.9 C 6.45 g/m*3 4.9 C 2.53333 km/h
902 15-01-2014 02:00:00 4.8 C 6.31 g/m*3 4.8 C 2.53333 km/h
903 15-01-2014 03:00:00 4.75833 C 6.1 g/m*3 3.62 C 5.49167 km/h
904 15-01-2014 04:00:00 4.04167 C 5.61 g/m*3 2.91 C 5.225 km/h
905 15-01-2014 05:00:00 3.16667 C 5.48 g/m*3 3.17 C 2.66667 km/h
906 15-01-2014 06:00:00 2.10833 C 5.22 g/m*3 2.11 C 1.46667 km/h
907 15-01-2014 07:00:00 1.56667 C 5.11 g/m*3 1.57 C 2.53333 km/h
908 15-01-2014 08:00:00 1.74167 C 5.2 g/m*3 1.74 C 0.4 km/h
909 15-01-2014 09:00:00 2.275 C 5.42 g/m*3 2.28 C 0 km/h
910 15-01-2014 10:00:00 3.45833 C 5.67 g/m*3 3.46 C 1.2 km/h
911 15-01-2014 11:00:00 4.61667 C 5.77 g/m*3 4.62 C 1.86667 km/h
912 15-01-2014 12:00:00 5.55 C 5.91 g/m*3 5.55 C 4.40833 km/h
913 15-01-2014 13:00:00 5.89167 C 5.94 g/m*3 4.1 C 8.31667 km/h
914 15-01-2014 14:00:00 5.35833 C 6.01 g/m*3 4.26 C 5.625 km/h
915 15-01-2014 15:00:00 4.81667 C 6.12 g/m*3 4.82 C 1.86667 km/h
916 15-01-2014 16:00:00 4.46667 C 6.08 g/m*3 4.47 C 1.06667 km/h
917 15-01-2014 17:00:00 4.44167 C 6.09 g/m*3 4.44 C 1.86667 km/h
918 15-01-2014 18:00:00 4.725 C 6.04 g/m*3 4.72 C 2 km/h
919 15-01-2014 19:00:00 4.81667 C 6.11 g/m*3 4.82 C 1.6 km/h
920 15-01-2014 20:00:00 4.775 C 6.21 g/m*3 4.78 C 0.53333 km/h
921 15-01-2014 21:00:00 4.65 C 6.29 g/m*3 4.65 C 0.66667 km/h
922 15-01-2014 22:00:00 4.45833 C 6.29 g/m*3 4.46 C 0 km/h
923 15-01-2014 23:00:00 4.45833 C 6.36 g/m*3 4.46 C 0 km/h
924 16-01-2014 00:00:00 4.5 C 6.38 g/m*3 4.5 C 0 km/h
925 16-01-2014 01:00:00 4.65 C 6.44 g/m*3 4.65 C 0 km/h
Sensor: Nr:Datum:Temp:Abs-Feuchte:Windchill:Wind:
Aussen-T/F 926 16-01-2014 02:00:00 4.9 C 6.55 g/m*3 4.9 C 0 km/h
927 16-01-2014 03:00:00 5.11667 C 6.71 g/m*3 5.12 C 0.13333 km/h
928 16-01-2014 04:00:00 5.275 C 6.78 g/m*3 5.28 C 0 km/h
929 16-01-2014 05:00:00 5.4 C 6.84 g/m*3 5.4 C 0.13333 km/h
930 16-01-2014 06:00:00 5.54167 C 6.9 g/m*3 5.54 C 0 km/h
931 16-01-2014 07:00:00 5.64167 C 6.95 g/m*3 5.64 C 0.13333 km/h
932 16-01-2014 08:00:00 5.44167 C 6.86 g/m*3 5.44 C 0.53333 km/h
933 16-01-2014 09:00:00 5.63333 C 6.94 g/m*3 5.63 C 0.53333 km/h
934 16-01-2014 10:00:00 6.10833 C 7.16 g/m*3 6.11 C 0.26667 km/h
935 16-01-2014 11:00:00 6.46667 C 7.13 g/m*3 6.47 C 2.8 km/h
936 16-01-2014 12:00:00 7.55 C 7.36 g/m*3 7.55 C 0.93333 km/h
937 16-01-2014 13:00:00 8.31667 C 7.28 g/m*3 8.32 C 2.26667 km/h
938 16-01-2014 14:00:00 8.075 C 7.41 g/m*3 8.07 C 1.2 km/h
939 16-01-2014 15:00:00 7.94167 C 7.25 g/m*3 7.94 C 3.2 km/h
940 16-01-2014 16:00:00 8.38333 C 7.23 g/m*3 8.38 C 4.825 km/h
941 16-01-2014 17:00:00 8.19167 C 7.28 g/m*3 8.19 C 3.06667 km/h
942 16-01-2014 18:00:00 8.10833 C 7.3 g/m*3 8.11 C 4.95 km/h
943 16-01-2014 19:00:00 8.7 C 7.35 g/m*3 7.97 C 6.01667 km/h
944 16-01-2014 20:00:00 7.54167 C 7.22 g/m*3 7.54 C 2.53333 km/h
945 16-01-2014 21:00:00 7.01667 C 7.19 g/m*3 7.02 C 2 km/h
946 16-01-2014 22:00:00 6.79167 C 7.11 g/m*3 6.79 C 1.33333 km/h
947 16-01-2014 23:00:00 5.60833 C 6.61 g/m*3 5.61 C 3.2 km/h
948 17-01-2014 00:00:00 5.76667 C 6.8 g/m*3 5.77 C 2.66667 km/h
949 17-01-2014 01:00:00 6.59167 C 7.05 g/m*3 6.59 C 1.46667 km/h
950 17-01-2014 02:00:00 6.875 C 7.1 g/m*3 6.88 C 0.8 km/h
Sensor: Nr:Datum:Temp:Abs-Feuchte:Windchill:Wind:
Aussen-T/F 951 17-01-2014 03:00:00 6.8 C 7.22 g/m*3 6.8 C 1.46667 km/h
952 17-01-2014 04:00:00 6.725 C 7.33 g/m*3 6.73 C 0.66667 km/h
953 17-01-2014 05:00:00 6.51667 C 7.28 g/m*3 6.52 C 1.06667 km/h
954 17-01-2014 06:00:00 6.41667 C 7.24 g/m*3 6.42 C 1.46667 km/h
955 17-01-2014 07:00:00 6.1 C 7.07 g/m*3 6.1 C 2.26667 km/h
956 17-01-2014 08:00:00 5.48333 C 6.81 g/m*3 5.48 C 2.8 km/h
957 17-01-2014 09:00:00 6.00833 C 7.04 g/m*3 6.01 C 1.86667 km/h
958 17-01-2014 10:00:00 6.625 C 7.29 g/m*3 6.63 C 2 km/h
959 17-01-2014 11:00:00 8.075 C 7.62 g/m*3 8.07 C 2.66667 km/h
960 17-01-2014 12:00:00 9.18333 C 7.63 g/m*3 9.18 C 4.41667 km/h
961 17-01-2014 13:00:00 9.93333 C 7.76 g/m*3 9.93 C 0.8 km/h
962 17-01-2014 14:00:00 10.025 C 7.94 g/m*3 10.03 C 1.2 km/h
963 17-01-2014 15:00:00 9.28333 C 8.02 g/m*3 9.28 C 2 km/h
964 17-01-2014 16:00:00 8.51667 C 7.54 g/m*3 8.52 C 3.2 km/h
965 17-01-2014 17:00:00 6.68333 C 6.89 g/m*3 6.68 C 3.46667 km/h
966 17-01-2014 18:00:00 6.01667 C 6.76 g/m*3 6.02 C 2.93333 km/h
967 17-01-2014 19:00:00 5.55833 C 6.6 g/m*3 5.56 C 3.06667 km/h
968 17-01-2014 20:00:00 5.21667 C 6.44 g/m*3 5.22 C 3.33333 km/h
969 17-01-2014 21:00:00 4.85833 C 6.28 g/m*3 4.86 C 3.6 km/h
970 17-01-2014 22:00:00 4.54167 C 6.2 g/m*3 4.54 C 3.33333 km/h
971 17-01-2014 23:00:00 4.2 C 6.08 g/m*3 4.2 C 2.66667 km/h
972 18-01-2014 00:00:00 3.775 C 5.93 g/m*3 3.78 C 2.53333 km/h
973 18-01-2014 01:00:00 3.525 C 5.85 g/m*3 3.53 C 1.73333 km/h
974 18-01-2014 02:00:00 3.00833 C 5.65 g/m*3 3.01 C 0.66667 km/h
975 18-01-2014 03:00:00 2.825 C 5.64 g/m*3 2.83 C 0.13333 km/h
Sensor: Nr:Datum:Temp:Abs-Feuchte:Windchill:Wind:
Aussen-T/F 976 18-01-2014 04:00:00 2.60833 C 5.56 g/m*3 2.61 C 0.53333 km/h
977 18-01-2014 05:00:00 1.90833 C 5.3 g/m*3 1.91 C 0.4 km/h
978 18-01-2014 06:00:00 1.93333 C 5.36 g/m*3 1.93 C 1.74167 km/h
979 18-01-2014 07:00:00 2.675 C 5.62 g/m*3 2.68 C 1.06667 km/h
980 18-01-2014 08:00:00 4.2 C 6 g/m*3 2.07 C 8.46667 km/h
981 18-01-2014 09:00:00 4.78333 C 5.96 g/m*3 3.46 C 6.03333 km/h
982 18-01-2014 10:00:00 4.98333 C 6.02 g/m*3 3.6 C 6.30833 km/h
983 18-01-2014 11:00:00 5.91667 C 6.79 g/m*3 4.72 C 6.16667 km/h
984 18-01-2014 12:00:00 6.9 C 6.54 g/m*3 6.9 C 2.4 km/h
985 18-01-2014 13:00:00 7.56667 C 6.59 g/m*3 7.57 C 3.33333 km/h
986 18-01-2014 14:00:00 7.95556 C 6.64 g/m*3 7.96 C 4.44444 km/h
987 18-01-2014 15:00:00 7.825 C 6.72 g/m*3 7.83 C 2.14167 km/h
988 18-01-2014 16:00:00 6.875 C 6.53 g/m*3 6.88 C 2 km/h
989 18-01-2014 17:00:00 5.79167 C 6.18 g/m*3 5.79 C 3.06667 km/h
990 18-01-2014 18:00:00 5.80833 C 6.04 g/m*3 5.81 C 3.46667 km/h
991 18-01-2014 19:00:00 6.04167 C 6.03 g/m*3 5.19 C 5.2 km/h
992 18-01-2014 20:00:00 5.04167 C 5.96 g/m*3 5.04 C 2.93333 km/h
993 18-01-2014 21:00:00 3.34167 C 5.58 g/m*3 3.34 C 1.2 km/h
994 18-01-2014 22:00:00 2.9 C 5.57 g/m*3 2.9 C 1.46667 km/h
995 18-01-2014 23:00:00 3.70833 C 5.88 g/m*3 3.71 C 0.13333 km/h
996 19-01-2014 00:00:00 4.18333 C 6.05 g/m*3 4.18 C 0.26667 km/h
997 19-01-2014 01:00:00 4.41667 C 6.13 g/m*3 4.42 C 0 km/h
998 19-01-2014 02:00:00 4.65833 C 6.13 g/m*3 4.66 C 1.2 km/h
999 19-01-2014 03:00:00 4.46667 C 5.99 g/m*3 4.47 C 1.86667 km/h
1000 19-01-2014 04:00:00 4.2 C 5.94 g/m*3 4.2 C 0.13333 km/h
Sensor: Nr:Datum:Temp:Abs-Feuchte:Windchill:Wind:
Aussen-T/F 1001 19-01-2014 05:00:00 4.15 C 5.97 g/m*3 4.15 C 0 km/h
1002 19-01-2014 06:00:00 4.125 C 5.96 g/m*3 4.13 C 0.4 km/h
1003 19-01-2014 07:00:00 3.99167 C 5.9 g/m*3 3.99 C 0.13333 km/h
1004 19-01-2014 08:00:00 3.68333 C 5.82 g/m*3 3.68 C 0 km/h
1005 19-01-2014 09:00:00 4.06667 C 6 g/m*3 4.07 C 0.53333 km/h
1006 19-01-2014 10:00:00 5.025 C 6.18 g/m*3 3.61 C 6.43333 km/h
1007 19-01-2014 11:00:00 5.625 C 6.31 g/m*3 4.39 C 6.16667 km/h
1008 19-01-2014 12:00:00 6.2 C 6.4 g/m*3 6.2 C 3.46667 km/h
1009 19-01-2014 13:00:00 6.775 C 6.59 g/m*3 6.78 C 0.93333 km/h
1010 19-01-2014 14:00:00 7.1 C 6.65 g/m*3 5.93 C 6.7 km/h
1011 19-01-2014 15:00:00 7.24167 C 6.64 g/m*3 7.24 C 4.40833 km/h
1012 19-01-2014 16:00:00 5.74 C 6.92 g/m*3 5.74 C 0.32 km/h
1013 19-01-2014 17:00:00 4.20833 C 6 g/m*3 4.21 C 0.8 km/h
1014 19-01-2014 18:00:00 3.81667 C 5.93 g/m*3 3.82 C 0.13333 km/h
1015 19-01-2014 19:00:00 3.68333 C 5.91 g/m*3 3.68 C 0.13333 km/h
1016 19-01-2014 20:00:00 3.41667 C 5.81 g/m*3 3.42 C 1.06667 km/h
1017 19-01-2014 21:00:00 3.38333 C 5.8 g/m*3 3.38 C 0 km/h
1018 19-01-2014 22:00:00 3.60833 C 5.88 g/m*3 3.61 C 0 km/h
1019 19-01-2014 23:00:00 3.79167 C 5.96 g/m*3 3.79 C 0 km/h
1020 20-01-2014 00:00:00 4.06667 C 6.07 g/m*3 4.07 C 0 km/h
1021 20-01-2014 01:00:00 4.2 C 6.12 g/m*3 4.2 C 0.26667 km/h
1022 20-01-2014 02:00:00 4.2 C 6.06 g/m*3 4.2 C 0.4 km/h
1023 20-01-2014 03:00:00 4.2 C 6.06 g/m*3 4.2 C 0 km/h
1024 20-01-2014 04:00:00 4.275 C 6.14 g/m*3 4.28 C 0 km/h
1025 20-01-2014 05:00:00 4.3 C 6.1 g/m*3 4.3 C 0 km/h
Sensor: Nr:Datum:Temp:Abs-Feuchte:Windchill:Wind:
Aussen-T/F 1026 20-01-2014 06:00:00 4.3 C 6.1 g/m*3 4.3 C 0 km/h
1027 20-01-2014 07:00:00 4.29167 C 6.15 g/m*3 4.29 C 0 km/h
1028 20-01-2014 08:00:00 4.2 C 6.12 g/m*3 4.2 C 0 km/h
1029 20-01-2014 09:00:00 4.2625 C 6.21 g/m*3 4.26 C 0 km/h
1030 20-01-2014 10:00:00 4.36667 C 6.3 g/m*3 4.37 C 0 km/h
1031 20-01-2014 11:00:00 4.61 C 6.42 g/m*3 4.61 C 0.48 km/h
1032 20-01-2014 12:00:00 4.8 C 6.44 g/m*3 4.8 C 1.14286 km/h
1033 20-01-2014 13:00:00 4.79167 C 6.43 g/m*3 4.79 C 1.33333 km/h
1034 20-01-2014 14:00:00 4.7 C 6.32 g/m*3 4.7 C 2.93333 km/h
1035 20-01-2014 15:00:00 4.61667 C 6.23 g/m*3 4.62 C 1.73333 km/h
1036 20-01-2014 16:00:00 4.58333 C 6.21 g/m*3 4.58 C 0.66667 km/h
1037 20-01-2014 17:00:00 4.55 C 6.16 g/m*3 4.55 C 1.86667 km/h
1038 20-01-2014 18:00:00 4.61667 C 6.13 g/m*3 4.62 C 1.73333 km/h
1039 20-01-2014 19:00:00 4.425 C 6.04 g/m*3 3.2 C 5.60833 km/h
1040 20-01-2014 20:00:00 4.125 C 5.99 g/m*3 4.13 C 0.8 km/h
1041 20-01-2014 21:00:00 3.95 C 5.99 g/m*3 3.95 C 0.13333 km/h
1042 20-01-2014 22:00:00 3.80833 C 6.02 g/m*3 3.81 C 0.53333 km/h
1043 20-01-2014 23:00:00 3.76667 C 6.01 g/m*3 3.77 C 3.06667 km/h
1044 21-01-2014 00:00:00 3.61667 C 5.95 g/m*3 3.62 C 1.33333 km/h
1045 21-01-2014 01:00:00 3.49167 C 5.88 g/m*3 3.49 C 2.93333 km/h
1046 21-01-2014 02:00:00 3.4 C 5.67 g/m*3 1.06 C 8.74167 km/h
1047 21-01-2014 03:00:00 3.16667 C 5.58 g/m*3 1.12 C 7.51667 km/h
1048 21-01-2014 04:00:00 2.94167 C 5.51 g/m*3 1.2 C 6.43333 km/h
1049 21-01-2014 05:00:00 2.88333 C 5.46 g/m*3 2.88 C 4.13333 km/h
1050 21-01-2014 06:00:00 2.88333 C 5.4 g/m*3 2.88 C 3.875 km/h
Sensor: Nr:Datum:Temp:Abs-Feuchte:Windchill:Wind:
Aussen-T/F 1051 21-01-2014 07:00:00 2.83333 C 5.39 g/m*3 2.83 C 4.55833 km/h
1052 21-01-2014 08:00:00 2.7 C 5.42 g/m*3 2.7 C 3.88333 km/h
1053 21-01-2014 09:00:00 2.80833 C 5.52 g/m*3 2.81 C 1.86667 km/h
1054 21-01-2014 10:00:00 3.11667 C 5.55 g/m*3 3.12 C 2.66667 km/h
1055 21-01-2014 11:00:00 3.3 C 5.63 g/m*3 3.3 C 2.80833 km/h
1056 21-01-2014 12:00:00 3.38333 C 5.68 g/m*3 3.38 C 0.4 km/h
1057 21-01-2014 13:00:00 3.875 C 5.76 g/m*3 3.88 C 0.93333 km/h
1058 21-01-2014 14:00:00 4.175 C 5.85 g/m*3 4.18 C 0.93333 km/h
1059 21-01-2014 15:00:00 4.23333 C 5.87 g/m*3 4.23 C 0.53333 km/h
1060 21-01-2014 16:00:00 4.01667 C 5.9 g/m*3 4.02 C 0 km/h
1061 21-01-2014 17:00:00 3.83333 C 5.94 g/m*3 3.83 C 0 km/h
1062 21-01-2014 18:00:00 3.8 C 6.01 g/m*3 3.8 C 0 km/h
1063 21-01-2014 19:00:00 3.9 C 6.06 g/m*3 3.9 C 0 km/h
1064 21-01-2014 20:00:00 3.975 C 6.09 g/m*3 3.98 C 0 km/h
1065 21-01-2014 21:00:00 3.9 C 6.06 g/m*3 3.9 C 0 km/h
1066 21-01-2014 22:00:00 3.9 C 6.06 g/m*3 3.9 C 0 km/h
1067 21-01-2014 23:00:00 3.81667 C 6.03 g/m*3 3.82 C 0 km/h
1068 22-01-2014 00:00:00 3.825 C 6.04 g/m*3 3.83 C 0 km/h
1069 22-01-2014 01:00:00 3.91667 C 6.07 g/m*3 3.92 C 0 km/h
1070 22-01-2014 02:00:00 4 C 6.17 g/m*3 4 C 0 km/h
1071 22-01-2014 03:00:00 4.025 C 6.18 g/m*3 4.03 C 0 km/h
1072 22-01-2014 04:00:00 4.05833 C 6.18 g/m*3 4.06 C 0.66667 km/h
1073 22-01-2014 05:00:00 3.825 C 6.02 g/m*3 3.83 C 1.33333 km/h
1074 22-01-2014 06:00:00 3.58333 C 5.77 g/m*3 2.34 C 5.35 km/h
1075 22-01-2014 07:00:00 3.41667 C 5.64 g/m*3 3.42 C 4.28333 km/h
Sensor: Nr:Datum:Temp:Abs-Feuchte:Windchill:Wind:
Aussen-T/F 1076 22-01-2014 08:00:00 3.35 C 5.64 g/m*3 3.35 C 2 km/h
1077 22-01-2014 12:00:00 4.8 C 5.9 g/m*3 3.73 C 5.33333 km/h
1078 22-01-2014 16:00:00 3.4 C 5.8 g/m*3 3.4 C 0.8 km/h
1079 22-01-2014 17:00:00 2.975 C 5.63 g/m*3 2.98 C 2.26667 km/h
1080 22-01-2014 18:00:00 2.66667 C 5.52 g/m*3 2.67 C 2.4 km/h
1081 22-01-2014 19:00:00 2.25 C 5.41 g/m*3 2.25 C 1.33333 km/h
1082 22-01-2014 20:00:00 1.73333 C 5.24 g/m*3 1.73 C 0 km/h
1083 22-01-2014 21:00:00 1.55833 C 5.21 g/m*3 1.56 C 0.26667 km/h
1084 22-01-2014 22:00:00 1.82222 C 5.33 g/m*3 1.82 C 0 km/h
1085 23-01-2014 09:00:00 3.48 C 5.71 g/m*3 2.31 C 5.12 km/h
1086 23-01-2014 10:00:00 3.65714 C 5.72 g/m*3 1.54 C 8.05714 km/h
1087 23-01-2014 11:00:00 3.8 C 5.65 g/m*3 0.78 C 12.1 km/h
1088 23-01-2014 12:00:00 4.26667 C 5.65 g/m*3 1.32 C 12.23333 km/h
1089 23-01-2014 13:00:00 4.38333 C 5.62 g/m*3 2.33 C 8.31667 km/h
1090 23-01-2014 14:00:00 4.325 C 5.55 g/m*3 2.63 C 6.975 km/h
1091 23-01-2014 15:00:00 4.59167 C 5.69 g/m*3 3.39 C 5.61667 km/h
1092 23-01-2014 16:00:00 4.24167 C 5.85 g/m*3 4.24 C 3.06667 km/h
1093 23-01-2014 17:00:00 3.28333 C 5.68 g/m*3 3.28 C 0.4 km/h
1094 23-01-2014 18:00:00 2.83333 C 5.61 g/m*3 2.83 C 0.26667 km/h
1095 23-01-2014 19:00:00 3.14167 C 5.79 g/m*3 3.14 C 0.66667 km/h
1096 23-01-2014 20:00:00 3.3 C 5.88 g/m*3 3.3 C 1.06667 km/h
1097 23-01-2014 21:00:00 3.35 C 5.9 g/m*3 3.35 C 0 km/h
1098 23-01-2014 22:00:00 3.54167 C 5.98 g/m*3 3.54 C 0.26667 km/h
1099 23-01-2014 23:00:00 3.59167 C 6 g/m*3 3.59 C 0.53333 km/h
1100 24-01-2014 00:00:00 3.05833 C 5.75 g/m*3 1.63 C 5.625 km/h
Sensor: Nr:Datum:Temp:Abs-Feuchte:Windchill:Wind:
Aussen-T/F 1101 24-01-2014 01:00:00 3.025 C 5.72 g/m*3 3.03 C 3.33333 km/h
1102 24-01-2014 02:00:00 3.85 C 5.95 g/m*3 1.27 C 10.05833 km/h
1103 24-01-2014 03:00:00 4.25 C 5.99 g/m*3 2.46 C 7.25833 km/h
1104 24-01-2014 04:00:00 4.3 C 5.96 g/m*3 3.11 C 5.475 km/h
1105 24-01-2014 05:00:00 4.29167 C 5.92 g/m*3 3 C 5.75 km/h
1106 24-01-2014 06:00:00 4.275 C 5.9 g/m*3 2.75 C 6.43333 km/h
1107 24-01-2014 07:00:00 3.825 C 5.8 g/m*3 3.83 C 4.4 km/h
1108 24-01-2014 08:00:00 3.83333 C 5.76 g/m*3 3.83 C 4.275 km/h
1109 24-01-2014 09:00:00 3.95 C 5.84 g/m*3 3.95 C 0.93333 km/h
1110 24-01-2014 10:00:00 4.23636 C 5.96 g/m*3 4.24 C 1.01818 km/h
1111 24-01-2014 12:00:00 4.8 C 5.98 g/m*3 4.8 C 1.6 km/h
1112 24-01-2014 13:00:00 4.8 C 6.04 g/m*3 4.8 C 1.6 km/h
1113 24-01-2014 14:00:00 4.7 C 6 g/m*3 4.7 C 1.2 km/h
1114 24-01-2014 15:00:00 4.7 C 6 g/m*3 4.7 C 1.92 km/h
1115 24-01-2014 17:00:00 4.1 C 6.08 g/m*3 4.1 C 0.32 km/h
1116 24-01-2014 18:00:00 4.1 C 6.08 g/m*3 4.1 C 0 km/h
1117 24-01-2014 19:00:00 3.94167 C 6.02 g/m*3 3.94 C 0 km/h
1118 24-01-2014 20:00:00 3.85833 C 6 g/m*3 3.86 C 0 km/h
1119 24-01-2014 21:00:00 3.66667 C 5.95 g/m*3 3.67 C 0 km/h
1120 24-01-2014 22:00:00 3.5 C 5.9 g/m*3 3.5 C 0 km/h
1121 24-01-2014 23:00:00 3.20833 C 5.79 g/m*3 3.21 C 0 km/h
1122 25-01-2014 00:00:00 3.14167 C 5.76 g/m*3 3.14 C 0 km/h
1123 25-01-2014 01:00:00 3.1 C 5.75 g/m*3 3.1 C 0.13333 km/h
1124 25-01-2014 02:00:00 3.18333 C 5.78 g/m*3 3.18 C 0 km/h
1125 25-01-2014 03:00:00 2.575 C 5.54 g/m*3 2.58 C 0.66667 km/h
Sensor: Nr:Datum:Temp:Abs-Feuchte:Windchill:Wind:
Aussen-T/F 1126 25-01-2014 04:00:00 1.5 C 5.16 g/m*3 1.5 C 0.8 km/h
1127 25-01-2014 05:00:00 1.80833 C 5.32 g/m*3 1.81 C 1.2 km/h
1128 25-01-2014 06:00:00 2.325 C 5.51 g/m*3 2.33 C 0.13333 km/h
1129 25-01-2014 07:00:00 2.29167 C 5.5 g/m*3 2.29 C 0.13333 km/h
1130 25-01-2014 08:00:00 1.93333 C 5.36 g/m*3 1.93 C 0 km/h
1131 25-01-2014 09:00:00 2.175 C 5.44 g/m*3 2.17 C 3.6 km/h
1132 25-01-2014 10:00:00 2.525 C 5.5 g/m*3 2.53 C 1.2 km/h
1133 25-01-2014 11:00:00 3.18333 C 5.66 g/m*3 3.18 C 2.26667 km/h
1134 25-01-2014 12:00:00 3.775 C 5.78 g/m*3 3.78 C 3.33333 km/h
1135 25-01-2014 13:00:00 4.41667 C 5.88 g/m*3 4.42 C 4.66667 km/h
1136 25-01-2014 14:00:00 4.8 C 5.97 g/m*3 4.8 C 4.4 km/h
1137 25-01-2014 17:00:00 3.22 C 5.62 g/m*3 3.22 C 2.88 km/h
1138 25-01-2014 18:00:00 3.2375 C 5.6 g/m*3 3.24 C 0.8 km/h
1139 25-01-2014 22:00:00 3.6 C 5.36 g/m*3 1.06 C 9.66667 km/h
1140 25-01-2014 23:00:00 3.00833 C 5.44 g/m*3 -0.38 C 13.15 km/h
1141 26-01-2014 00:00:00 3.01667 C 5.52 g/m*3 -0.54 C 14.1 km/h
1142 26-01-2014 01:00:00 3.4 C 5.71 g/m*3 0.82 C 9.675 km/h
1143 26-01-2014 02:00:00 4.28333 C 5.9 g/m*3 1.91 C 9.54167 km/h
1144 26-01-2014 03:00:00 5.04167 C 5.9 g/m*3 1.5 C 17.03333 km/h
1145 26-01-2014 04:00:00 5.35833 C 5.89 g/m*3 1.84 C 17.44167 km/h
1146 26-01-2014 05:00:00 5.9 C 5.76 g/m*3 2.07 C 21.16667 km/h
1147 26-01-2014 06:00:00 6.01667 C 5.77 g/m*3 2.1 C 22.25833 km/h
1148 26-01-2014 07:00:00 6.025 C 5.76 g/m*3 2.95 C 15.43333 km/h
1149 26-01-2014 08:00:00 5.8 C 5.74 g/m*3 3.68 C 9.68333 km/h
1150 26-01-2014 09:00:00 5.65 C 5.71 g/m*3 2.77 C 13.56667 km/h
Sensor: Nr:Datum:Temp:Abs-Feuchte:Windchill:Wind:
Aussen-T/F 1151 26-01-2014 10:00:00 5.65833 C 5.72 g/m*3 2.66 C 14.36667 km/h
1152 26-01-2014 11:00:00 5.83333 C 5.68 g/m*3 3 C 13.56667 km/h
1153 26-01-2014 12:00:00 6.06 C 5.58 g/m*3 3.55 C 11.94 km/h
1154 26-01-2014 13:00:00 6.15 C 5.56 g/m*3 3.63 C 12.09167 km/h
1155 26-01-2014 14:00:00 6.2 C 5.47 g/m*3 3.99 C 10.48333 km/h
1156 26-01-2014 15:00:00 6.16667 C 5.45 g/m*3 4.52 C 7.93333 km/h
1157 26-01-2014 16:00:00 5.78333 C 5.34 g/m*3 5.78 C 4.14167 km/h
1158 26-01-2014 17:00:00 5.5 C 5.38 g/m*3 4.42 C 5.625 km/h
1159 26-01-2014 18:00:00 5.2 C 5.51 g/m*3 5.2 C 1.86667 km/h
1160 26-01-2014 19:00:00 4.84167 C 5.68 g/m*3 4.84 C 3.06667 km/h
1161 26-01-2014 20:00:00 4.3 C 5.9 g/m*3 4.3 C 4.13333 km/h
1162 26-01-2014 21:00:00 3.75833 C 5.85 g/m*3 3.76 C 2.66667 km/h
1163 26-01-2014 22:00:00 3.66667 C 5.84 g/m*3 3.67 C 3.2 km/h
1164 26-01-2014 23:00:00 3.78333 C 5.9 g/m*3 3.78 C 4.41667 km/h
1165 27-01-2014 00:00:00 4.1 C 5.97 g/m*3 4.1 C 4.83333 km/h
1166 27-01-2014 01:00:00 4.24167 C 6.13 g/m*3 4.24 C 3.2 km/h
1167 27-01-2014 02:00:00 4.31667 C 6.16 g/m*3 3.03 C 5.75 km/h
1168 27-01-2014 03:00:00 5 C 6.25 g/m*3 2.73 C 9.68333 km/h
1169 27-01-2014 04:00:00 4.19167 C 5.94 g/m*3 4.19 C 4.55833 km/h
1170 27-01-2014 05:00:00 4.28333 C 5.93 g/m*3 2.8 C 6.3 km/h
1171 27-01-2014 06:00:00 4.11667 C 5.77 g/m*3 4.12 C 4 km/h
1172 27-01-2014 07:00:00 3.14167 C 5.54 g/m*3 3.14 C 3.2 km/h
1173 27-01-2014 08:00:00 3.94167 C 5.5 g/m*3 1.73 C 8.59167 km/h
1174 27-01-2014 09:00:00 4.1 C 5.5 g/m*3 4.1 C 4.8 km/h
1175 27-01-2014 12:00:00 5.12727 C 5.43 g/m*3 2.41 C 12.00909 km/h
Sensor: Nr:Datum:Temp:Abs-Feuchte:Windchill:Wind:
Aussen-T/F 1176 27-01-2014 13:00:00 4.45833 C 5.64 g/m*3 2.52 C 7.91667 km/h
1177 27-01-2014 14:00:00 5.08333 C 5.36 g/m*3 2.63 C 10.60833 km/h
1178 27-01-2014 15:00:00 5.30833 C 5.31 g/m*3 3.7 C 7.25 km/h
1179 27-01-2014 16:00:00 5.04167 C 5.33 g/m*3 5.04 C 4.55833 km/h
1180 27-01-2014 17:00:00 4.25833 C 5.39 g/m*3 4.26 C 2.94167 km/h
1181 27-01-2014 18:00:00 4.06364 C 5.33 g/m*3 4.06 C 2.47273 km/h
1182 27-01-2014 21:00:00 4.4 C 6.53 g/m*3 2.53 C 7.65 km/h
1183 28-01-2014 08:00:00 1.4 C 4.96 g/m*3 1.4 C 2.13333 km/h
1184 28-01-2014 10:00:00 3.63333 C 5.25 g/m*3 3.63 C 4.3 km/h
1185 28-01-2014 11:00:00 3.85833 C 5.3 g/m*3 2.5 C 5.75833 km/h
1186 28-01-2014 12:00:00 5.125 C 5.28 g/m*3 3.02 C 9.0625 km/h
1187 28-01-2014 16:00:00 6.6 C 5.66 g/m*3 5.78 C 5.33333 km/h
1188 28-01-2014 17:00:00 3.7 C 5.42 g/m*3 3.7 C 3.2 km/h
1189 28-01-2014 18:00:00 2.69167 C 5.21 g/m*3 2.69 C 3.46667 km/h
1190 28-01-2014 19:00:00 1.925 C 5.02 g/m*3 1.93 C 3.33333 km/h
1191 28-01-2014 20:00:00 1.46667 C 4.93 g/m*3 1.47 C 2.93333 km/h
1192 28-01-2014 21:00:00 1.04167 C 4.84 g/m*3 1.04 C 2.66667 km/h
1193 28-01-2014 22:00:00 0.80833 C 4.77 g/m*3 0.81 C 3.06667 km/h
1194 28-01-2014 23:00:00 0.38333 C 4.72 g/m*3 0.38 C 3.2 km/h
1195 29-01-2014 00:00:00 0.11667 C 4.62 g/m*3 0.12 C 2.8 km/h
1196 29-01-2014 01:00:00 -0.20833 C 4.53 g/m*3 -0.21 C 3.06667 km/h
1197 29-01-2014 02:00:00 0.20833 C 4.69 g/m*3 0.21 C 2.53333 km/h
1198 29-01-2014 03:00:00 0.2 C 4.67 g/m*3 0.2 C 3.2 km/h
1199 29-01-2014 04:00:00 1.2 C 4.87 g/m*3 1.2 C 2.66667 km/h
1200 29-01-2014 05:00:00 1.36667 C 4.84 g/m*3 1.37 C 2.66667 km/h
Sensor: Nr:Datum:Temp:Abs-Feuchte:Windchill:Wind:
Aussen-T/F 1201 29-01-2014 07:00:00 1.62222 C 4.73 g/m*3 1.62 C 2.66667 km/h
1202 29-01-2014 08:00:00 1.76667 C 4.74 g/m*3 1.77 C 2.53333 km/h
1203 29-01-2014 09:00:00 2.05 C 4.74 g/m*3 0.17 C 6.43333 km/h
1204 29-01-2014 13:00:00 4.06667 C 4.81 g/m*3 1.75 C 9.13333 km/h
1205 29-01-2014 14:00:00 3.86667 C 4.64 g/m*3 2.65 C 5.36667 km/h
1206 29-01-2014 15:00:00 3.8 C 4.64 g/m*3 3.8 C 3.2 km/h
1207 29-01-2014 16:00:00 2.9 C 4.49 g/m*3 -0.46 C 12.9 km/h
1208 29-01-2014 17:00:00 2.625 C 4.48 g/m*3 2.63 C 3.6 km/h
1209 29-01-2014 18:00:00 2.01667 C 4.54 g/m*3 2.02 C 1.06667 km/h
1210 29-01-2014 19:00:00 1.78333 C 4.54 g/m*3 1.78 C 3.33333 km/h
1211 29-01-2014 20:00:00 2.23333 C 4.5 g/m*3 2.23 C 4.025 km/h
1212 29-01-2014 21:00:00 1.925 C 4.48 g/m*3 1.93 C 2.53333 km/h
1213 29-01-2014 22:00:00 1.86667 C 4.52 g/m*3 1.87 C 1.86667 km/h
1214 29-01-2014 23:00:00 1.475 C 4.55 g/m*3 1.48 C 1.6 km/h
1215 30-01-2014 00:00:00 2.03333 C 4.57 g/m*3 2.03 C 1.86667 km/h
1216 30-01-2014 01:00:00 1.79167 C 4.6 g/m*3 1.79 C 0.26667 km/h
1217 30-01-2014 02:00:00 1.875 C 4.61 g/m*3 1.88 C 0.8 km/h
1218 30-01-2014 03:00:00 1.9 C 4.56 g/m*3 1.9 C 0.8 km/h
1219 30-01-2014 04:00:00 1.89167 C 4.53 g/m*3 1.89 C 1.86667 km/h
1220 30-01-2014 05:00:00 1.89167 C 4.56 g/m*3 1.89 C 0.13333 km/h
1221 30-01-2014 06:00:00 1.35833 C 4.51 g/m*3 1.36 C 0.66667 km/h
1222 30-01-2014 07:00:00 0.18333 C 4.31 g/m*3 0.18 C 1.46667 km/h
1223 30-01-2014 08:00:00 0.56667 C 4.45 g/m*3 0.57 C 0.26667 km/h
1224 30-01-2014 09:00:00 1.225 C 4.48 g/m*3 1.23 C 0.93333 km/h
1225 30-01-2014 10:00:00 2.10833 C 4.54 g/m*3 2.11 C 2.93333 km/h
Sensor: Nr:Datum:Temp:Abs-Feuchte:Windchill:Wind:
Aussen-T/F 1226 30-01-2014 11:00:00 3.06667 C 4.63 g/m*3 3.07 C 4 km/h
1227 30-01-2014 12:00:00 3.35 C 4.74 g/m*3 3.35 C 3.46667 km/h
1228 30-01-2014 13:00:00 4.10833 C 4.95 g/m*3 4.11 C 4.41667 km/h
1229 30-01-2014 14:00:00 5.35833 C 5.1 g/m*3 5.36 C 3.6 km/h
1230 30-01-2014 15:00:00 4.78333 C 5.36 g/m*3 4.78 C 1.06667 km/h
1231 30-01-2014 16:00:00 4.33333 C 5.37 g/m*3 4.33 C 1.2 km/h
1232 30-01-2014 17:00:00 2.51667 C 4.97 g/m*3 2.52 C 2.4 km/h
1233 30-01-2014 18:00:00 1.54167 C 4.78 g/m*3 1.54 C 2.93333 km/h
1234 30-01-2014 19:00:00 0.91667 C 4.64 g/m*3 0.92 C 2.93333 km/h
1235 30-01-2014 20:00:00 0.58333 C 4.54 g/m*3 0.58 C 2.53333 km/h
1236 30-01-2014 21:00:00 0.225 C 4.43 g/m*3 0.23 C 1.46667 km/h
1237 30-01-2014 22:00:00 0 C 4.41 g/m*3 0 C 1.06667 km/h
1238 30-01-2014 23:00:00 0.05833 C 4.48 g/m*3 0.06 C 0 km/h
1239 31-01-2014 00:00:00 0.23333 C 4.53 g/m*3 0.23 C 0 km/h
1240 31-01-2014 01:00:00 0.33333 C 4.53 g/m*3 0.33 C 0 km/h
1241 31-01-2014 02:00:00 0.225 C 4.49 g/m*3 0.23 C 0 km/h
1242 31-01-2014 03:00:00 -0.01667 C 4.42 g/m*3 -0.02 C 0 km/h
1243 31-01-2014 04:00:00 0.275 C 4.49 g/m*3 0.28 C 0 km/h
1244 31-01-2014 05:00:00 0.13333 C 4.45 g/m*3 0.13 C 0.26667 km/h
1245 31-01-2014 06:00:00 -0.28333 C 4.36 g/m*3 -0.28 C 0.26667 km/h
1246 31-01-2014 07:00:00 -0.95 C 4.23 g/m*3 -0.95 C 0.13333 km/h
1247 31-01-2014 08:00:00 -1.15 C 4.18 g/m*3 -1.15 C 0 km/h
1248 31-01-2014 09:00:00 -1.06667 C 4.23 g/m*3 -1.07 C 0 km/h
1249 31-01-2014 10:00:00 -0.5 C 4.41 g/m*3 -0.5 C 0 km/h
1250 31-01-2014 11:00:00 0.35 C 4.65 g/m*3 0.35 C 1.2 km/h
Sensor: Nr:Datum:Temp:Abs-Feuchte:Windchill:Wind:
Aussen-T/F 1251 31-01-2014 12:00:00 1.35833 C 4.88 g/m*3 1.36 C 1.6 km/h
1252 31-01-2014 13:00:00 2.15833 C 5.06 g/m*3 2.16 C 1.86667 km/h
1253 31-01-2014 14:00:00 2.91667 C 5.29 g/m*3 2.92 C 2.53333 km/h
1254 31-01-2014 15:00:00 3.65833 C 5.45 g/m*3 3.66 C 2.8 km/h
1255 31-01-2014 16:00:00 3.95833 C 5.43 g/m*3 3.96 C 4.275 km/h
1256 31-01-2014 17:00:00 3.3 C 5.21 g/m*3 3.3 C 4.95833 km/h
1257 31-01-2014 18:00:00 1.95833 C 4.99 g/m*3 1.96 C 3.33333 km/h
1258 31-01-2014 19:00:00 1.39167 C 4.9 g/m*3 1.39 C 2.93333 km/h
1259 31-01-2014 20:00:00 1.64167 C 5 g/m*3 1.64 C 4.28333 km/h
1260 31-01-2014 21:00:00 2.63333 C 5.12 g/m*3 0.75 C 6.71667 km/h
1261 31-01-2014 22:00:00 1.425 C 4.89 g/m*3 1.43 C 2.66667 km/h
1262 31-01-2014 23:00:00 0.93333 C 4.82 g/m*3 0.93 C 1.6 km/h
1263 01-02-2014 00:00:00 1.06667 C 4.89 g/m*3 1.07 C 0.93333 km/h
1264 01-02-2014 01:00:00 1.29167 C 4.97 g/m*3 1.29 C 1.46667 km/h
1265 01-02-2014 02:00:00 1.9 C 5.09 g/m*3 1.9 C 3.60833 km/h
1266 01-02-2014 03:00:00 2.20833 C 5.14 g/m*3 2.21 C 2.53333 km/h
1267 01-02-2014 04:00:00 2.98333 C 5.32 g/m*3 2.98 C 4.53333 km/h
1268 01-02-2014 05:00:00 3.48333 C 5.4 g/m*3 3.48 C 4.14167 km/h
1269 01-02-2014 06:00:00 3.68333 C 5.49 g/m*3 3.68 C 3.6 km/h
1270 01-02-2014 07:00:00 4.29167 C 5.54 g/m*3 4.29 C 4.275 km/h
1271 01-02-2014 08:00:00 4.90833 C 5.56 g/m*3 3.84 C 5.35833 km/h
1272 01-02-2014 09:00:00 5.66667 C 5.75 g/m*3 4.31 C 6.56667 km/h
1273 01-02-2014 10:00:00 4.95833 C 6.18 g/m*3 4.96 C 2.8 km/h
1274 01-02-2014 11:00:00 4.49167 C 6.14 g/m*3 4.49 C 2.26667 km/h
1275 01-02-2014 12:00:00 5.28333 C 6.65 g/m*3 5.28 C 1.6 km/h
Sensor: Nr:Datum:Temp:Abs-Feuchte:Windchill:Wind:
Aussen-T/F 1276 01-02-2014 13:00:00 6.35 C 6.75 g/m*3 4.04 C 11.15833 km/h
1277 01-02-2014 14:00:00 6.58333 C 6.65 g/m*3 4.28 C 11.41667 km/h
1278 01-02-2014 15:00:00 7 C 6.69 g/m*3 5 C 10.21667 km/h
1279 01-02-2014 16:00:00 6.90833 C 6.7 g/m*3 6.22 C 5.08333 km/h
1280 01-02-2014 17:00:00 6.45833 C 6.66 g/m*3 5.71 C 5.08333 km/h
1281 01-02-2014 18:00:00 6.25 C 6.59 g/m*3 5.47 C 5.09167 km/h
1282 01-02-2014 19:00:00 5.88333 C 6.55 g/m*3 5.88 C 1.73333 km/h
1283 01-02-2014 20:00:00 5.65833 C 6.51 g/m*3 5.66 C 1.33333 km/h
1284 01-02-2014 21:00:00 5.125 C 6.31 g/m*3 5.13 C 1.2 km/h
1285 01-02-2014 22:00:00 4.70833 C 6.12 g/m*3 4.71 C 2.26667 km/h
1286 01-02-2014 23:00:00 4.175 C 6 g/m*3 4.18 C 1.86667 km/h
1287 02-02-2014 00:00:00 3.80833 C 5.9 g/m*3 3.81 C 0.13333 km/h
1288 02-02-2014 01:00:00 3.79167 C 5.96 g/m*3 3.79 C 0.13333 km/h
1289 02-02-2014 02:00:00 3.70833 C 5.92 g/m*3 3.71 C 0 km/h
1290 02-02-2014 03:00:00 3.70833 C 5.94 g/m*3 3.71 C 0.4 km/h
1291 02-02-2014 04:00:00 3.86667 C 5.99 g/m*3 3.87 C 0.93333 km/h
1292 02-02-2014 05:00:00 4.70833 C 6.23 g/m*3 4.71 C 3.75 km/h
1293 02-02-2014 06:00:00 5.2 C 6.26 g/m*3 5.2 C 1.73333 km/h
1294 02-02-2014 07:00:00 4.44167 C 6.07 g/m*3 4.44 C 1.33333 km/h
1295 02-02-2014 08:00:00 3.3 C 5.73 g/m*3 3.3 C 1.6 km/h
1296 02-02-2014 09:00:00 3.96667 C 6.05 g/m*3 3.97 C 0.66667 km/h
1297 02-02-2014 10:00:00 4.41667 C 6.13 g/m*3 4.42 C 0.93333 km/h
1298 02-02-2014 11:00:00 5.53333 C 6.14 g/m*3 4.24 C 6.31667 km/h
1299 02-02-2014 12:00:00 5.84167 C 6.09 g/m*3 5.84 C 4.40833 km/h
1300 02-02-2014 13:00:00 6.18333 C 6.13 g/m*3 5.03 C 6.15833 km/h
Sensor: Nr:Datum:Temp:Abs-Feuchte:Windchill:Wind:
Aussen-T/F 1301 02-02-2014 14:00:00 7.48333 C 6.14 g/m*3 5.61 C 10.08333 km/h
1302 02-02-2014 15:00:00 7.84167 C 6.08 g/m*3 6.11 C 9.7 km/h
1303 02-02-2014 16:00:00 6.43333 C 5.92 g/m*3 5.44 C 5.775 km/h
1304 02-02-2014 17:00:00 4.48333 C 5.6 g/m*3 4.48 C 3.6 km/h
1305 02-02-2014 18:00:00 3.20833 C 5.37 g/m*3 3.21 C 3.73333 km/h
1306 02-02-2014 19:00:00 2.53333 C 5.27 g/m*3 2.53 C 1.86667 km/h
1307 02-02-2014 20:00:00 1.975 C 5.15 g/m*3 1.98 C 0.53333 km/h
1308 02-02-2014 21:00:00 1.69167 C 5.09 g/m*3 1.69 C 0.8 km/h
1309 02-02-2014 22:00:00 1.00833 C 4.88 g/m*3 1.01 C 0 km/h
1310 02-02-2014 23:00:00 0.3 C 4.68 g/m*3 0.3 C 0.4 km/h
1311 03-02-2014 00:00:00 -0.03333 C 4.59 g/m*3 -0.03 C 0.4 km/h
1312 03-02-2014 01:00:00 -0.49167 C 4.47 g/m*3 -0.49 C 0.26667 km/h
1313 03-02-2014 02:00:00 -0.99167 C 4.34 g/m*3 -0.99 C 0 km/h
1314 03-02-2014 03:00:00 -1.24167 C 4.27 g/m*3 -1.24 C 0 km/h
1315 03-02-2014 04:00:00 -1.40833 C 4.22 g/m*3 -1.41 C 0.13333 km/h
1316 03-02-2014 05:00:00 -1.70833 C 4.14 g/m*3 -1.71 C 0.4 km/h
1317 03-02-2014 06:00:00 -1.8 C 4.15 g/m*3 -1.8 C 0.13333 km/h
1318 03-02-2014 07:00:00 -1.80833 C 4.14 g/m*3 -1.81 C 0.8 km/h
1319 03-02-2014 08:00:00 -1.86667 C 4.13 g/m*3 -1.87 C 0.13333 km/h
1320 03-02-2014 09:00:00 -0.84167 C 4.46 g/m*3 -0.84 C 0.13333 km/h
1321 03-02-2014 10:00:00 0.3 C 4.84 g/m*3 0.3 C 1.46667 km/h
1322 03-02-2014 11:00:00 0.9 C 5.05 g/m*3 0.9 C 0.4 km/h
1323 03-02-2014 12:00:00 1.80833 C 5.38 g/m*3 1.81 C 1.86667 km/h
1324 03-02-2014 13:00:00 2.525 C 5.62 g/m*3 2.53 C 0.4 km/h
1325 03-02-2014 14:00:00 2.91667 C 5.68 g/m*3 2.92 C 0 km/h
Sensor: Nr:Datum:Temp:Abs-Feuchte:Windchill:Wind:
Aussen-T/F 1326 03-02-2014 15:00:00 3.23333 C 5.7 g/m*3 3.23 C 0.13333 km/h
1327 03-02-2014 16:00:00 3.34167 C 5.72 g/m*3 3.34 C 0.13333 km/h
1328 03-02-2014 17:00:00 3.25 C 5.72 g/m*3 3.25 C 0.13333 km/h
1329 03-02-2014 18:00:00 3.25 C 5.74 g/m*3 3.25 C 0 km/h
1330 03-02-2014 19:00:00 3.35833 C 5.77 g/m*3 3.36 C 0.4 km/h
1331 03-02-2014 20:00:00 2.74167 C 5.47 g/m*3 2.74 C 2.53333 km/h
1332 03-02-2014 21:00:00 2.41667 C 5.37 g/m*3 2.42 C 2.13333 km/h
1333 03-02-2014 22:00:00 3.43333 C 5.58 g/m*3 1.96 C 5.9 km/h
1334 03-02-2014 23:00:00 2.94167 C 5.39 g/m*3 2.94 C 3.34167 km/h
1335 04-02-2014 00:00:00 2.73333 C 5.4 g/m*3 2.73 C 3.34167 km/h
1336 04-02-2014 01:00:00 2.575 C 5.34 g/m*3 2.58 C 4.01667 km/h
1337 04-02-2014 02:00:00 2.4 C 5.34 g/m*3 2.4 C 2 km/h
1338 04-02-2014 03:00:00 2.44167 C 5.34 g/m*3 2.44 C 2.66667 km/h
1339 04-02-2014 04:00:00 1.96667 C 5.22 g/m*3 1.97 C 2.8 km/h
1340 04-02-2014 05:00:00 1.675 C 5.17 g/m*3 1.68 C 2.53333 km/h
1341 04-02-2014 06:00:00 2.36667 C 5.43 g/m*3 2.37 C 2.53333 km/h
1342 04-02-2014 07:00:00 2.825 C 5.58 g/m*3 2.83 C 2.80833 km/h
1343 04-02-2014 08:00:00 3.3 C 5.7 g/m*3 3.3 C 1.86667 km/h
1344 04-02-2014 09:00:00 4.95 C 5.87 g/m*3 4.95 C 4.80833 km/h
1345 04-02-2014 10:00:00 5.95833 C 6.01 g/m*3 4.95 C 5.61667 km/h
1346 04-02-2014 11:00:00 6.24167 C 6.08 g/m*3 5.02 C 6.43333 km/h
1347 04-02-2014 12:00:00 6.84167 C 6.22 g/m*3 6.84 C 4.26667 km/h
1348 04-02-2014 13:00:00 7.5 C 6.36 g/m*3 7.5 C 3.73333 km/h
1349 04-02-2014 14:00:00 8.14167 C 6.56 g/m*3 8.14 C 2.8 km/h
1350 04-02-2014 15:00:00 7.26667 C 6.73 g/m*3 7.27 C 1.6 km/h
Sensor: Nr:Datum:Temp:Abs-Feuchte:Windchill:Wind:
Aussen-T/F 1351 04-02-2014 16:00:00 7.175 C 6.63 g/m*3 7.18 C 2 km/h
1352 04-02-2014 17:00:00 5.8 C 6.28 g/m*3 5.8 C 3.33333 km/h
1353 04-02-2014 18:00:00 5.26667 C 6.21 g/m*3 5.27 C 1.33333 km/h
1354 04-02-2014 19:00:00 4.28333 C 5.88 g/m*3 4.28 C 2.40833 km/h
1355 04-02-2014 20:00:00 3.48333 C 5.73 g/m*3 3.48 C 1.86667 km/h
1356 04-02-2014 21:00:00 2.925 C 5.57 g/m*3 2.93 C 2.8 km/h
1357 04-02-2014 22:00:00 2.51667 C 5.47 g/m*3 2.52 C 3.2 km/h
1358 04-02-2014 23:00:00 2.275 C 5.42 g/m*3 2.28 C 2.66667 km/h
1359 05-02-2014 00:00:00 2.25 C 5.43 g/m*3 2.25 C 2.8 km/h
1360 05-02-2014 01:00:00 2.13333 C 5.38 g/m*3 2.13 C 2.66667 km/h
1361 05-02-2014 02:00:00 2.1 C 5.37 g/m*3 2.1 C 3.33333 km/h
1362 05-02-2014 03:00:00 2.66667 C 5.51 g/m*3 2.67 C 4.28333 km/h
1363 05-02-2014 04:00:00 2.8 C 5.47 g/m*3 2.8 C 3.875 km/h
1364 05-02-2014 05:00:00 3.05833 C 5.52 g/m*3 0.99 C 7.51667 km/h
1365 05-02-2014 06:00:00 3.56667 C 5.5 g/m*3 1.18 C 9.00833 km/h
1366 05-02-2014 07:00:00 3.44167 C 5.4 g/m*3 1.92 C 6.03333 km/h
1367 05-02-2014 08:00:00 3.325 C 5.38 g/m*3 3.33 C 3.06667 km/h
1368 05-02-2014 09:00:00 3.20833 C 5.61 g/m*3 3.21 C 1.46667 km/h
1369 05-02-2014 10:00:00 3.89167 C 5.94 g/m*3 3.89 C 2 km/h
1370 05-02-2014 11:00:00 4.93333 C 6.3 g/m*3 4.93 C 2.66667 km/h
1371 05-02-2014 12:00:00 5.58333 C 6.36 g/m*3 5.58 C 3.6 km/h
1372 05-02-2014 13:00:00 6.69167 C 6.46 g/m*3 5.71 C 5.875 km/h
1373 05-02-2014 14:00:00 6.95 C 6.55 g/m*3 5.95 C 6.03333 km/h
1374 05-02-2014 15:00:00 6.25 C 6.46 g/m*3 6.25 C 4.53333 km/h
1375 05-02-2014 16:00:00 6.025 C 6.28 g/m*3 5.16 C 5.225 km/h
Sensor: Nr:Datum:Temp:Abs-Feuchte:Windchill:Wind:
Aussen-T/F 1376 05-02-2014 17:00:00 5.80833 C 6.32 g/m*3 5.81 C 4.14167 km/h
1377 05-02-2014 18:00:00 5.95 C 6.51 g/m*3 5.95 C 1.86667 km/h
1378 05-02-2014 19:00:00 5.64167 C 6.42 g/m*3 5.64 C 1.86667 km/h
1379 05-02-2014 20:00:00 5.43333 C 6.39 g/m*3 5.43 C 1.73333 km/h
1380 05-02-2014 21:00:00 6.44167 C 6.49 g/m*3 5.63 C 5.23333 km/h
1381 05-02-2014 22:00:00 7.8 C 6.43 g/m*3 6.12 C 9.39167 km/h
1382 05-02-2014 23:00:00 7.86667 C 6.48 g/m*3 5.51 C 13.43333 km/h
1383 06-02-2014 00:00:00 7.725 C 6.62 g/m*3 5.44 C 12.75833 km/h
1384 06-02-2014 01:00:00 7.79167 C 6.77 g/m*3 5.42 C 13.41667 km/h
1385 06-02-2014 02:00:00 8.125 C 6.86 g/m*3 6.01 C 12.21667 km/h
1386 06-02-2014 03:00:00 8.29167 C 6.84 g/m*3 6.08 C 13.03333 km/h
1387 06-02-2014 04:00:00 8.26667 C 6.84 g/m*3 6.04 C 13.15833 km/h
1388 06-02-2014 05:00:00 8.05833 C 6.73 g/m*3 5.82 C 12.89167 km/h
1389 06-02-2014 06:00:00 7.66667 C 6.45 g/m*3 5.16 C 14.09167 km/h
1390 06-02-2014 07:00:00 7.05 C 6.28 g/m*3 5.09 C 10.08333 km/h
1391 06-02-2014 08:00:00 6.73333 C 6.18 g/m*3 5.36 C 7.23333 km/h
1392 06-02-2014 09:00:00 7.79167 C 6.38 g/m*3 6.53 C 7.51667 km/h
1393 06-02-2014 10:00:00 8.44167 C 6.51 g/m*3 6.68 C 10.475 km/h
1394 06-02-2014 11:00:00 8.85 C 6.51 g/m*3 6.17 C 17.7 km/h
1395 06-02-2014 12:00:00 9.24167 C 6.48 g/m*3 6.81 C 16.36667 km/h
1396 06-02-2014 13:00:00 9.93333 C 6.4 g/m*3 8.18 C 12.36667 km/h
1397 06-02-2014 14:00:00 10.41667 C 6.46 g/m*3 9.38 C 8.59167 km/h
1398 06-02-2014 15:00:00 10.20833 C 6.32 g/m*3 9.38 C 7.39167 km/h
1399 06-02-2014 16:00:00 9.06667 C 6.51 g/m*3 9.07 C 2.53333 km/h
1400 06-02-2014 17:00:00 8.66667 C 6.47 g/m*3 8.67 C 4.00833 km/h
Sensor: Nr:Datum:Temp:Abs-Feuchte:Windchill:Wind:
Aussen-T/F 1401 06-02-2014 18:00:00 8.40833 C 6.54 g/m*3 8.41 C 4.15 km/h
1402 06-02-2014 19:00:00 8.75 C 6.46 g/m*3 8.75 C 3.46667 km/h
1403 06-02-2014 20:00:00 8.05 C 6.57 g/m*3 8.05 C 2.8 km/h
1404 06-02-2014 21:00:00 8.45 C 6.19 g/m*3 7.57 C 6.43333 km/h
1405 06-02-2014 22:00:00 8.04167 C 6.13 g/m*3 8.04 C 3.74167 km/h
1406 06-02-2014 23:00:00 8.15833 C 6.45 g/m*3 8.16 C 4.40833 km/h
1407 07-02-2014 00:00:00 7.64167 C 6.9 g/m*3 7.64 C 4.4 km/h
1408 07-02-2014 01:00:00 7.76667 C 6.91 g/m*3 7.77 C 3.6 km/h
1409 07-02-2014 02:00:00 8.025 C 6.82 g/m*3 8.03 C 4.14167 km/h
1410 07-02-2014 03:00:00 8.2 C 6.84 g/m*3 8.2 C 4.55 km/h
1411 07-02-2014 04:00:00 7.83333 C 6.96 g/m*3 7.83 C 3.6 km/h
1412 07-02-2014 05:00:00 7.71667 C 6.97 g/m*3 7.72 C 3.60833 km/h
1413 07-02-2014 06:00:00 9.13333 C 7.36 g/m*3 8.13 C 7.38333 km/h
1414 07-02-2014 07:00:00 10.63333 C 7.43 g/m*3 9.56 C 9.00833 km/h
1415 07-02-2014 08:00:00 11.35833 C 7.46 g/m*3 11.36 C 9.40833 km/h
1416 07-02-2014 09:00:00 12.48333 C 7.51 g/m*3 12.48 C 15.03333 km/h
1417 07-02-2014 10:00:00 13.06667 C 7.54 g/m*3 13.07 C 21.575 km/h
1418 07-02-2014 11:00:00 11.65833 C 7.64 g/m*3 11.66 C 28.83333 km/h
1419 07-02-2014 12:00:00 10.76667 C 6.89 g/m*3 7.49 C 31.25833 km/h
1420 07-02-2014 13:00:00 10.35833 C 6.86 g/m*3 7.25 C 27.08333 km/h
1421 07-02-2014 14:00:00 10.54167 C 6.6 g/m*3 7.08 C 33.25 km/h
1422 07-02-2014 15:00:00 9.85833 C 6.65 g/m*3 6.29 C 31.51667 km/h
1423 07-02-2014 16:00:00 9.25833 C 6.53 g/m*3 6.02 C 24.66667 km/h
1424 07-02-2014 17:00:00 8.64167 C 6.61 g/m*3 6.1 C 16.1 km/h
1425 07-02-2014 18:00:00 7.60833 C 6.6 g/m*3 4.3 C 20.51667 km/h
Sensor: Nr:Datum:Temp:Abs-Feuchte:Windchill:Wind:
Aussen-T/F 1426 07-02-2014 19:00:00 6.99167 C 6.36 g/m*3 4.42 C 13.56667 km/h
1427 07-02-2014 20:00:00 6.64167 C 6.22 g/m*3 4.21 C 12.23333 km/h
1428 07-02-2014 21:00:00 5.99167 C 6.14 g/m*3 4.09 C 8.86667 km/h
1429 07-02-2014 22:00:00 5.075 C 5.94 g/m*3 4.08 C 5.225 km/h
1430 07-02-2014 23:00:00 3.74167 C 5.64 g/m*3 3.74 C 2.4 km/h
1431 08-02-2014 00:00:00 2.86667 C 5.46 g/m*3 2.87 C 2.66667 km/h
1432 08-02-2014 01:00:00 2.275 C 5.27 g/m*3 2.28 C 1.33333 km/h
1433 08-02-2014 02:00:00 2.45833 C 5.3 g/m*3 2.46 C 1.6 km/h
1434 08-02-2014 03:00:00 3.55 C 5.53 g/m*3 3.55 C 3.73333 km/h
1435 08-02-2014 04:00:00 5.33333 C 5.86 g/m*3 4 C 6.31667 km/h
1436 08-02-2014 05:00:00 5.925 C 5.98 g/m*3 5.93 C 4.40833 km/h
1437 08-02-2014 06:00:00 6.025 C 6.07 g/m*3 4.94 C 5.88333 km/h
1438 08-02-2014 07:00:00 6.53333 C 6.09 g/m*3 5.02 C 7.64167 km/h
1439 08-02-2014 08:00:00 7.2 C 6.06 g/m*3 5.74 C 7.91667 km/h
1440 08-02-2014 09:00:00 7.78333 C 6.05 g/m*3 6.24 C 8.725 km/h
1441 08-02-2014 10:00:00 8.275 C 6.14 g/m*3 7.03 C 7.79167 km/h
1442 08-02-2014 11:00:00 9.25 C 6.25 g/m*3 8.12 C 8.05 km/h
1443 08-02-2014 12:00:00 9.59167 C 6.55 g/m*3 8.15 C 9.95833 km/h
1444 08-02-2014 13:00:00 8.79167 C 6.91 g/m*3 7.7 C 7.50833 km/h
1445 08-02-2014 14:00:00 8.46667 C 6.95 g/m*3 7.38 C 7.25 km/h
1446 08-02-2014 15:00:00 7.71667 C 7.05 g/m*3 6.84 C 6.025 km/h
1447 08-02-2014 16:00:00 7.16667 C 7.1 g/m*3 7.17 C 3.34167 km/h
1448 08-02-2014 17:00:00 6.475 C 6.91 g/m*3 6.48 C 2.93333 km/h
1449 08-02-2014 18:00:00 6.05 C 6.79 g/m*3 6.05 C 4.28333 km/h
1450 08-02-2014 19:00:00 6.78333 C 6.83 g/m*3 5.81 C 5.89167 km/h
Sensor: Nr:Datum:Temp:Abs-Feuchte:Windchill:Wind:
Aussen-T/F 1451 08-02-2014 20:00:00 7.1 C 6.82 g/m*3 5.72 C 7.525 km/h
1452 08-02-2014 21:00:00 7.125 C 6.52 g/m*3 5.65 C 7.93333 km/h
1453 08-02-2014 22:00:00 7.01667 C 6.33 g/m*3 5.28 C 8.98333 km/h
1454 08-02-2014 23:00:00 6.98333 C 6.06 g/m*3 4.76 C 11.425 km/h
1455 09-02-2014 00:00:00 6.35833 C 6.01 g/m*3 3.16 C 16.90833 km/h
1456 09-02-2014 01:00:00 4.44167 C 5.82 g/m*3 2.1 C 9.525 km/h
1457 09-02-2014 02:00:00 4.44167 C 5.75 g/m*3 2.81 C 6.83333 km/h
1458 09-02-2014 03:00:00 5.75 C 5.8 g/m*3 4.22 C 7.23333 km/h
1459 09-02-2014 04:00:00 5.79167 C 5.84 g/m*3 4.54 C 6.29167 km/h
1460 09-02-2014 05:00:00 5.91667 C 5.88 g/m*3 3.71 C 10.19167 km/h
1461 09-02-2014 06:00:00 5.68333 C 5.86 g/m*3 3.09 C 11.95833 km/h
1462 09-02-2014 07:00:00 5.65 C 5.8 g/m*3 2.73 C 13.825 km/h
1463 09-02-2014 08:00:00 5.725 C 5.78 g/m*3 3.48 C 10.225 km/h
1464 09-02-2014 09:00:00 5.9 C 5.78 g/m*3 3.15 C 13.15 km/h
1465 09-02-2014 10:00:00 6.30833 C 5.79 g/m*3 3.3 C 15.43333 km/h
1466 09-02-2014 11:00:00 6.575 C 5.83 g/m*3 3.36 C 17.43333 km/h
1467 09-02-2014 12:00:00 7.15833 C 5.7 g/m*3 3.66 C 21.175 km/h
1468 09-02-2014 13:00:00 7.725 C 5.55 g/m*3 4.67 C 18.50833 km/h
1469 09-02-2014 14:00:00 6.875 C 5.8 g/m*3 3.82 C 16.775 km/h
1470 09-02-2014 15:00:00 7.31667 C 5.55 g/m*3 4.74 C 14.09167 km/h
1471 09-02-2014 16:00:00 6.80833 C 5.43 g/m*3 4.55 C 11.425 km/h
1472 09-02-2014 17:00:00 6.25833 C 5.33 g/m*3 4.29 C 9.4 km/h
1473 09-02-2014 18:00:00 4.16667 C 5.26 g/m*3 4.17 C 2.26667 km/h
1474 09-02-2014 19:00:00 3.84167 C 5.35 g/m*3 3.84 C 3.34167 km/h
1475 09-02-2014 20:00:00 2.775 C 5.18 g/m*3 2.78 C 3.06667 km/h
Sensor: Nr:Datum:Temp:Abs-Feuchte:Windchill:Wind:
Aussen-T/F 1476 09-02-2014 21:00:00 2.7 C 5.24 g/m*3 2.7 C 2.8 km/h
1477 09-02-2014 22:00:00 2.325 C 5.2 g/m*3 2.33 C 1.33333 km/h
1478 09-02-2014 23:00:00 1.75833 C 5.07 g/m*3 1.76 C 0.4 km/h
1479 10-02-2014 00:00:00 1.425 C 5 g/m*3 1.43 C 0.8 km/h
1480 10-02-2014 01:00:00 1.175 C 4.93 g/m*3 1.18 C 0.93333 km/h
1481 10-02-2014 02:00:00 1.15 C 4.94 g/m*3 1.15 C 2.94167 km/h
1482 10-02-2014 03:00:00 2.84167 C 5.23 g/m*3 0.74 C 7.51667 km/h
1483 10-02-2014 04:00:00 1.50833 C 4.91 g/m*3 1.51 C 2.13333 km/h
1484 10-02-2014 05:00:00 1.775 C 5.05 g/m*3 1.78 C 4.95 km/h
1485 10-02-2014 06:00:00 3.05833 C 5.13 g/m*3 3.06 C 4.96667 km/h
1486 10-02-2014 07:00:00 2.24167 C 5.06 g/m*3 2.24 C 0.93333 km/h
1487 10-02-2014 08:00:00 1.91667 C 5.04 g/m*3 1.92 C 0.26667 km/h
1488 10-02-2014 09:00:00 2.31667 C 5.18 g/m*3 2.32 C 0.13333 km/h
1489 10-02-2014 10:00:00 3.80833 C 5.32 g/m*3 1.95 C 7.25 km/h
1490 10-02-2014 11:00:00 5.95833 C 5.3 g/m*3 3.9 C 9.55 km/h
1491 10-02-2014 12:00:00 6.5 C 4.92 g/m*3 5.44 C 6.025 km/h
1492 10-02-2014 13:00:00 6.66667 C 4.85 g/m*3 5.94 C 5.08333 km/h
1493 10-02-2014 14:00:00 6.78333 C 4.9 g/m*3 6.78 C 4.93333 km/h
1494 10-02-2014 15:00:00 6.01667 C 5.44 g/m*3 6.02 C 4.15833 km/h
1495 10-02-2014 16:00:00 4.5 C 5.92 g/m*3 4.5 C 0.26667 km/h
1496 10-02-2014 17:00:00 3.775 C 5.87 g/m*3 3.78 C 0 km/h
1497 10-02-2014 18:00:00 3.48333 C 5.83 g/m*3 3.48 C 0 km/h
1498 10-02-2014 19:00:00 3.3 C 5.79 g/m*3 3.3 C 0 km/h
1499 10-02-2014 20:00:00 3.14167 C 5.75 g/m*3 3.14 C 0.8 km/h
1500 10-02-2014 21:00:00 2.63333 C 5.51 g/m*3 2.63 C 1.86667 km/h
Sensor: Nr:Datum:Temp:Abs-Feuchte:Windchill:Wind:
Aussen-T/F 1501 10-02-2014 22:00:00 2.63333 C 5.52 g/m*3 2.63 C 2.8 km/h
1502 10-02-2014 23:00:00 2.70833 C 5.53 g/m*3 2.71 C 4.40833 km/h
1503 11-02-2014 00:00:00 2.95 C 5.63 g/m*3 2.95 C 4.275 km/h
1504 11-02-2014 01:00:00 3.64167 C 5.7 g/m*3 0.95 C 10.36667 km/h
1505 11-02-2014 02:00:00 4.10833 C 5.77 g/m*3 1.4 C 10.88333 km/h
1506 11-02-2014 03:00:00 3.875 C 5.75 g/m*3 1.52 C 9.13333 km/h
1507 11-02-2014 04:00:00 3.99167 C 5.78 g/m*3 2.38 C 6.55833 km/h
1508 11-02-2014 05:00:00 3.86667 C 5.76 g/m*3 2.32 C 6.29167 km/h
1509 11-02-2014 06:00:00 4.78333 C 5.94 g/m*3 3.05 C 7.375 km/h
1510 11-02-2014 07:00:00 5.325 C 5.92 g/m*3 2.71 C 11.69167 km/h
1511 11-02-2014 08:00:00 5.425 C 5.81 g/m*3 3.01 C 10.75833 km/h
1512 11-02-2014 09:00:00 5.69167 C 5.64 g/m*3 3.61 C 9.4 km/h
1513 11-02-2014 10:00:00 5.94167 C 5.84 g/m*3 3.88 C 9.54167 km/h
1514 11-02-2014 11:00:00 6.43333 C 6.05 g/m*3 3.67 C 13.96667 km/h
1515 11-02-2014 12:00:00 6.61667 C 5.88 g/m*3 4.07 C 12.89167 km/h
1516 11-02-2014 13:00:00 7.31667 C 5.83 g/m*3 5.6 C 9.14167 km/h
1517 11-02-2014 14:00:00 7.98333 C 5.68 g/m*3 6.66 C 7.9 km/h
1518 11-02-2014 15:00:00 8.38333 C 5.5 g/m*3 6.98 C 8.59167 km/h
1519 11-02-2014 16:00:00 7.3 C 5.54 g/m*3 6.66 C 5.08333 km/h
1520 11-02-2014 17:00:00 5.775 C 5.61 g/m*3 5.78 C 3.2 km/h
1521 11-02-2014 18:00:00 4.575 C 5.61 g/m*3 4.58 C 3.06667 km/h
1522 11-02-2014 19:00:00 4.65 C 5.64 g/m*3 4.65 C 3.075 km/h
1523 11-02-2014 20:00:00 4.68333 C 5.64 g/m*3 4.68 C 2.26667 km/h
1524 11-02-2014 21:00:00 5.225 C 5.57 g/m*3 5.23 C 3.2 km/h
1525 11-02-2014 22:00:00 5.625 C 5.61 g/m*3 5.63 C 2.53333 km/h
Sensor: Nr:Datum:Temp:Abs-Feuchte:Windchill:Wind:
Aussen-T/F 1526 11-02-2014 23:00:00 5.75833 C 5.71 g/m*3 5.76 C 2.66667 km/h
1527 12-02-2014 00:00:00 5.45 C 5.93 g/m*3 5.45 C 2.94167 km/h
1528 12-02-2014 01:00:00 5.31667 C 5.99 g/m*3 3.99 C 6.31667 km/h
1529 12-02-2014 02:00:00 5.15 C 6.02 g/m*3 2.68 C 10.74167 km/h
1530 12-02-2014 03:00:00 5.00833 C 5.98 g/m*3 2.2 C 12.36667 km/h
1531 12-02-2014 04:00:00 4.225 C 5.77 g/m*3 2.6 C 6.71667 km/h
1532 12-02-2014 05:00:00 3.73333 C 5.66 g/m*3 2.07 C 6.58333 km/h
1533 12-02-2014 06:00:00 3.61667 C 5.55 g/m*3 1.85 C 6.84167 km/h
1534 12-02-2014 07:00:00 3.88333 C 5.64 g/m*3 1.81 C 8.05 km/h
1535 12-02-2014 08:00:00 3.55 C 5.55 g/m*3 3.55 C 3.61667 km/h
1536 12-02-2014 09:00:00 3.69167 C 5.62 g/m*3 3.69 C 4.68333 km/h
1537 12-02-2014 10:00:00 5.475 C 5.69 g/m*3 3.1 C 10.61667 km/h
1538 12-02-2014 11:00:00 6.29167 C 5.59 g/m*3 3.46 C 14.225 km/h
1539 12-02-2014 12:00:00 6.75833 C 5.63 g/m*3 4.22 C 13.03333 km/h
1540 12-02-2014 13:00:00 7.95833 C 5.54 g/m*3 5.8 C 12.225 km/h
1541 12-02-2014 14:00:00 8.14167 C 5.5 g/m*3 6.18 C 11.3 km/h
1542 12-02-2014 15:00:00 8.34167 C 5.35 g/m*3 6.56 C 10.48333 km/h
1543 12-02-2014 16:00:00 7.31667 C 5.42 g/m*3 7.32 C 4.275 km/h
1544 12-02-2014 17:00:00 5.75833 C 5.38 g/m*3 4.91 C 5.08333 km/h
1545 12-02-2014 18:00:00 4.54167 C 5.37 g/m*3 4.54 C 2.8 km/h
1546 12-02-2014 19:00:00 4.33333 C 5.48 g/m*3 4.33 C 1.86667 km/h
1547 12-02-2014 20:00:00 4.58333 C 5.58 g/m*3 4.58 C 3.2 km/h
1548 12-02-2014 21:00:00 4.89167 C 5.64 g/m*3 4.89 C 2.93333 km/h
1549 12-02-2014 22:00:00 6.475 C 5.58 g/m*3 4.76 C 8.45 km/h
1550 12-02-2014 23:00:00 6.075 C 6.02 g/m*3 4.91 C 6.15833 km/h
Sensor: Nr:Datum:Temp:Abs-Feuchte:Windchill:Wind:
Aussen-T/F 1551 13-02-2014 00:00:00 5.625 C 6.03 g/m*3 3.63 C 8.99167 km/h
1552 13-02-2014 01:00:00 5.98333 C 6.14 g/m*3 3.63 C 11.025 km/h
1553 13-02-2014 02:00:00 5.925 C 6.32 g/m*3 5.93 C 3.075 km/h
1554 13-02-2014 03:00:00 5.80833 C 6.56 g/m*3 5.81 C 3.08333 km/h
1555 13-02-2014 04:00:00 6.2 C 6.66 g/m*3 4.74 C 7.24167 km/h
1556 13-02-2014 05:00:00 6.16667 C 6.43 g/m*3 4.24 C 9.125 km/h
1557 13-02-2014 06:00:00 5.43333 C 6.23 g/m*3 5.43 C 4.93333 km/h
1558 13-02-2014 07:00:00 5.425 C 6.21 g/m*3 5.43 C 4.81667 km/h
1559 13-02-2014 08:00:00 5.88333 C 6.37 g/m*3 5.88 C 2.8 km/h
1560 13-02-2014 09:00:00 6.30833 C 6.48 g/m*3 6.31 C 2.675 km/h
1561 13-02-2014 10:00:00 7.5 C 6.58 g/m*3 7.5 C 4.14167 km/h
1562 13-02-2014 11:00:00 7.90833 C 6.78 g/m*3 7.91 C 2.13333 km/h
1563 13-02-2014 12:00:00 7.28333 C 7 g/m*3 7.28 C 2.41667 km/h
1564 13-02-2014 13:00:00 5.91667 C 6.6 g/m*3 5.09 C 5.1 km/h
1565 13-02-2014 14:00:00 4.95833 C 6.25 g/m*3 3.85 C 5.49167 km/h
1566 13-02-2014 15:00:00 4.61667 C 6.19 g/m*3 4.62 C 0.4 km/h
1567 13-02-2014 16:00:00 4.55 C 6.19 g/m*3 4.55 C 4.69167 km/h
1568 13-02-2014 17:00:00 4.59167 C 6.18 g/m*3 2.9 C 7.10833 km/h
1569 13-02-2014 18:00:00 5.1 C 6.27 g/m*3 3.24 C 8.05833 km/h
1570 13-02-2014 19:00:00 5.59167 C 6.38 g/m*3 3.29 C 10.34167 km/h
1571 13-02-2014 20:00:00 5.64167 C 6.29 g/m*3 3.22 C 11.025 km/h
1572 13-02-2014 21:00:00 5.41667 C 5.94 g/m*3 2.49 C 13.56667 km/h
1573 13-02-2014 22:00:00 4.96667 C 5.63 g/m*3 2.75 C 9.40833 km/h
1574 13-02-2014 23:00:00 4.425 C 5.55 g/m*3 2.63 C 7.375 km/h
1575 14-02-2014 00:00:00 4.45833 C 5.6 g/m*3 3 C 6.3 km/h
Sensor: Nr:Datum:Temp:Abs-Feuchte:Windchill:Wind:
Aussen-T/F 1576 14-02-2014 01:00:00 4.36667 C 5.58 g/m*3 2.01 C 9.54167 km/h
1577 14-02-2014 02:00:00 4.91667 C 5.62 g/m*3 2.54 C 10.08333 km/h
1578 14-02-2014 03:00:00 4.98333 C 5.59 g/m*3 2.77 C 9.425 km/h
1579 14-02-2014 04:00:00 4.69167 C 5.48 g/m*3 2.83 C 7.8 km/h
1580 14-02-2014 05:00:00 4.19167 C 5.4 g/m*3 2.17 C 8.05 km/h
1581 14-02-2014 06:00:00 3.925 C 5.35 g/m*3 1.89 C 7.91667 km/h
1582 14-02-2014 07:00:00 2.825 C 5.28 g/m*3 2.83 C 2.8 km/h
1583 14-02-2014 08:00:00 3.64167 C 5.6 g/m*3 3.64 C 2.13333 km/h
1584 14-02-2014 09:00:00 5.19167 C 5.8 g/m*3 5.19 C 4.13333 km/h
1585 14-02-2014 10:00:00 5.89167 C 5.89 g/m*3 5.89 C 4.28333 km/h
1586 14-02-2014 11:00:00 6.64167 C 6.05 g/m*3 6.64 C 4.81667 km/h
1587 14-02-2014 12:00:00 7.78333 C 6.27 g/m*3 6.87 C 6.16667 km/h
1588 14-02-2014 13:00:00 8.16667 C 6.34 g/m*3 6.48 C 9.81667 km/h
1589 14-02-2014 14:00:00 8.19167 C 6.41 g/m*3 7.27 C 6.45 km/h
1590 14-02-2014 15:00:00 8.3 C 6.54 g/m*3 8.3 C 4.94167 km/h
1591 14-02-2014 16:00:00 7.83333 C 6.77 g/m*3 7.83 C 3.60833 km/h
1592 14-02-2014 17:00:00 6.25833 C 6.77 g/m*3 6.26 C 2.8 km/h
1593 14-02-2014 18:00:00 5.89167 C 6.5 g/m*3 4.38 C 7.25 km/h
1594 14-02-2014 19:00:00 5.56667 C 6.54 g/m*3 5.57 C 2.53333 km/h
1595 14-02-2014 20:00:00 5.09167 C 6.45 g/m*3 5.09 C 3.86667 km/h
1596 14-02-2014 21:00:00 5.09167 C 6.51 g/m*3 5.09 C 4.4 km/h
1597 14-02-2014 22:00:00 5.88333 C 6.84 g/m*3 5.88 C 4 km/h
1598 14-02-2014 23:00:00 5.75 C 6.74 g/m*3 5.75 C 3.46667 km/h
1599 15-02-2014 00:00:00 5.76667 C 6.72 g/m*3 5.77 C 4.54167 km/h
1600 15-02-2014 01:00:00 6.44167 C 6.95 g/m*3 6.44 C 4.94167 km/h
Sensor: Nr:Datum:Temp:Abs-Feuchte:Windchill:Wind:
Aussen-T/F 1601 15-02-2014 02:00:00 7.75 C 7.38 g/m*3 7.09 C 5.35 km/h
1602 15-02-2014 03:00:00 7.78333 C 7.26 g/m*3 7.78 C 4.54167 km/h
1603 15-02-2014 04:00:00 7.5 C 7.26 g/m*3 7.5 C 4.8 km/h
1604 15-02-2014 05:00:00 8.41667 C 7.65 g/m*3 8.42 C 4.4 km/h
1605 15-02-2014 06:00:00 9.55833 C 7.91 g/m*3 8.48 C 8.05 km/h
1606 15-02-2014 07:00:00 10.88333 C 7.81 g/m*3 9.2 C 13.41667 km/h
1607 15-02-2014 08:00:00 11.34167 C 7.47 g/m*3 11.34 C 13.83333 km/h
1608 15-02-2014 09:00:00 11.79167 C 7.35 g/m*3 11.79 C 22.10833 km/h
1609 15-02-2014 10:00:00 12 C 7.31 g/m*3 12 C 23.76667 km/h
1610 15-02-2014 11:00:00 12.23 C 7.18 g/m*3 12.23 C 23.16 km/h
1611 15-02-2014 12:00:00 12.16667 C 7.03 g/m*3 12.17 C 19.96667 km/h
1612 15-02-2014 13:00:00 12.13333 C 7.19 g/m*3 12.13 C 17.16667 km/h
1613 15-02-2014 14:00:00 12.30833 C 7.45 g/m*3 12.31 C 16.23333 km/h
1614 15-02-2014 15:00:00 11.94167 C 7.26 g/m*3 11.94 C 16.1 km/h
1615 15-02-2014 16:00:00 11.35333 C 7.11 g/m*3 11.35 C 14.28667 km/h
1616 15-02-2014 17:00:00 10.59167 C 7.02 g/m*3 9.07 C 11.7 km/h
1617 15-02-2014 18:00:00 9.96667 C 6.97 g/m*3 8.42 C 11.01667 km/h
1618 15-02-2014 19:00:00 9.16667 C 7.34 g/m*3 7.55 C 10.475 km/h
1619 15-02-2014 20:00:00 7.5 C 7.42 g/m*3 7.5 C 4.275 km/h
1620 15-02-2014 21:00:00 7.81667 C 7.26 g/m*3 6.09 C 9.66667 km/h
1621 15-02-2014 22:00:00 8.64167 C 7.07 g/m*3 6.47 C 13.29167 km/h
1622 15-02-2014 23:00:00 8.80833 C 6.84 g/m*3 6.24 C 16.63333 km/h
1623 16-02-2014 00:00:00 8.40833 C 6.76 g/m*3 6.09 C 13.975 km/h
1624 16-02-2014 01:00:00 8.45 C 6.63 g/m*3 5.76 C 16.90833 km/h
1625 16-02-2014 02:00:00 8.275 C 6.57 g/m*3 5.82 C 14.76667 km/h
Sensor: Nr:Datum:Temp:Abs-Feuchte:Windchill:Wind:
Aussen-T/F 1626 16-02-2014 03:00:00 7.95833 C 6.41 g/m*3 5.78 C 12.36667 km/h
1627 16-02-2014 04:00:00 8.125 C 6.3 g/m*3 5.86 C 13.15833 km/h
1628 16-02-2014 05:00:00 7.775 C 6.31 g/m*3 5.5 C 12.75833 km/h
1629 16-02-2014 06:00:00 7.69167 C 6.37 g/m*3 5.19 C 14.1 km/h
1630 16-02-2014 07:00:00 7.575 C 6.42 g/m*3 5.23 C 12.9 km/h
1631 16-02-2014 08:00:00 7.35833 C 6.37 g/m*3 5.08 C 12.23333 km/h
1632 16-02-2014 09:00:00 7.49167 C 6.53 g/m*3 5.17 C 12.625 km/h
1633 16-02-2014 10:00:00 8.00833 C 6.57 g/m*3 5.6 C 13.96667 km/h
1634 16-02-2014 11:00:00 8.56667 C 6.6 g/m*3 6.14 C 15.04167 km/h
1635 16-02-2014 12:00:00 8.45833 C 6.84 g/m*3 6.33 C 12.75833 km/h
1636 16-02-2014 13:00:00 8.68333 C 6.88 g/m*3 6.32 C 14.76667 km/h
1637 16-02-2014 14:00:00 9.21667 C 6.74 g/m*3 6.84 C 15.83333 km/h
1638 16-02-2014 15:00:00 9.325 C 6.58 g/m*3 7.18 C 14.23333 km/h
1639 16-02-2014 16:00:00 9.625 C 6.6 g/m*3 7.66 C 13.425 km/h
1640 16-02-2014 17:00:00 8.8 C 6.38 g/m*3 7.59 C 8.05 km/h
1641 16-02-2014 18:00:00 6.19167 C 6.26 g/m*3 6.19 C 3.86667 km/h
1642 16-02-2014 19:00:00 5.24167 C 6.1 g/m*3 5.24 C 3.86667 km/h
1643 16-02-2014 20:00:00 4.5 C 5.92 g/m*3 4.5 C 3.06667 km/h
1644 16-02-2014 21:00:00 3.86667 C 5.79 g/m*3 3.87 C 2.8 km/h
1645 16-02-2014 22:00:00 3.81667 C 5.68 g/m*3 3.82 C 3.46667 km/h
1646 16-02-2014 23:00:00 3.35 C 5.53 g/m*3 3.35 C 2.26667 km/h
1647 17-02-2014 00:00:00 2.775 C 5.39 g/m*3 2.78 C 1.86667 km/h
1648 17-02-2014 01:00:00 1.69167 C 5.11 g/m*3 1.69 C 0.13333 km/h
1649 17-02-2014 02:00:00 1.24167 C 5.01 g/m*3 1.24 C 0.66667 km/h
1650 17-02-2014 03:00:00 0.55833 C 4.79 g/m*3 0.56 C 0 km/h
Sensor: Nr:Datum:Temp:Abs-Feuchte:Windchill:Wind:
Aussen-T/F 1651 17-02-2014 04:00:00 0.16667 C 4.71 g/m*3 0.17 C 0 km/h
1652 17-02-2014 05:00:00 -0.04167 C 4.64 g/m*3 -0.04 C 0 km/h
1653 17-02-2014 06:00:00 0.13333 C 4.72 g/m*3 0.13 C 0.26667 km/h
1654 17-02-2014 07:00:00 0.49167 C 4.86 g/m*3 0.49 C 0.13333 km/h
1655 17-02-2014 08:00:00 1.25 C 5.12 g/m*3 1.25 C 2 km/h
1656 17-02-2014 09:00:00 2.24167 C 5.48 g/m*3 2.24 C 1.2 km/h
1657 17-02-2014 10:00:00 3.51667 C 5.95 g/m*3 3.52 C 4.44167 km/h
1658 17-02-2014 11:00:00 4.99167 C 6.36 g/m*3 3.98 C 5.23333 km/h
1659 17-02-2014 12:00:00 6.93333 C 6.79 g/m*3 4.67 C 11.56667 km/h
1660 17-02-2014 13:00:00 7.65833 C 6.75 g/m*3 5.25 C 13.43333 km/h
1661 17-02-2014 14:00:00 8.71667 C 6.81 g/m*3 6.68 C 12.5 km/h
1662 17-02-2014 15:00:00 9.35833 C 6.76 g/m*3 7.6 C 11.56667 km/h
1663 17-02-2014 16:00:00 8.59167 C 6.75 g/m*3 8 C 5.5 km/h
1664 17-02-2014 17:00:00 6.51667 C 6.54 g/m*3 6.52 C 4 km/h
1665 17-02-2014 18:00:00 5.03333 C 6.23 g/m*3 5.03 C 4.13333 km/h
1666 17-02-2014 19:00:00 4.21667 C 6 g/m*3 4.22 C 1.6 km/h
1667 17-02-2014 20:00:00 3.65833 C 5.85 g/m*3 3.66 C 0.26667 km/h
1668 17-02-2014 21:00:00 2.95 C 5.6 g/m*3 2.95 C 0 km/h
1669 17-02-2014 22:00:00 2.09167 C 5.33 g/m*3 2.09 C 0 km/h
1670 17-02-2014 23:00:00 1.625 C 5.2 g/m*3 1.63 C 0 km/h
1671 18-02-2014 00:00:00 1.3 C 5.09 g/m*3 1.3 C 0.13333 km/h
1672 18-02-2014 01:00:00 0.9 C 4.95 g/m*3 0.9 C 0 km/h
1673 18-02-2014 02:00:00 0.675 C 4.92 g/m*3 0.68 C 0 km/h
1674 18-02-2014 03:00:00 0.51667 C 4.87 g/m*3 0.52 C 0 km/h
1675 18-02-2014 04:00:00 0.425 C 4.84 g/m*3 0.43 C 1.06667 km/h
Sensor: Nr:Datum:Temp:Abs-Feuchte:Windchill:Wind:
Aussen-T/F 1676 18-02-2014 05:00:00 0.31667 C 4.8 g/m*3 0.32 C 1.6 km/h
1677 18-02-2014 06:00:00 0.21667 C 4.77 g/m*3 0.22 C 1.2 km/h
1678 18-02-2014 07:00:00 0.1 C 4.73 g/m*3 0.1 C 0 km/h
1679 18-02-2014 08:00:00 0.13333 C 4.76 g/m*3 0.13 C 0.8 km/h
1680 18-02-2014 09:00:00 0.28333 C 4.82 g/m*3 0.28 C 0.13333 km/h
1681 18-02-2014 10:00:00 0.925 C 5.06 g/m*3 0.93 C 1.33333 km/h
1682 18-02-2014 11:00:00 2.46667 C 5.62 g/m*3 2.47 C 1.6 km/h
1683 18-02-2014 12:00:00 3.35 C 5.96 g/m*3 3.35 C 1.46667 km/h
1684 18-02-2014 13:00:00 4.79167 C 6.34 g/m*3 4.79 C 0.93333 km/h
1685 18-02-2014 14:00:00 6.64167 C 6.67 g/m*3 6.64 C 0.66667 km/h
1686 18-02-2014 15:00:00 7.79167 C 6.85 g/m*3 7.79 C 0.8 km/h
1687 18-02-2014 16:00:00 7.85833 C 7.11 g/m*3 7.86 C 0 km/h
1688 18-02-2014 17:00:00 6.95833 C 6.99 g/m*3 6.96 C 0 km/h
1689 18-02-2014 18:00:00 6.54167 C 6.82 g/m*3 6.54 C 1.2 km/h
1690 18-02-2014 19:00:00 6.075 C 6.65 g/m*3 6.08 C 0 km/h
1691 18-02-2014 20:00:00 5.76667 C 6.58 g/m*3 5.77 C 0.66667 km/h
1692 18-02-2014 21:00:00 5.65 C 6.58 g/m*3 5.65 C 0.13333 km/h
1693 18-02-2014 22:00:00 5.75833 C 6.6 g/m*3 5.76 C 0.26667 km/h
1694 18-02-2014 23:00:00 5.85 C 6.56 g/m*3 5.85 C 0.13333 km/h
1695 19-02-2014 00:00:00 5.50833 C 6.51 g/m*3 5.51 C 0 km/h
1696 19-02-2014 01:00:00 5.3 C 6.44 g/m*3 5.3 C 0.13333 km/h
1697 19-02-2014 02:00:00 5.075 C 6.35 g/m*3 5.08 C 0.4 km/h
1698 19-02-2014 03:00:00 5.06667 C 6.35 g/m*3 5.07 C 1.06667 km/h
1699 19-02-2014 04:00:00 5.45833 C 6.5 g/m*3 5.46 C 0.66667 km/h
1700 19-02-2014 05:00:00 6.9 C 6.78 g/m*3 6.9 C 3.75833 km/h
Sensor: Nr:Datum:Temp:Abs-Feuchte:Windchill:Wind:
Aussen-T/F 1701 19-02-2014 06:00:00 6.99167 C 6.91 g/m*3 5.96 C 6.175 km/h
1702 19-02-2014 07:00:00 7.175 C 6.91 g/m*3 6.17 C 6.16667 km/h
1703 19-02-2014 08:00:00 7 C 6.97 g/m*3 6.28 C 5.21667 km/h
1704 19-02-2014 09:00:00 7.83333 C 7.16 g/m*3 7.83 C 4.81667 km/h
1705 19-02-2014 10:00:00 8.63333 C 7.21 g/m*3 6.48 C 13.15833 km/h
1706 19-02-2014 11:00:00 9.175 C 7.15 g/m*3 6.91 C 14.9 km/h
1707 19-02-2014 12:00:00 10.31667 C 7.12 g/m*3 8.4 C 14.23333 km/h
1708 19-02-2014 13:00:00 11.53333 C 7.04 g/m*3 11.53 C 13.16667 km/h
1709 19-02-2014 14:00:00 11.525 C 6.98 g/m*3 11.53 C 13.425 km/h
1710 19-02-2014 15:00:00 10.83333 C 7.06 g/m*3 9.31 C 12.08333 km/h
1711 19-02-2014 16:00:00 9.59167 C 7.44 g/m*3 9.15 C 5.48333 km/h
1712 19-02-2014 17:00:00 9.25833 C 7.29 g/m*3 8.4 C 6.85 km/h
1713 19-02-2014 18:00:00 8.85833 C 7.24 g/m*3 8.15 C 6.025 km/h
1714 19-02-2014 19:00:00 8.19167 C 7.09 g/m*3 8.19 C 4.14167 km/h
1715 19-02-2014 20:00:00 7.76667 C 7.08 g/m*3 7.77 C 3.73333 km/h
1716 19-02-2014 21:00:00 6.825 C 6.83 g/m*3 6.83 C 3.73333 km/h
1717 19-02-2014 22:00:00 6.2 C 6.72 g/m*3 6.2 C 3.6 km/h
1718 19-02-2014 23:00:00 6.78333 C 6.83 g/m*3 6.78 C 3.6 km/h
1719 20-02-2014 00:00:00 6.96667 C 6.81 g/m*3 6.19 C 5.35 km/h
1720 20-02-2014 01:00:00 6.55 C 6.73 g/m*3 5.81 C 5.08333 km/h
1721 20-02-2014 02:00:00 6.48333 C 6.8 g/m*3 6.48 C 4.01667 km/h
1722 20-02-2014 03:00:00 6.38333 C 6.77 g/m*3 6.38 C 3.61667 km/h
1723 20-02-2014 04:00:00 6.425 C 6.71 g/m*3 6.43 C 3.61667 km/h
1724 20-02-2014 05:00:00 5.86667 C 6.67 g/m*3 5.87 C 1.06667 km/h
1725 20-02-2014 06:00:00 5.96667 C 6.74 g/m*3 5.97 C 0.4 km/h
Sensor: Nr:Datum:Temp:Abs-Feuchte:Windchill:Wind:
Aussen-T/F 1726 20-02-2014 07:00:00 6.09167 C 6.79 g/m*3 6.09 C 1.33333 km/h
1727 20-02-2014 08:00:00 6.75 C 6.94 g/m*3 6.75 C 1.73333 km/h
1728 20-02-2014 09:00:00 7.98333 C 7.05 g/m*3 7.98 C 3.60833 km/h
1729 20-02-2014 10:00:00 8.88333 C 7.14 g/m*3 8.88 C 4.275 km/h
1730 20-02-2014 11:00:00 9.73333 C 7.07 g/m*3 8.68 C 8.05 km/h
1731 20-02-2014 12:00:00 10.76667 C 6.9 g/m*3 9.4 C 10.9 km/h
1732 20-02-2014 13:00:00 11.35 C 6.88 g/m*3 11.35 C 10.89167 km/h
1733 20-02-2014 14:00:00 11.225 C 7.08 g/m*3 11.23 C 8.74167 km/h
1734 20-02-2014 15:00:00 11.15 C 7.35 g/m*3 11.15 C 6.30833 km/h
1735 20-02-2014 16:00:00 11.25833 C 7.42 g/m*3 11.26 C 3.075 km/h
1736 20-02-2014 17:00:00 10.875 C 7.51 g/m*3 10.88 C 2.8 km/h
1737 20-02-2014 18:00:00 9.95 C 7.47 g/m*3 9.95 C 1.73333 km/h
1738 20-02-2014 19:00:00 9.75 C 7.35 g/m*3 9.75 C 2.66667 km/h
1739 20-02-2014 20:00:00 9.475 C 7.4 g/m*3 9.48 C 2.53333 km/h
1740 20-02-2014 21:00:00 9.6 C 7.53 g/m*3 9.6 C 2.53333 km/h
1741 20-02-2014 22:00:00 9.65 C 7.67 g/m*3 9.65 C 1.46667 km/h
1742 20-02-2014 23:00:00 9.41667 C 7.81 g/m*3 9.42 C 2.93333 km/h
1743 21-02-2014 00:00:00 9.38333 C 7.94 g/m*3 9.38 C 4.15 km/h
1744 21-02-2014 01:00:00 9.65 C 8.08 g/m*3 9.65 C 2.26667 km/h
1745 21-02-2014 02:00:00 9.73333 C 8.15 g/m*3 9.73 C 4.425 km/h
1746 21-02-2014 03:00:00 9.45 C 8.05 g/m*3 9.02 C 5.35833 km/h
1747 21-02-2014 04:00:00 9.525 C 7.89 g/m*3 8.52 C 7.65833 km/h
1748 21-02-2014 05:00:00 9.38333 C 7.52 g/m*3 7.98 C 9.53333 km/h
1749 21-02-2014 06:00:00 8.21667 C 7.41 g/m*3 8.22 C 2.94167 km/h
1750 21-02-2014 07:00:00 7.95833 C 7.24 g/m*3 7.41 C 5.075 km/h
Sensor: Nr:Datum:Temp:Abs-Feuchte:Windchill:Wind:
Aussen-T/F 1751 21-02-2014 08:00:00 8.25833 C 7.09 g/m*3 6.86 C 8.46667 km/h
1752 21-02-2014 09:00:00 8.9 C 7 g/m*3 6.57 C 14.9 km/h
1753 21-02-2014 10:00:00 9.28333 C 6.98 g/m*3 7.2 C 13.7 km/h
1754 21-02-2014 11:00:00 8.90833 C 6.95 g/m*3 6.55 C 15.175 km/h
1755 21-02-2014 12:00:00 7.91667 C 7.06 g/m*3 5.41 C 14.5 km/h
1756 21-02-2014 13:00:00 8.575 C 6.68 g/m*3 5.71 C 18.775 km/h
1757 21-02-2014 14:00:00 9.03333 C 6.69 g/m*3 6.65 C 15.56667 km/h
1758 21-02-2014 15:00:00 9.21667 C 6.35 g/m*3 6.56 C 18.36667 km/h
1759 21-02-2014 16:00:00 7.69167 C 6.31 g/m*3 5.16 C 14.36667 km/h
1760 21-02-2014 17:00:00 7.125 C 6.2 g/m*3 5.1 C 10.5 km/h
1761 21-02-2014 18:00:00 5.64167 C 6.05 g/m*3 5.64 C 4.4 km/h
1762 21-02-2014 19:00:00 5.1 C 5.95 g/m*3 5.1 C 4.80833 km/h
1763 21-02-2014 20:00:00 4.11667 C 5.82 g/m*3 4.12 C 3.2 km/h
1764 21-02-2014 21:00:00 3.55 C 5.69 g/m*3 3.55 C 2.93333 km/h
1765 21-02-2014 22:00:00 3.225 C 5.63 g/m*3 3.23 C 1.46667 km/h
1766 21-02-2014 23:00:00 3.53333 C 5.73 g/m*3 3.53 C 1.46667 km/h
1767 22-02-2014 00:00:00 2.86667 C 5.5 g/m*3 2.87 C 3.46667 km/h
1768 22-02-2014 01:00:00 2.35 C 5.37 g/m*3 2.35 C 2.4 km/h
1769 22-02-2014 02:00:00 1.96667 C 5.27 g/m*3 1.97 C 1.73333 km/h
1770 22-02-2014 03:00:00 1.675 C 5.16 g/m*3 1.68 C 1.6 km/h
1771 22-02-2014 04:00:00 1.33333 C 5.04 g/m*3 1.33 C 1.46667 km/h
1772 22-02-2014 05:00:00 1.19167 C 5.02 g/m*3 1.19 C 1.2 km/h
1773 22-02-2014 06:00:00 2.05 C 5.34 g/m*3 2.05 C 2.95 km/h
1774 22-02-2014 07:00:00 3.3 C 5.64 g/m*3 3.3 C 2.66667 km/h
1775 22-02-2014 08:00:00 3.93333 C 5.77 g/m*3 3.93 C 0.8 km/h
Sensor: Nr:Datum:Temp:Abs-Feuchte:Windchill:Wind:
Aussen-T/F 1776 22-02-2014 09:00:00 5.05 C 5.96 g/m*3 5.05 C 4.41667 km/h
1777 22-02-2014 10:00:00 6.24167 C 6.11 g/m*3 4.83 C 7.10833 km/h
1778 22-02-2014 11:00:00 7.00833 C 6.16 g/m*3 5.01 C 10.21667 km/h
1779 22-02-2014 12:00:00 7.48333 C 6.35 g/m*3 5.39 C 11.29167 km/h
1780 22-02-2014 13:00:00 7.28333 C 6.36 g/m*3 5.01 C 12.1 km/h
1781 22-02-2014 14:00:00 7.56667 C 6.41 g/m*3 5.35 C 12.08333 km/h
1782 22-02-2014 15:00:00 7.76667 C 6.43 g/m*3 5.85 C 10.625 km/h
1783 22-02-2014 16:00:00 7.775 C 6.45 g/m*3 6.41 C 7.925 km/h
1784 22-02-2014 17:00:00 7.36667 C 6.41 g/m*3 6.21 C 6.84167 km/h
1785 22-02-2014 18:00:00 6.74167 C 6.32 g/m*3 6.74 C 4.00833 km/h
1786 22-02-2014 19:00:00 6.34167 C 6.19 g/m*3 4.94 C 7.11667 km/h
1787 22-02-2014 20:00:00 6.10833 C 6.21 g/m*3 6.11 C 2.53333 km/h
1788 22-02-2014 21:00:00 5.75 C 6.24 g/m*3 5.75 C 1.2 km/h
1789 22-02-2014 22:00:00 5.53333 C 6.21 g/m*3 5.53 C 0.26667 km/h
1790 22-02-2014 23:00:00 5.28333 C 6.13 g/m*3 5.28 C 0.53333 km/h
1791 23-02-2014 00:00:00 5.55 C 6.07 g/m*3 5.55 C 1.86667 km/h
1792 23-02-2014 01:00:00 4.35 C 5.71 g/m*3 4.35 C 2.66667 km/h
1793 23-02-2014 02:00:00 3.04167 C 5.43 g/m*3 3.04 C 3.33333 km/h
1794 23-02-2014 03:00:00 2.88333 C 5.35 g/m*3 2.88 C 4 km/h
1795 23-02-2014 04:00:00 2.19167 C 5.17 g/m*3 2.19 C 0.66667 km/h
1796 23-02-2014 05:00:00 2.06667 C 5.2 g/m*3 2.07 C 0.8 km/h
1797 23-02-2014 06:00:00 2.91667 C 5.47 g/m*3 2.92 C 2.53333 km/h
1798 23-02-2014 07:00:00 3.725 C 5.63 g/m*3 3.73 C 2.8 km/h
1799 23-02-2014 08:00:00 4.51 C 5.96 g/m*3 4.51 C 0.64 km/h
1800 23-02-2014 09:00:00 6 C 6.1 g/m*3 6 C 1.06667 km/h
Sensor: Nr:Datum:Temp:Abs-Feuchte:Windchill:Wind:
Aussen-T/F 1801 23-02-2014 12:00:00 10.125 C 7.13 g/m*3 9.32 C 7.225 km/h
1802 23-02-2014 13:00:00 10.40833 C 6.48 g/m*3 9.04 C 10.49167 km/h
1803 23-02-2014 14:00:00 10.35 C 6.72 g/m*3 8.71 C 12.225 km/h
1804 23-02-2014 15:00:00 9.74167 C 6.78 g/m*3 8.66 C 8.20833 km/h
1805 23-02-2014 16:00:00 9.98333 C 6.61 g/m*3 9.98 C 4.81667 km/h
1806 23-02-2014 17:00:00 9.40833 C 6.71 g/m*3 9.41 C 0.66667 km/h
1807 23-02-2014 18:00:00 8.38333 C 6.5 g/m*3 8.38 C 2 km/h
1808 23-02-2014 19:00:00 7.50833 C 6.55 g/m*3 7.51 C 3.86667 km/h
1809 23-02-2014 20:00:00 6.3 C 6.25 g/m*3 6.3 C 4.53333 km/h
1810 23-02-2014 21:00:00 5.4 C 6.04 g/m*3 5.4 C 4.66667 km/h
1811 23-02-2014 22:00:00 4.675 C 5.87 g/m*3 4.68 C 4.26667 km/h
1812 23-02-2014 23:00:00 3.8 C 5.68 g/m*3 3.8 C 3.2 km/h
1813 24-02-2014 00:00:00 3.28333 C 5.58 g/m*3 3.28 C 3.33333 km/h
1814 24-02-2014 01:00:00 2.84167 C 5.47 g/m*3 2.84 C 4.13333 km/h
1815 24-02-2014 02:00:00 2.05833 C 5.21 g/m*3 2.06 C 0.26667 km/h
1816 24-02-2014 03:00:00 1.29167 C 4.99 g/m*3 1.29 C 0 km/h
1817 24-02-2014 04:00:00 0.61667 C 4.8 g/m*3 0.62 C 0 km/h
1818 24-02-2014 05:00:00 0.15833 C 4.69 g/m*3 0.16 C 0 km/h
1819 24-02-2014 06:00:00 -0.29167 C 4.56 g/m*3 -0.29 C 0.8 km/h
1820 24-02-2014 07:00:00 -0.55833 C 4.47 g/m*3 -0.56 C 0.4 km/h
1821 24-02-2014 08:00:00 0.64167 C 4.91 g/m*3 0.64 C 4.00833 km/h
1822 24-02-2014 09:00:00 4.45833 C 5.66 g/m*3 2.55 C 7.79167 km/h
1823 24-02-2014 10:00:00 6.31667 C 5.82 g/m*3 4.87 C 7.25833 km/h
1824 24-02-2014 11:00:00 7.65 C 6.17 g/m*3 6.84 C 5.75833 km/h
1825 24-02-2014 12:00:00 10.65833 C 6.33 g/m*3 10.22 C 6.03333 km/h
Sensor: Nr:Datum:Temp:Abs-Feuchte:Windchill:Wind:
Aussen-T/F 1826 24-02-2014 13:00:00 12.98333 C 6.4 g/m*3 12.98 C 7.78333 km/h
1827 24-02-2014 14:00:00 13.59167 C 6.36 g/m*3 13.59 C 7.38333 km/h
1828 24-02-2014 15:00:00 13.99167 C 6.4 g/m*3 13.99 C 9.11667 km/h
1829 24-02-2014 16:00:00 13.34167 C 6.38 g/m*3 13.34 C 5.46667 km/h
1830 24-02-2014 17:00:00 11.69167 C 6.39 g/m*3 11.69 C 4.81667 km/h
1831 24-02-2014 18:00:00 7.9 C 6.39 g/m*3 7.9 C 4.66667 km/h
1832 24-02-2014 19:00:00 6.80833 C 6.27 g/m*3 5.76 C 6.15 km/h
1833 24-02-2014 20:00:00 6.30833 C 6.21 g/m*3 5.49 C 5.2 km/h
1834 24-02-2014 21:00:00 5.775 C 6.06 g/m*3 5.78 C 3.46667 km/h
1835 24-02-2014 22:00:00 4.89167 C 5.93 g/m*3 4.89 C 0.53333 km/h
1836 24-02-2014 23:00:00 4.325 C 5.75 g/m*3 4.33 C 0.53333 km/h
1837 25-02-2014 00:00:00 3.79167 C 5.64 g/m*3 3.79 C 1.06667 km/h
1838 25-02-2014 01:00:00 3.24167 C 5.52 g/m*3 3.24 C 0 km/h
1839 25-02-2014 02:00:00 2.725 C 5.4 g/m*3 2.73 C 0.4 km/h
1840 25-02-2014 03:00:00 2.175 C 5.26 g/m*3 2.17 C 0.13333 km/h
1841 25-02-2014 04:00:00 1.75 C 5.16 g/m*3 1.75 C 0 km/h
1842 25-02-2014 05:00:00 1.55833 C 5.12 g/m*3 1.56 C 0 km/h
1843 25-02-2014 06:00:00 1.26667 C 5.03 g/m*3 1.27 C 0 km/h
1844 25-02-2014 07:00:00 1.5 C 5.16 g/m*3 1.5 C 0.4 km/h
1845 25-02-2014 08:00:00 1.96667 C 5.32 g/m*3 1.97 C 0.4 km/h
1846 25-02-2014 09:00:00 3.30833 C 5.85 g/m*3 3.31 C 0.93333 km/h
1847 25-02-2014 10:00:00 7.58333 C 6.79 g/m*3 7.58 C 3.34167 km/h
1848 25-02-2014 11:00:00 10.35 C 6.55 g/m*3 9.83 C 6.15833 km/h
1849 25-02-2014 12:00:00 11.55833 C 6.71 g/m*3 11.56 C 7.49167 km/h
1850 25-02-2014 13:00:00 10.98333 C 6.78 g/m*3 10.98 C 4 km/h
Sensor: Nr:Datum:Temp:Abs-Feuchte:Windchill:Wind:
Aussen-T/F 1851 25-02-2014 14:00:00 11.525 C 6.85 g/m*3 11.53 C 5.75833 km/h
1852 25-02-2014 15:00:00 11.575 C 6.89 g/m*3 11.58 C 7.38333 km/h
1853 25-02-2014 16:00:00 12 C 6.96 g/m*3 12 C 7.79167 km/h
1854 25-02-2014 17:00:00 11.475 C 6.94 g/m*3 11.48 C 6.025 km/h
1855 25-02-2014 18:00:00 9.71667 C 6.78 g/m*3 9.72 C 3.46667 km/h
1856 25-02-2014 19:00:00 8.45833 C 6.69 g/m*3 8.46 C 2.93333 km/h
1857 25-02-2014 20:00:00 8.25833 C 6.81 g/m*3 8.26 C 1.73333 km/h
1858 25-02-2014 21:00:00 7.98333 C 6.76 g/m*3 7.98 C 3.06667 km/h
1859 25-02-2014 22:00:00 7.86667 C 6.77 g/m*3 7.87 C 3.2 km/h
1860 25-02-2014 23:00:00 7.86667 C 6.91 g/m*3 7.87 C 3.46667 km/h
1861 26-02-2014 00:00:00 7.35 C 6.79 g/m*3 7.35 C 4 km/h
1862 26-02-2014 01:00:00 7.55833 C 6.91 g/m*3 7.56 C 2.66667 km/h
1863 26-02-2014 02:00:00 8.13333 C 7.07 g/m*3 8.13 C 2.4 km/h
1864 26-02-2014 03:00:00 7.71667 C 6.97 g/m*3 7.72 C 3.6 km/h
1865 26-02-2014 04:00:00 7.9 C 7.03 g/m*3 7.9 C 2.8 km/h
1866 26-02-2014 05:00:00 8.50833 C 7.03 g/m*3 7.9 C 5.5 km/h
1867 26-02-2014 06:00:00 8.125 C 7.02 g/m*3 8.13 C 4.14167 km/h
1868 26-02-2014 07:00:00 6.85 C 6.72 g/m*3 6.85 C 1.33333 km/h
1869 26-02-2014 08:00:00 7.39167 C 6.95 g/m*3 7.39 C 2.54167 km/h
1870 26-02-2014 09:00:00 7.41667 C 6.93 g/m*3 7.42 C 1.2 km/h
1871 26-02-2014 10:00:00 8.55 C 7.2 g/m*3 7.35 C 7.8 km/h
1872 26-02-2014 11:00:00 9.675 C 7.06 g/m*3 8.4 C 9.14167 km/h
1873 26-02-2014 12:00:00 10.25833 C 7.12 g/m*3 9.38 C 7.64167 km/h
1874 26-02-2014 13:00:00 10.83333 C 7.03 g/m*3 10.2 C 6.975 km/h
1875 26-02-2014 14:00:00 11.28333 C 7.01 g/m*3 11.28 C 7.79167 km/h
Sensor: Nr:Datum:Temp:Abs-Feuchte:Windchill:Wind:
Aussen-T/F 1876 26-02-2014 15:00:00 10.71667 C 6.92 g/m*3 10.29 C 6.03333 km/h
1877 26-02-2014 16:00:00 10.40833 C 7 g/m*3 10.41 C 2.8 km/h
1878 26-02-2014 17:00:00 9.825 C 7.17 g/m*3 9.82 C 0.66667 km/h
1879 26-02-2014 18:00:00 8.73333 C 7.1 g/m*3 8.73 C 3.33333 km/h
1880 26-02-2014 19:00:00 8.09167 C 6.98 g/m*3 8.09 C 3.33333 km/h
1881 26-02-2014 20:00:00 7.50909 C 6.89 g/m*3 7.51 C 1.30909 km/h
1882 26-02-2014 22:00:00 7.49167 C 6.84 g/m*3 7.49 C 1.86667 km/h
1883 26-02-2014 23:00:00 6.96667 C 6.7 g/m*3 6.97 C 2 km/h
1884 27-02-2014 00:00:00 5.95 C 6.46 g/m*3 5.95 C 2.4 km/h
1885 27-02-2014 01:00:00 5 C 6.19 g/m*3 5 C 1.33333 km/h
1886 27-02-2014 02:00:00 4.03333 C 5.92 g/m*3 4.03 C 0.8 km/h
1887 27-02-2014 03:00:00 3.25833 C 5.68 g/m*3 3.26 C 0.13333 km/h
1888 27-02-2014 04:00:00 2.65833 C 5.51 g/m*3 2.66 C 1.2 km/h
1889 27-02-2014 05:00:00 1.91667 C 5.25 g/m*3 1.92 C 0.93333 km/h
1890 27-02-2014 06:00:00 1.575 C 5.18 g/m*3 1.58 C 0.93333 km/h
1891 27-02-2014 07:00:00 1.31667 C 5.09 g/m*3 1.32 C 1.20833 km/h
1892 27-02-2014 08:00:00 1.1 C 5.02 g/m*3 1.1 C 0 km/h
1893 27-02-2014 09:00:00 1.6 C 5.25 g/m*3 1.6 C 1.06667 km/h
1894 27-02-2014 11:00:00 7.525 C 6.85 g/m*3 6.23 C 7.45 km/h
1895 27-02-2014 12:00:00 9.85 C 6.43 g/m*3 8.29 C 11.00833 km/h
1896 27-02-2014 13:00:00 9.825 C 6.24 g/m*3 8.15 C 11.69167 km/h
1897 27-02-2014 14:00:00 10.04167 C 6.26 g/m*3 8.94 C 8.6 km/h
1898 27-02-2014 15:00:00 10.6 C 6.09 g/m*3 9.43 C 9.54167 km/h
1899 27-02-2014 16:00:00 9.875 C 5.69 g/m*3 9.18 C 6.575 km/h
1900 27-02-2014 17:00:00 9.3 C 5.84 g/m*3 9.3 C 4.54167 km/h
Sensor: Nr:Datum:Temp:Abs-Feuchte:Windchill:Wind:
Aussen-T/F 1901 27-02-2014 18:00:00 7.76667 C 6.24 g/m*3 6.31 C 8.325 km/h
1902 27-02-2014 19:00:00 6.35833 C 6.35 g/m*3 6.36 C 4.29167 km/h
1903 27-02-2014 20:00:00 5.475 C 6.4 g/m*3 5.48 C 1.46667 km/h
1904 27-02-2014 21:00:00 4.96667 C 6.41 g/m*3 4.97 C 0.8 km/h
1905 27-02-2014 22:00:00 4.625 C 6.28 g/m*3 4.63 C 1.6 km/h
1906 27-02-2014 23:00:00 4.40833 C 6.08 g/m*3 4.41 C 3.86667 km/h
1907 28-02-2014 00:00:00 4.48333 C 6.1 g/m*3 2.99 C 6.43333 km/h
1908 28-02-2014 01:00:00 4.775 C 6.2 g/m*3 3.5 C 5.88333 km/h
1909 28-02-2014 02:00:00 4.85 C 6.09 g/m*3 2.71 C 9.00833 km/h
1910 28-02-2014 03:00:00 4.1 C 5.88 g/m*3 2.42 C 6.825 km/h
1911 28-02-2014 04:00:00 3.91667 C 5.93 g/m*3 3.92 C 3.73333 km/h
1912 28-02-2014 05:00:00 3.58333 C 5.88 g/m*3 3.58 C 1.6 km/h
1913 28-02-2014 06:00:00 3.86667 C 6.03 g/m*3 3.87 C 1.06667 km/h
1914 28-02-2014 07:00:00 4.125 C 6.14 g/m*3 4.13 C 0.66667 km/h
1915 28-02-2014 08:00:00 4.69167 C 6.28 g/m*3 4.69 C 1.2 km/h
1916 28-02-2014 09:00:00 5.68333 C 6.42 g/m*3 5.68 C 3.06667 km/h
1917 28-02-2014 10:00:00 6.75833 C 6.61 g/m*3 6.76 C 3.73333 km/h
1918 28-02-2014 11:00:00 7.78333 C 6.73 g/m*3 6.55 C 7.38333 km/h
1919 28-02-2014 12:00:00 7.99167 C 6.78 g/m*3 7.15 C 6.03333 km/h
1920 28-02-2014 13:00:00 8.48333 C 6.86 g/m*3 7.43 C 7.10833 km/h
1921 28-02-2014 14:00:00 9.43333 C 6.71 g/m*3 8.51 C 7.23333 km/h
1922 28-02-2014 15:00:00 9.225 C 6.55 g/m*3 9.23 C 4 km/h
1923 28-02-2014 16:00:00 9.3 C 6.53 g/m*3 8.86 C 5.33333 km/h
1924 28-02-2014 17:00:00 9.07273 C 6.65 g/m*3 9.07 C 4.66364 km/h
1925 28-02-2014 18:00:00 8.1 C 6.74 g/m*3 8.1 C 1.86667 km/h
Sensor: Nr:Datum:Temp:Abs-Feuchte:Windchill:Wind:
Aussen-T/F 1926 28-02-2014 19:00:00 7.00833 C 6.61 g/m*3 7.01 C 3.33333 km/h
1927 28-02-2014 20:00:00 6.63333 C 6.66 g/m*3 6.63 C 3.6 km/h
1928 28-02-2014 21:00:00 6.89167 C 6.84 g/m*3 6.89 C 0.8 km/h
1929 28-02-2014 22:00:00 6.3 C 6.88 g/m*3 6.3 C 3.08333 km/h
1930 28-02-2014 23:00:00 5.65 C 6.7 g/m*3 5.65 C 1.86667 km/h
1931 01-03-2014 00:00:00 5.29167 C 6.63 g/m*3 5.29 C 1.06667 km/h
1932 01-03-2014 01:00:00 4.825 C 6.45 g/m*3 4.83 C 0.4 km/h
1933 01-03-2014 02:00:00 4.85 C 6.49 g/m*3 4.85 C 0.66667 km/h
1934 01-03-2014 03:00:00 4.19167 C 6.18 g/m*3 4.19 C 1.6 km/h
1935 01-03-2014 04:00:00 3.675 C 5.97 g/m*3 3.68 C 2.66667 km/h
1936 01-03-2014 05:00:00 2.64167 C 5.57 g/m*3 2.64 C 0.66667 km/h
1937 01-03-2014 06:00:00 2.56667 C 5.58 g/m*3 2.57 C 0 km/h
1938 01-03-2014 07:00:00 2.75 C 5.67 g/m*3 2.75 C 0.26667 km/h
1939 01-03-2014 08:00:00 3.13333 C 5.82 g/m*3 3.13 C 0.13333 km/h
1940 01-03-2014 09:00:00 3.8 C 6.09 g/m*3 3.8 C 0.26667 km/h
1941 01-03-2014 10:00:00 5.41667 C 6.63 g/m*3 5.42 C 1.86667 km/h
1942 01-03-2014 11:00:00 7.21667 C 6.65 g/m*3 7.22 C 2.93333 km/h
1943 01-03-2014 12:00:00 8.25 C 6.78 g/m*3 7.58 C 5.60833 km/h
1944 01-03-2014 13:00:00 8.975 C 6.65 g/m*3 8.01 C 7.10833 km/h
1945 01-03-2014 14:00:00 9.29167 C 6.27 g/m*3 8.76 C 5.625 km/h
1946 01-03-2014 15:00:00 9.40833 C 6.17 g/m*3 9.02 C 5.21667 km/h
1947 01-03-2014 16:00:00 9.05833 C 6.1 g/m*3 9.06 C 4.01667 km/h
1948 01-03-2014 17:00:00 7.95833 C 6.28 g/m*3 6.69 C 7.66667 km/h
1949 01-03-2014 18:00:00 6.96667 C 6.46 g/m*3 6.97 C 0.66667 km/h
1950 01-03-2014 19:00:00 6.15833 C 6.47 g/m*3 6.16 C 0.53333 km/h
Sensor: Nr:Datum:Temp:Abs-Feuchte:Windchill:Wind:
Aussen-T/F 1951 01-03-2014 20:00:00 5.2 C 6.16 g/m*3 5.2 C 1.86667 km/h
1952 01-03-2014 21:00:00 3.575 C 5.66 g/m*3 3.58 C 1.46667 km/h
1953 01-03-2014 22:00:00 2.85833 C 5.51 g/m*3 2.86 C 1.86667 km/h
1954 01-03-2014 23:00:00 2.59167 C 5.42 g/m*3 2.59 C 0.8 km/h
1955 02-03-2014 00:00:00 1.825 C 5.19 g/m*3 1.83 C 0.26667 km/h
1956 02-03-2014 01:00:00 1.50833 C 5.12 g/m*3 1.51 C 0.93333 km/h
1957 02-03-2014 02:00:00 1.425 C 5.11 g/m*3 1.43 C 0.53333 km/h
1958 02-03-2014 03:00:00 1.95833 C 5.32 g/m*3 1.96 C 0.26667 km/h
1959 02-03-2014 04:00:00 1.69167 C 5.2 g/m*3 1.69 C 0.93333 km/h
1960 02-03-2014 05:00:00 0.86667 C 4.93 g/m*3 0.87 C 0.13333 km/h
1961 02-03-2014 06:00:00 0.375 C 4.77 g/m*3 0.38 C 0 km/h
1962 02-03-2014 07:00:00 0.28333 C 4.76 g/m*3 0.28 C 0.93333 km/h
1963 02-03-2014 08:00:00 0.55833 C 4.88 g/m*3 0.56 C 1.6 km/h
1964 02-03-2014 09:00:00 1.23333 C 5.12 g/m*3 1.23 C 0.66667 km/h
1965 02-03-2014 10:00:00 2.81667 C 5.75 g/m*3 2.82 C 2.13333 km/h
1966 02-03-2014 11:00:00 4.40833 C 6.16 g/m*3 3.22 C 5.5 km/h
1967 02-03-2014 12:00:00 6.25833 C 5.79 g/m*3 3.63 C 12.9 km/h
1968 02-03-2014 13:00:00 7.16667 C 5.68 g/m*3 5.36 C 9.41667 km/h
1969 02-03-2014 14:00:00 8.03333 C 5.69 g/m*3 6.56 C 8.61667 km/h
1970 02-03-2014 15:00:00 8.98333 C 5.78 g/m*3 8.15 C 6.56667 km/h
1971 02-03-2014 16:00:00 9.10833 C 5.7 g/m*3 8.63 C 5.35 km/h
1972 02-03-2014 17:00:00 7.90833 C 5.86 g/m*3 7.91 C 2.93333 km/h
1973 02-03-2014 18:00:00 4.98333 C 5.68 g/m*3 4.98 C 4.93333 km/h
1974 02-03-2014 19:00:00 3.58333 C 5.31 g/m*3 2.34 C 5.33333 km/h
1975 02-03-2014 20:00:00 2.98333 C 5.2 g/m*3 2.98 C 4.4 km/h
Sensor: Nr:Datum:Temp:Abs-Feuchte:Windchill:Wind:
Aussen-T/F 1976 02-03-2014 21:00:00 2.65833 C 5.16 g/m*3 2.66 C 4.13333 km/h
1977 02-03-2014 22:00:00 2.525 C 5.22 g/m*3 2.53 C 3.33333 km/h
1978 02-03-2014 23:00:00 2.075 C 5.14 g/m*3 2.08 C 3.33333 km/h
1979 03-03-2014 00:00:00 2.16667 C 5.17 g/m*3 2.17 C 3.33333 km/h
1980 03-03-2014 01:00:00 2.80833 C 5.33 g/m*3 2.81 C 3.6 km/h
1981 03-03-2014 02:00:00 3.41667 C 5.43 g/m*3 3.42 C 4.28333 km/h
1982 03-03-2014 03:00:00 3.14167 C 5.37 g/m*3 3.14 C 3.06667 km/h
1983 03-03-2014 04:00:00 3.325 C 5.53 g/m*3 2.1 C 5.20833 km/h
1984 03-03-2014 05:00:00 4.04167 C 5.64 g/m*3 2.47 C 6.44167 km/h
1985 03-03-2014 06:00:00 3.95833 C 5.61 g/m*3 2.81 C 5.21667 km/h
1986 03-03-2014 07:00:00 4.325 C 5.61 g/m*3 2.06 C 9.125 km/h
1987 03-03-2014 08:00:00 4.80833 C 5.69 g/m*3 4.81 C 3.875 km/h
1988 03-03-2014 09:00:00 5.39167 C 5.86 g/m*3 5.39 C 3.6 km/h
1989 03-03-2014 10:00:00 5.99167 C 6.19 g/m*3 5.03 C 5.48333 km/h
1990 03-03-2014 11:00:00 7.06667 C 6.47 g/m*3 6.17 C 5.75833 km/h
1991 03-03-2014 12:00:00 7.35833 C 6.54 g/m*3 7.36 C 4.54167 km/h
1992 03-03-2014 13:00:00 7.79167 C 6.93 g/m*3 7.79 C 4.80833 km/h
1993 03-03-2014 14:00:00 7.98333 C 7.21 g/m*3 7.98 C 3.2 km/h
1994 03-03-2014 15:00:00 8.86667 C 7.03 g/m*3 8.39 C 5.23333 km/h
1995 03-03-2014 16:00:00 9.29167 C 6.64 g/m*3 9.29 C 3.34167 km/h
1996 03-03-2014 17:00:00 8.425 C 6.88 g/m*3 8.43 C 2.4 km/h
1997 03-03-2014 18:00:00 6.74167 C 6.55 g/m*3 6.74 C 3.86667 km/h
1998 03-03-2014 19:00:00 5.175 C 6.09 g/m*3 5.18 C 4.26667 km/h
1999 03-03-2014 20:00:00 4.325 C 5.85 g/m*3 4.33 C 4.66667 km/h
2000 03-03-2014 21:00:00 4.09167 C 5.73 g/m*3 4.09 C 4 km/h
Sensor: Nr:Datum:Temp:Abs-Feuchte:Windchill:Wind:
Aussen-T/F 2001 03-03-2014 22:00:00 3.575 C 5.6 g/m*3 3.58 C 4.66667 km/h
2002 03-03-2014 23:00:00 2.59167 C 5.34 g/m*3 2.59 C 1.33333 km/h
2003 04-03-2014 00:00:00 1.725 C 5.11 g/m*3 1.73 C 0.26667 km/h
2004 04-03-2014 01:00:00 0.95833 C 4.87 g/m*3 0.96 C 0 km/h
2005 04-03-2014 02:00:00 0.41667 C 4.74 g/m*3 0.42 C 0 km/h
2006 04-03-2014 03:00:00 0.21667 C 4.71 g/m*3 0.22 C 0.4 km/h
2007 04-03-2014 04:00:00 -0.175 C 4.6 g/m*3 -0.18 C 0.26667 km/h
2008 04-03-2014 05:00:00 -0.66667 C 4.44 g/m*3 -0.67 C 0 km/h
2009 04-03-2014 06:00:00 -0.80833 C 4.41 g/m*3 -0.81 C 0.53333 km/h
2010 04-03-2014 07:00:00 -0.88333 C 4.41 g/m*3 -0.88 C 0.26667 km/h
2011 04-03-2014 08:00:00 -0.85833 C 4.43 g/m*3 -0.86 C 0.93333 km/h
2012 04-03-2014 09:00:00 -0.61667 C 4.5 g/m*3 -0.62 C 1.6 km/h
2013 04-03-2014 10:00:00 0.375 C 4.83 g/m*3 0.38 C 0.13333 km/h
2014 04-03-2014 11:00:00 1.85833 C 5.38 g/m*3 1.86 C 0.8 km/h
2015 04-03-2014 12:00:00 5.63333 C 6.64 g/m*3 5.63 C 1.46667 km/h
2016 04-03-2014 13:00:00 9.93333 C 6.99 g/m*3 9.93 C 1.86667 km/h
2017 04-03-2014 14:00:00 11.40833 C 6.43 g/m*3 11.41 C 4.55 km/h
2018 04-03-2014 15:00:00 12.14167 C 5.9 g/m*3 12.14 C 4.81667 km/h
2019 04-03-2014 16:00:00 9.85833 C 6.67 g/m*3 9.86 C 2.8 km/h
2020 04-03-2014 17:00:00 8.95833 C 6.8 g/m*3 8.96 C 2.93333 km/h
2021 04-03-2014 18:00:00 7.35 C 6.39 g/m*3 7.35 C 4.4 km/h
2022 04-03-2014 19:00:00 7.55833 C 6.43 g/m*3 7.56 C 4.66667 km/h
2023 04-03-2014 20:00:00 8.05 C 6.5 g/m*3 8.05 C 3.73333 km/h
2024 04-03-2014 21:00:00 7.09167 C 6.41 g/m*3 7.09 C 2.66667 km/h
2025 04-03-2014 22:00:00 6.20833 C 6.29 g/m*3 6.21 C 2.8 km/h
Sensor: Nr:Datum:Temp:Abs-Feuchte:Windchill:Wind:
Aussen-T/F 2026 04-03-2014 23:00:00 5.475 C 6.08 g/m*3 5.48 C 0.66667 km/h
2027 05-03-2014 00:00:00 4.74167 C 5.88 g/m*3 4.74 C 1.33333 km/h
2028 05-03-2014 01:00:00 3.51667 C 5.57 g/m*3 3.52 C 0.26667 km/h
2029 05-03-2014 02:00:00 2.51667 C 5.35 g/m*3 2.52 C 0.53333 km/h
2030 05-03-2014 03:00:00 2.01667 C 5.22 g/m*3 2.02 C 1.33333 km/h
2031 05-03-2014 04:00:00 1.76667 C 5.16 g/m*3 1.77 C 1.86667 km/h
2032 05-03-2014 05:00:00 1.9 C 5.18 g/m*3 1.9 C 2.26667 km/h
2033 05-03-2014 06:00:00 1.5 C 5.08 g/m*3 1.5 C 0.66667 km/h
2034 05-03-2014 07:00:00 2.19167 C 5.28 g/m*3 2.19 C 4.41667 km/h
2035 05-03-2014 08:00:00 2.23333 C 5.22 g/m*3 2.23 C 4.275 km/h
2036 05-03-2014 09:00:00 2.85833 C 5.48 g/m*3 2.86 C 1.33333 km/h
2037 05-03-2014 10:00:00 4.92 C 6.12 g/m*3 4.92 C 3.06 km/h
2038 05-03-2014 11:00:00 8.6 C 6.79 g/m*3 7.75 C 6.4 km/h
2039 05-03-2014 12:00:00 9.30833 C 6.71 g/m*3 8.4 C 7.10833 km/h
2040 05-03-2014 13:00:00 10.66667 C 7.06 g/m*3 9.48 C 9.7 km/h
2041 05-03-2014 14:00:00 10.1 C 6.34 g/m*3 8.8 C 9.7 km/h
2042 05-03-2014 15:00:00 10.51667 C 6.38 g/m*3 8.83 C 12.76667 km/h
2043 05-03-2014 16:00:00 9.89167 C 6.35 g/m*3 9.2 C 6.575 km/h
2044 05-03-2014 17:00:00 9.56667 C 6.2 g/m*3 8.7 C 7.10833 km/h
2045 05-03-2014 18:00:00 7.45 C 6.06 g/m*3 7.45 C 3.46667 km/h
2046 05-03-2014 19:00:00 5.46667 C 6.02 g/m*3 4.54 C 5.2 km/h
2047 05-03-2014 20:00:00 4.875 C 5.96 g/m*3 4.88 C 4.8 km/h
2048 05-03-2014 21:00:00 3.75833 C 5.71 g/m*3 3.76 C 1.33333 km/h
2049 05-03-2014 22:00:00 2.925 C 5.51 g/m*3 2.93 C 0.4 km/h
2050 05-03-2014 23:00:00 2.175 C 5.3 g/m*3 2.17 C 0 km/h
Sensor: Nr:Datum:Temp:Abs-Feuchte:Windchill:Wind:
Aussen-T/F 2051 06-03-2014 00:00:00 1.71667 C 5.17 g/m*3 1.72 C 0.26667 km/h
2052 06-03-2014 01:00:00 1.25833 C 5.02 g/m*3 1.26 C 0 km/h
2053 06-03-2014 02:00:00 0.675 C 4.85 g/m*3 0.68 C 0.13333 km/h
2054 06-03-2014 03:00:00 0.16667 C 4.71 g/m*3 0.17 C 0.13333 km/h
2055 06-03-2014 04:00:00 -0.2 C 4.59 g/m*3 -0.2 C 0 km/h
2056 06-03-2014 05:00:00 -0.61667 C 4.46 g/m*3 -0.62 C 0 km/h
2057 06-03-2014 06:00:00 -0.24167 C 4.62 g/m*3 -0.24 C 1.6 km/h
2058 06-03-2014 07:00:00 -0.10833 C 4.66 g/m*3 -0.11 C 1.06667 km/h
2059 06-03-2014 08:00:00 0.29167 C 4.8 g/m*3 0.29 C 1.06667 km/h
2060 06-03-2014 09:00:00 0.75833 C 4.95 g/m*3 0.76 C 1.46667 km/h
2061 06-03-2014 10:00:00 1.475 C 5.22 g/m*3 1.48 C 1.86667 km/h
2062 06-03-2014 11:00:00 2.41667 C 5.6 g/m*3 2.42 C 2.4 km/h
2063 06-03-2014 12:00:00 4.25 C 6.34 g/m*3 4.25 C 2.26667 km/h
2064 06-03-2014 13:00:00 7.75 C 7.28 g/m*3 7.75 C 4.26667 km/h
2065 06-03-2014 14:00:00 10.26667 C 7.44 g/m*3 10.27 C 4.54167 km/h
2066 06-03-2014 15:00:00 12.58333 C 7.3 g/m*3 12.58 C 6.41667 km/h
2067 06-03-2014 16:00:00 12.3 C 6.9 g/m*3 12.3 C 5.75833 km/h
2068 06-03-2014 17:00:00 10.175 C 7.01 g/m*3 10.18 C 4.80833 km/h
2069 06-03-2014 18:00:00 7.48333 C 6.47 g/m*3 6.5 C 6.26667 km/h
2070 06-03-2014 19:00:00 6.275 C 6.26 g/m*3 5.32 C 5.6 km/h
2071 06-03-2014 20:00:00 5.275 C 5.97 g/m*3 5.28 C 4.66667 km/h
2072 06-03-2014 21:00:00 4.05833 C 5.65 g/m*3 4.06 C 1.46667 km/h
2073 06-03-2014 22:00:00 3.10833 C 5.35 g/m*3 3.11 C 0.13333 km/h
2074 06-03-2014 23:00:00 1.99167 C 5.07 g/m*3 1.99 C 0 km/h
2075 07-03-2014 00:00:00 1.275 C 4.93 g/m*3 1.27 C 0 km/h
Sensor: Nr:Datum:Temp:Abs-Feuchte:Windchill:Wind:
Aussen-T/F 2076 07-03-2014 01:00:00 0.80833 C 4.82 g/m*3 0.81 C 0 km/h
2077 07-03-2014 02:00:00 0.20833 C 4.67 g/m*3 0.21 C 0 km/h
2078 07-03-2014 03:00:00 -0.15 C 4.56 g/m*3 -0.15 C 0 km/h
2079 07-03-2014 04:00:00 -0.36 C 4.52 g/m*3 -0.36 C 0 km/h
2080 07-03-2014 07:00:00 -0.9 C 4.42 g/m*3 -0.9 C 1.6 km/h
2081 07-03-2014 08:00:00 -0.78333 C 4.45 g/m*3 -0.78 C 0.53333 km/h
2082 07-03-2014 09:00:00 -0.15 C 4.65 g/m*3 -0.15 C 0.8 km/h
2083 07-03-2014 10:00:00 0.99 C 5.04 g/m*3 0.99 C 0.8 km/h
2084 07-03-2014 13:00:00 12.16667 C 7.53 g/m*3 12.17 C 3.73333 km/h
2085 07-03-2014 14:00:00 13.80833 C 7.17 g/m*3 13.81 C 4.275 km/h
2086 07-03-2014 15:00:00 15.15833 C 5.97 g/m*3 15.16 C 7.79167 km/h
2087 07-03-2014 16:00:00 13.975 C 6.67 g/m*3 13.98 C 5.225 km/h
2088 07-03-2014 17:00:00 11.40833 C 7.15 g/m*3 11.41 C 4.26667 km/h
2089 07-03-2014 18:00:00 10.03333 C 6.91 g/m*3 10.03 C 4.93333 km/h
2090 07-03-2014 19:00:00 9.18889 C 6.76 g/m*3 9.19 C 3.91111 km/h
2091 07-03-2014 20:00:00 8.30833 C 6.56 g/m*3 8.31 C 4.14167 km/h
2092 07-03-2014 21:00:00 7.76667 C 6.51 g/m*3 6.86 C 6.15833 km/h
2093 07-03-2014 22:00:00 7.33333 C 6.46 g/m*3 7.33 C 3.6 km/h
2094 07-03-2014 23:00:00 5.49167 C 6.08 g/m*3 5.49 C 0.53333 km/h
2095 08-03-2014 00:00:00 4.8 C 5.9 g/m*3 4.8 C 0.53333 km/h
2096 08-03-2014 01:00:00 4.40833 C 5.86 g/m*3 4.41 C 1.6 km/h
2097 08-03-2014 02:00:00 4.35 C 5.85 g/m*3 4.35 C 0.53333 km/h
2098 08-03-2014 03:00:00 3.625 C 5.62 g/m*3 3.63 C 0 km/h
2099 08-03-2014 04:00:00 3.00833 C 5.49 g/m*3 3.01 C 0.66667 km/h
2100 08-03-2014 05:00:00 2.3 C 5.31 g/m*3 2.3 C 0.26667 km/h
Sensor: Nr:Datum:Temp:Abs-Feuchte:Windchill:Wind:
Aussen-T/F 2101 08-03-2014 06:00:00 1.93333 C 5.21 g/m*3 1.93 C 0.26667 km/h
2102 08-03-2014 07:00:00 1.70833 C 5.18 g/m*3 1.71 C 0.4 km/h
2103 08-03-2014 08:00:00 1.89167 C 5.25 g/m*3 1.89 C 0.66667 km/h
2104 08-03-2014 09:00:00 3.09167 C 5.72 g/m*3 3.09 C 0 km/h
2105 08-03-2014 10:00:00 5.45455 C 6.56 g/m*3 5.45 C 0.43636 km/h
2106 08-03-2014 11:00:00 9.66667 C 7.68 g/m*3 9.67 C 2.13333 km/h
2107 08-03-2014 12:00:00 13.74167 C 7.68 g/m*3 13.74 C 7.65833 km/h
2108 08-03-2014 13:00:00 15.45833 C 7.1 g/m*3 15.46 C 8.31667 km/h
2109 08-03-2014 14:00:00 15.8 C 6.92 g/m*3 15.8 C 8.46667 km/h
2110 08-03-2014 15:00:00 16.18333 C 6.88 g/m*3 16.18 C 8.46667 km/h
2111 08-03-2014 16:00:00 15.40833 C 6.68 g/m*3 15.41 C 6.84167 km/h
2112 08-03-2014 17:00:00 14.025 C 7.02 g/m*3 14.03 C 6.56667 km/h
2113 08-03-2014 18:00:00 10.25833 C 6.89 g/m*3 9.76 C 6.01667 km/h
2114 08-03-2014 19:00:00 8.58333 C 6.67 g/m*3 7.88 C 5.875 km/h
2115 08-03-2014 20:00:00 7.18333 C 6.5 g/m*3 7.18 C 3.46667 km/h
2116 08-03-2014 21:00:00 6.10833 C 6.24 g/m*3 6.11 C 0.66667 km/h
2117 08-03-2014 22:00:00 5.11667 C 5.96 g/m*3 5.12 C 0 km/h
2118 08-03-2014 23:00:00 4.10833 C 5.67 g/m*3 4.11 C 0.13333 km/h
2119 09-03-2014 00:00:00 3.24167 C 5.46 g/m*3 3.24 C 0 km/h
2120 09-03-2014 01:00:00 2.65 C 5.34 g/m*3 2.65 C 0 km/h
2121 09-03-2014 02:00:00 2.03333 C 5.2 g/m*3 2.03 C 0 km/h
2122 09-03-2014 03:00:00 1.66667 C 5.11 g/m*3 1.67 C 0 km/h
2123 09-03-2014 04:00:00 1.23333 C 4.99 g/m*3 1.23 C 0 km/h
2124 09-03-2014 05:00:00 0.90833 C 4.9 g/m*3 0.91 C 0 km/h
2125 09-03-2014 06:00:00 0.29167 C 4.7 g/m*3 0.29 C 0 km/h
Sensor: Nr:Datum:Temp:Abs-Feuchte:Windchill:Wind:
Aussen-T/F 2126 09-03-2014 07:00:00 0.1 C 4.68 g/m*3 0.1 C 0 km/h
2127 09-03-2014 08:00:00 0.175 C 4.71 g/m*3 0.18 C 0.13333 km/h
2128 09-03-2014 09:00:00 0.95833 C 5.01 g/m*3 0.96 C 0.13333 km/h
2129 09-03-2014 10:00:00 3.52222 C 5.93 g/m*3 3.52 C 0.71111 km/h
2130 09-03-2014 11:00:00 7.2 C 6.95 g/m*3 7.2 C 1.2 km/h
2131 09-03-2014 12:00:00 11.70833 C 7.68 g/m*3 11.71 C 3.2 km/h
2132 09-03-2014 13:00:00 16.89167 C 6.15 g/m*3 16.89 C 4.95833 km/h
2133 09-03-2014 14:00:00 19.19167 C 4.97 g/m*3 19.19 C 6.01667 km/h
2134 09-03-2014 15:00:00 20.125 C 4.8 g/m*3 20.13 C 5.61667 km/h
2135 09-03-2014 16:00:00 17.30833 C 6.28 g/m*3 17.31 C 4.14167 km/h
2136 09-03-2014 17:00:00 15.1 C 6.78 g/m*3 15.1 C 5.2 km/h
2137 09-03-2014 18:00:00 12.59167 C 6.53 g/m*3 12.59 C 6.26667 km/h
2138 09-03-2014 19:00:00 10.4 C 6.51 g/m*3 10.15 C 5.2 km/h
2139 09-03-2014 20:00:00 8.61667 C 6.47 g/m*3 8.62 C 2.66667 km/h
2140 09-03-2014 21:00:00 7.29167 C 6.09 g/m*3 7.29 C 0.26667 km/h
2141 09-03-2014 22:00:00 5.89167 C 5.77 g/m*3 5.89 C 0 km/h
2142 09-03-2014 23:00:00 4.50833 C 5.54 g/m*3 4.51 C 0 km/h
2143 10-03-2014 00:00:00 3.70833 C 5.36 g/m*3 3.71 C 0 km/h
2144 10-03-2014 01:00:00 2.775 C 5.21 g/m*3 2.78 C 0 km/h
2145 10-03-2014 02:00:00 2.18333 C 5.09 g/m*3 2.18 C 0 km/h
2146 10-03-2014 03:00:00 1.775 C 5.02 g/m*3 1.78 C 0 km/h
2147 10-03-2014 04:00:00 1.34167 C 4.91 g/m*3 1.34 C 0.13333 km/h
2148 10-03-2014 05:00:00 1.18333 C 4.89 g/m*3 1.18 C 0.13333 km/h
2149 10-03-2014 06:00:00 0.91667 C 4.84 g/m*3 0.92 C 0.26667 km/h
2150 10-03-2014 07:00:00 0.61667 C 4.77 g/m*3 0.62 C 0.13333 km/h
Sensor: Nr:Datum:Temp:Abs-Feuchte:Windchill:Wind:
Aussen-T/F 2151 10-03-2014 08:00:00 0.975 C 4.92 g/m*3 0.98 C 0.13333 km/h
2152 10-03-2014 09:00:00 2.44167 C 5.42 g/m*3 2.44 C 0.53333 km/h
2153 10-03-2014 10:00:00 5.16667 C 6.2 g/m*3 5.17 C 0.13333 km/h
2154 10-03-2014 11:00:00 8.03333 C 7 g/m*3 8.03 C 0.8 km/h
2155 10-03-2014 12:00:00 13.2 C 7.55 g/m*3 13.2 C 1.86667 km/h
2156 10-03-2014 13:00:00 16.99167 C 6.86 g/m*3 16.99 C 4.675 km/h
2157 10-03-2014 14:00:00 17.15 C 6.58 g/m*3 17.15 C 2.8 km/h
2158 10-03-2014 15:00:00 17.825 C 6.54 g/m*3 17.83 C 2.93333 km/h
2159 10-03-2014 16:00:00 16.18333 C 6.61 g/m*3 16.18 C 3.33333 km/h
2160 10-03-2014 17:00:00 14.55833 C 6.69 g/m*3 14.56 C 5.46667 km/h
2161 10-03-2014 18:00:00 12.39167 C 6.22 g/m*3 12.39 C 6.40833 km/h
2162 10-03-2014 19:00:00 10.46667 C 6.2 g/m*3 10.47 C 4.675 km/h
2163 10-03-2014 20:00:00 8.8 C 6.01 g/m*3 8.8 C 1.06667 km/h
2164 10-03-2014 21:00:00 7.61667 C 5.76 g/m*3 7.62 C 0.8 km/h
2165 10-03-2014 22:00:00 6.65 C 5.67 g/m*3 6.65 C 0.66667 km/h
2166 10-03-2014 23:00:00 5.71667 C 5.55 g/m*3 5.72 C 0.53333 km/h
2167 11-03-2014 00:00:00 4.74167 C 5.56 g/m*3 4.74 C 0 km/h
2168 11-03-2014 01:00:00 3.96667 C 5.42 g/m*3 3.97 C 0.26667 km/h
2169 11-03-2014 02:00:00 3.65 C 5.43 g/m*3 3.65 C 0.4 km/h
2170 11-03-2014 03:00:00 3.40833 C 5.43 g/m*3 3.41 C 0.53333 km/h
2171 11-03-2014 04:00:00 3.125 C 5.37 g/m*3 3.13 C 0 km/h
2172 11-03-2014 05:00:00 3.06667 C 5.35 g/m*3 3.07 C 0.8 km/h
2173 11-03-2014 06:00:00 2.34167 C 5.2 g/m*3 2.34 C 0 km/h
2174 11-03-2014 07:00:00 2.30833 C 5.25 g/m*3 2.31 C 0 km/h
2175 11-03-2014 08:00:00 2.8 C 5.47 g/m*3 2.8 C 0.66667 km/h
Sensor: Nr:Datum:Temp:Abs-Feuchte:Windchill:Wind:
Aussen-T/F 2176 11-03-2014 09:00:00 5.525 C 6.44 g/m*3 5.53 C 2.66667 km/h
2177 11-03-2014 10:00:00 7.4 C 6.94 g/m*3 7.4 C 2.26667 km/h
2178 11-03-2014 11:00:00 9.625 C 7.32 g/m*3 9.63 C 2.53333 km/h
2179 11-03-2014 12:00:00 12.76667 C 7.92 g/m*3 12.77 C 3.46667 km/h
2180 11-03-2014 13:00:00 15.29167 C 7.97 g/m*3 15.29 C 3.33333 km/h
2181 11-03-2014 14:00:00 16.30833 C 7.78 g/m*3 16.31 C 4.54167 km/h
2182 11-03-2014 15:00:00 17.9 C 7.67 g/m*3 17.9 C 5.35 km/h
2183 11-03-2014 16:00:00 17.075 C 8.02 g/m*3 17.08 C 7.1 km/h
2184 11-03-2014 17:00:00 14.95 C 8.26 g/m*3 14.95 C 3.73333 km/h
2185 11-03-2014 18:00:00 12.04167 C 8.03 g/m*3 12.04 C 5.06667 km/h
2186 11-03-2014 19:00:00 10.5 C 7.77 g/m*3 10.26 C 5.2 km/h
2187 11-03-2014 20:00:00 9.00833 C 7.07 g/m*3 9.01 C 2.66667 km/h
2188 11-03-2014 21:00:00 8.39167 C 6.71 g/m*3 8.39 C 2.26667 km/h
2189 11-03-2014 22:00:00 7.75 C 6.5 g/m*3 7.75 C 2.66667 km/h
2190 11-03-2014 23:00:00 8.1 C 6.27 g/m*3 8.1 C 4.675 km/h
2191 12-03-2014 00:00:00 7.35833 C 6.18 g/m*3 6.74 C 5.06667 km/h
2192 12-03-2014 01:00:00 6.80833 C 6.22 g/m*3 5.97 C 5.46667 km/h
2193 12-03-2014 02:00:00 6.33333 C 6.26 g/m*3 5.34 C 5.75 km/h
2194 12-03-2014 03:00:00 5.60833 C 6.16 g/m*3 4.75 C 5.06667 km/h
2195 12-03-2014 04:00:00 4.55833 C 5.92 g/m*3 4.56 C 1.46667 km/h
2196 12-03-2014 05:00:00 3.775 C 5.74 g/m*3 3.78 C 0.4 km/h
2197 12-03-2014 06:00:00 2.975 C 5.54 g/m*3 2.98 C 0.13333 km/h
2198 12-03-2014 07:00:00 2.66667 C 5.5 g/m*3 2.67 C 0 km/h
2199 12-03-2014 08:00:00 3 C 5.66 g/m*3 3 C 0.26667 km/h
2200 12-03-2014 09:00:00 4.30833 C 6.25 g/m*3 4.31 C 0 km/h
Sensor: Nr:Datum:Temp:Abs-Feuchte:Windchill:Wind:
Aussen-T/F 2201 12-03-2014 10:00:00 7.23333 C 7.3 g/m*3 7.23 C 0.13333 km/h
2202 12-03-2014 11:00:00 10.46667 C 7.41 g/m*3 10.47 C 2.93333 km/h
2203 12-03-2014 12:00:00 14.89167 C 7.54 g/m*3 14.89 C 4.275 km/h
2204 12-03-2014 13:00:00 17.175 C 6.9 g/m*3 17.18 C 5.34167 km/h
2205 12-03-2014 14:00:00 17.64167 C 6.54 g/m*3 17.64 C 6.15 km/h
2206 12-03-2014 15:00:00 18.89167 C 6.09 g/m*3 18.89 C 6.55833 km/h
2207 12-03-2014 16:00:00 17.50833 C 6.22 g/m*3 17.51 C 3.60833 km/h
2208 12-03-2014 17:00:00 15.11667 C 6.8 g/m*3 15.12 C 4.8 km/h
2209 12-03-2014 18:00:00 12.40833 C 6.46 g/m*3 12.41 C 7.10833 km/h
2210 12-03-2014 19:00:00 10.525 C 6.47 g/m*3 10.04 C 6.15833 km/h
2211 12-03-2014 20:00:00 9.08333 C 6.35 g/m*3 9.08 C 3.73333 km/h
2212 12-03-2014 21:00:00 7.7 C 6.2 g/m*3 7.7 C 0.93333 km/h
2213 12-03-2014 22:00:00 6.33333 C 5.94 g/m*3 6.33 C 0.13333 km/h
2214 12-03-2014 23:00:00 5.50833 C 5.82 g/m*3 5.51 C 0 km/h
2215 13-03-2014 00:00:00 4.44167 C 5.64 g/m*3 4.44 C 0 km/h
2216 13-03-2014 01:00:00 4.11667 C 5.6 g/m*3 4.12 C 0.53333 km/h
2217 13-03-2014 02:00:00 3.56667 C 5.46 g/m*3 3.57 C 0.26667 km/h
2218 13-03-2014 03:00:00 3 C 5.33 g/m*3 3 C 0.4 km/h
2219 13-03-2014 04:00:00 2.325 C 5.16 g/m*3 2.33 C 0.13333 km/h
2220 13-03-2014 05:00:00 1.74167 C 5.04 g/m*3 1.74 C 0.13333 km/h
2221 13-03-2014 06:00:00 1.28333 C 4.93 g/m*3 1.28 C 0.4 km/h
2222 13-03-2014 07:00:00 1.05 C 4.9 g/m*3 1.05 C 0.4 km/h
2223 13-03-2014 08:00:00 1.64167 C 5.13 g/m*3 1.64 C 0 km/h
2224 13-03-2014 09:00:00 3.00833 C 5.56 g/m*3 3.01 C 0 km/h
2225 13-03-2014 10:00:00 5.69167 C 6.33 g/m*3 5.69 C 0 km/h
Sensor: Nr:Datum:Temp:Abs-Feuchte:Windchill:Wind:
Aussen-T/F 2226 13-03-2014 11:00:00 8.54167 C 7.02 g/m*3 8.54 C 0.53333 km/h
2227 13-03-2014 12:00:00 13.825 C 7.66 g/m*3 13.83 C 3.46667 km/h
2228 13-03-2014 13:00:00 17.35 C 7.46 g/m*3 17.35 C 2.66667 km/h
2229 13-03-2014 14:00:00 17.55 C 6.62 g/m*3 17.55 C 2.4 km/h
2230 13-03-2014 15:00:00 18.63333 C 6.35 g/m*3 18.63 C 5.50833 km/h
2231 13-03-2014 16:00:00 18.66667 C 5.55 g/m*3 18.67 C 6.83333 km/h
2232 13-03-2014 17:00:00 17.79167 C 5.3 g/m*3 17.79 C 7.39167 km/h
2233 13-03-2014 18:00:00 12.93333 C 6.15 g/m*3 12.93 C 5.225 km/h
2234 13-03-2014 19:00:00 10.64167 C 5.9 g/m*3 10.24 C 5.88333 km/h
2235 13-03-2014 20:00:00 8.79167 C 5.93 g/m*3 8.79 C 1.73333 km/h
2236 13-03-2014 21:00:00 7.44167 C 5.79 g/m*3 7.44 C 0.53333 km/h
2237 13-03-2014 22:00:00 6.16667 C 5.67 g/m*3 6.17 C 0 km/h
2238 13-03-2014 23:00:00 5.64167 C 5.58 g/m*3 5.64 C 0.26667 km/h
2239 14-03-2014 00:00:00 5.01667 C 5.49 g/m*3 5.02 C 0.66667 km/h
2240 14-03-2014 01:00:00 4.25833 C 5.39 g/m*3 4.26 C 0.4 km/h
2241 14-03-2014 02:00:00 3.49167 C 5.23 g/m*3 3.49 C 0.53333 km/h
2242 14-03-2014 03:00:00 2.64167 C 5.12 g/m*3 2.64 C 0.93333 km/h
2243 14-03-2014 04:00:00 2.00833 C 4.99 g/m*3 2.01 C 0 km/h
2244 14-03-2014 05:00:00 1.65833 C 4.96 g/m*3 1.66 C 0.93333 km/h
2245 14-03-2014 06:00:00 1.25833 C 4.85 g/m*3 1.26 C 1.06667 km/h
2246 14-03-2014 07:00:00 1.05833 C 4.84 g/m*3 1.06 C 0.4 km/h
2247 14-03-2014 08:00:00 1.475 C 5.03 g/m*3 1.48 C 0.26667 km/h
2248 14-03-2014 09:00:00 3.04167 C 5.54 g/m*3 3.04 C 0 km/h
2249 14-03-2014 10:00:00 6.05 C 6.26 g/m*3 6.05 C 0 km/h
2250 14-03-2014 11:00:00 9.03333 C 6.86 g/m*3 9.03 C 2 km/h
Sensor: Nr:Datum:Temp:Abs-Feuchte:Windchill:Wind:
Aussen-T/F 2251 14-03-2014 12:00:00 13.40833 C 7.69 g/m*3 13.41 C 2.8 km/h
2252 14-03-2014 13:00:00 15.81667 C 7.42 g/m*3 15.82 C 3.6 km/h
2253 14-03-2014 14:00:00 16.28333 C 6.78 g/m*3 16.28 C 4.26667 km/h
2254 14-03-2014 15:00:00 17.44167 C 6.61 g/m*3 17.44 C 3.2 km/h
2255 14-03-2014 16:00:00 17.06667 C 6.44 g/m*3 17.07 C 4 km/h
2256 14-03-2014 17:00:00 14.5 C 7.55 g/m*3 14.5 C 2.26667 km/h
2257 14-03-2014 18:00:00 12.15833 C 7.32 g/m*3 12.16 C 5.2 km/h
2258 14-03-2014 19:00:00 10.28333 C 7.12 g/m*3 10.28 C 4.13333 km/h
2259 14-03-2014 20:00:00 9.50833 C 7.16 g/m*3 9.51 C 3.60833 km/h
2260 14-03-2014 21:00:00 8.33333 C 6.93 g/m*3 8.33 C 1.86667 km/h
2261 14-03-2014 22:00:00 7 C 6.65 g/m*3 7 C 1.46667 km/h
2262 14-03-2014 23:00:00 7.275 C 6.56 g/m*3 7.28 C 3.73333 km/h
2263 15-03-2014 00:00:00 6.80833 C 6.38 g/m*3 5.92 C 5.61667 km/h
2264 15-03-2014 01:00:00 7.175 C 6.39 g/m*3 6.06 C 6.56667 km/h
2265 15-03-2014 02:00:00 7.23333 C 6.34 g/m*3 6.2 C 6.3 km/h
2266 15-03-2014 03:00:00 7.175 C 6.22 g/m*3 6.22 C 6.01667 km/h
2267 15-03-2014 04:00:00 7.675 C 6.28 g/m*3 7.04 C 5.21667 km/h
2268 15-03-2014 05:00:00 8.48333 C 6.57 g/m*3 7.88 C 5.5 km/h
2269 15-03-2014 06:00:00 9.2 C 7.03 g/m*3 8.33 C 6.84167 km/h
2270 15-03-2014 07:00:00 9.58333 C 7.16 g/m*3 7.99 C 10.875 km/h
2271 15-03-2014 08:00:00 9.21667 C 7.44 g/m*3 7.05 C 14.225 km/h
2272 15-03-2014 09:00:00 8.375 C 7.68 g/m*3 6.65 C 10.20833 km/h
2273 15-03-2014 10:00:00 8.525 C 7.65 g/m*3 6.53 C 11.95833 km/h
2274 15-03-2014 11:00:00 7.975 C 7.39 g/m*3 6.33 C 9.39167 km/h
2275 15-03-2014 12:00:00 8.51667 C 7.39 g/m*3 6.97 C 9.41667 km/h
Sensor: Nr:Datum:Temp:Abs-Feuchte:Windchill:Wind:
Aussen-T/F 2276 15-03-2014 13:00:00 9.88333 C 7.14 g/m*3 8.01 C 13.16667 km/h
2277 15-03-2014 14:00:00 10.36667 C 6.52 g/m*3 8.24 C 16.1 km/h
2278 15-03-2014 15:00:00 10.8 C 6.13 g/m*3 9.04 C 13.83333 km/h
2279 15-03-2014 16:00:00 10.65833 C 5.96 g/m*3 9.23 C 11.16667 km/h
2280 15-03-2014 17:00:00 10.46667 C 6.14 g/m*3 9.29 C 9.41667 km/h
2281 15-03-2014 18:00:00 10.1 C 6.4 g/m*3 9.51 C 6.28333 km/h
2282 15-03-2014 19:00:00 9.54167 C 6.79 g/m*3 8.97 C 5.89167 km/h
2283 15-03-2014 20:00:00 9.51667 C 6.87 g/m*3 8.37 C 8.33333 km/h
2284 15-03-2014 21:00:00 9.44167 C 6.92 g/m*3 7.77 C 11.15833 km/h
2285 15-03-2014 22:00:00 9.30833 C 6.97 g/m*3 7.91 C 9.43333 km/h
2286 15-03-2014 23:00:00 9.33333 C 6.98 g/m*3 8.02 C 9.00833 km/h
2287 16-03-2014 00:00:00 9.58333 C 7.02 g/m*3 7.7 C 12.76667 km/h
2288 16-03-2014 01:00:00 9.83333 C 7.11 g/m*3 7.82 C 14.1 km/h
2289 16-03-2014 02:00:00 9.70833 C 7.27 g/m*3 7.95 C 12.09167 km/h
2290 16-03-2014 03:00:00 9.875 C 7.36 g/m*3 8.23 C 11.55833 km/h
2291 16-03-2014 04:00:00 10.10833 C 7.51 g/m*3 8.77 C 9.95833 km/h
2292 16-03-2014 05:00:00 10.475 C 7.66 g/m*3 8.71 C 13.3 km/h
2293 16-03-2014 06:00:00 10.33333 C 7.72 g/m*3 8.78 C 11.56667 km/h
2294 16-03-2014 07:00:00 10.68333 C 7.85 g/m*3 9.22 C 11.43333 km/h
2295 16-03-2014 08:00:00 10.66667 C 7.84 g/m*3 9.15 C 11.83333 km/h
2296 16-03-2014 09:00:00 11 C 7.94 g/m*3 9.27 C 13.96667 km/h
2297 16-03-2014 10:00:00 11.38333 C 8.02 g/m*3 11.38 C 16.36667 km/h
2298 16-03-2014 11:00:00 12.95833 C 8.43 g/m*3 12.96 C 15.16667 km/h
2299 16-03-2014 12:00:00 14.74167 C 8.81 g/m*3 14.74 C 12.1 km/h
2300 16-03-2014 13:00:00 15.04167 C 8.92 g/m*3 15.04 C 9.925 km/h
Sensor: Nr:Datum:Temp:Abs-Feuchte:Windchill:Wind:
Aussen-T/F 2301 16-03-2014 14:00:00 15.125 C 8.8 g/m*3 15.13 C 13.56667 km/h
2302 16-03-2014 15:00:00 15.5 C 8.8 g/m*3 15.5 C 17.03333 km/h
2303 16-03-2014 16:00:00 14.69167 C 8.59 g/m*3 14.69 C 16.375 km/h
2304 16-03-2014 17:00:00 14.725 C 8.7 g/m*3 14.73 C 12.23333 km/h
2305 16-03-2014 18:00:00 13.125 C 8.37 g/m*3 13.13 C 4.4 km/h
2306 16-03-2014 19:00:00 10.25 C 7.92 g/m*3 10.25 C 3.86667 km/h
2307 16-03-2014 20:00:00 9.55 C 7.83 g/m*3 9.55 C 3.73333 km/h
2308 16-03-2014 21:00:00 9.40833 C 7.76 g/m*3 9.41 C 3.2 km/h
2309 16-03-2014 22:00:00 9.55833 C 7.72 g/m*3 9.56 C 4.68333 km/h
2310 16-03-2014 23:00:00 7.79167 C 7.24 g/m*3 7.79 C 1.73333 km/h
2311 17-03-2014 00:00:00 7.09167 C 7.09 g/m*3 7.09 C 0.93333 km/h
2312 17-03-2014 01:00:00 7.13333 C 7.13 g/m*3 6.43 C 5.21667 km/h
2313 17-03-2014 02:00:00 7.08333 C 7.13 g/m*3 5.63 C 7.8 km/h
2314 17-03-2014 03:00:00 7.475 C 7.28 g/m*3 6.02 C 8.075 km/h
2315 17-03-2014 04:00:00 7.90833 C 7.39 g/m*3 6.66 C 7.525 km/h
2316 17-03-2014 05:00:00 8.23333 C 7.47 g/m*3 6.8 C 8.61667 km/h
2317 17-03-2014 06:00:00 8.31667 C 7.51 g/m*3 6.9 C 8.59167 km/h
2318 17-03-2014 07:00:00 8.73333 C 7.63 g/m*3 7.45 C 8.34167 km/h
2319 17-03-2014 08:00:00 9.225 C 7.78 g/m*3 8 C 8.48333 km/h
2320 17-03-2014 09:00:00 10 C 7.98 g/m*3 8.99 C 8.06667 km/h
2321 17-03-2014 10:00:00 11.125 C 8.17 g/m*3 11.13 C 9.29167 km/h
2322 17-03-2014 11:00:00 11.9 C 8.26 g/m*3 11.9 C 11.56667 km/h
2323 17-03-2014 12:00:00 12.66667 C 8.37 g/m*3 12.67 C 8.75 km/h
2324 17-03-2014 13:00:00 13.05 C 8.53 g/m*3 13.05 C 7.25 km/h
2325 17-03-2014 14:00:00 13.84167 C 8.46 g/m*3 13.84 C 9.68333 km/h
Sensor: Nr:Datum:Temp:Abs-Feuchte:Windchill:Wind:
Aussen-T/F 2326 17-03-2014 15:00:00 13.725 C 8.18 g/m*3 13.73 C 11.7 km/h
2327 17-03-2014 16:00:00 13.13333 C 7.92 g/m*3 13.13 C 8.05833 km/h
2328 17-03-2014 17:00:00 12.875 C 7.83 g/m*3 12.88 C 6.28333 km/h
2329 17-03-2014 18:00:00 12.28333 C 7.77 g/m*3 12.28 C 5.49167 km/h
2330 17-03-2014 19:00:00 11.225 C 7.7 g/m*3 11.23 C 1.06667 km/h
2331 17-03-2014 20:00:00 10.34167 C 7.68 g/m*3 10.34 C 1.73333 km/h
2332 17-03-2014 21:00:00 9.85833 C 7.71 g/m*3 9.86 C 1.33333 km/h
2333 17-03-2014 22:00:00 9.75833 C 7.7 g/m*3 9.76 C 2.4 km/h
2334 17-03-2014 23:00:00 9.70833 C 7.66 g/m*3 9.71 C 2.26667 km/h
2335 18-03-2014 00:00:00 8.375 C 7.31 g/m*3 8.38 C 0.93333 km/h
2336 18-03-2014 01:00:00 8.3 C 7.44 g/m*3 8.3 C 0.93333 km/h
2337 18-03-2014 02:00:00 8.69167 C 7.51 g/m*3 8.69 C 1.2 km/h
2338 18-03-2014 03:00:00 8.54167 C 7.44 g/m*3 8.54 C 2.26667 km/h
2339 18-03-2014 04:00:00 7.73333 C 7.22 g/m*3 7.73 C 1.2 km/h
2340 18-03-2014 05:00:00 7.53333 C 7.18 g/m*3 7.53 C 1.73333 km/h
2341 18-03-2014 06:00:00 7.65833 C 7.28 g/m*3 7.66 C 3.46667 km/h
2342 18-03-2014 07:00:00 7.98333 C 7.47 g/m*3 7.18 C 5.9 km/h
2343 18-03-2014 08:00:00 8.51667 C 7.62 g/m*3 7.65 C 6.43333 km/h
2344 18-03-2014 09:00:00 8.58333 C 7.69 g/m*3 7.48 C 7.39167 km/h
2345 18-03-2014 10:00:00 8.70833 C 7.62 g/m*3 6.61 C 12.9 km/h
2346 18-03-2014 11:00:00 8.56667 C 7.75 g/m*3 7.47 C 7.375 km/h
2347 18-03-2014 12:00:00 9.04167 C 7.92 g/m*3 7.6 C 9.40833 km/h
2348 18-03-2014 13:00:00 9.45833 C 7.89 g/m*3 8.7 C 6.56667 km/h
2349 18-03-2014 14:00:00 10.425 C 8 g/m*3 9.44 C 8.31667 km/h
2350 18-03-2014 15:00:00 11.24167 C 8.05 g/m*3 11.24 C 10.63333 km/h
Sensor: Nr:Datum:Temp:Abs-Feuchte:Windchill:Wind:
Aussen-T/F 2351 18-03-2014 16:00:00 11.38333 C 7.84 g/m*3 11.38 C 12.1 km/h
2352 18-03-2014 17:00:00 11.44167 C 7.79 g/m*3 11.44 C 6.95833 km/h
2353 18-03-2014 18:00:00 11.38333 C 7.73 g/m*3 11.38 C 11.425 km/h
2354 18-03-2014 19:00:00 11.26667 C 7.41 g/m*3 11.27 C 11.56667 km/h
2355 18-03-2014 20:00:00 10.84167 C 7.05 g/m*3 8.76 C 16.76667 km/h
2356 18-03-2014 21:00:00 10.44167 C 6.88 g/m*3 8.15 C 17.83333 km/h
2357 18-03-2014 22:00:00 9.775 C 7.07 g/m*3 8.01 C 12.23333 km/h
2358 18-03-2014 23:00:00 9.86667 C 7.17 g/m*3 7.95 C 13.43333 km/h
2359 19-03-2014 00:00:00 9.80833 C 7.38 g/m*3 7.99 C 12.625 km/h
2360 19-03-2014 01:00:00 9.75833 C 7.56 g/m*3 7.97 C 12.35833 km/h
2361 19-03-2014 02:00:00 9.63333 C 7.68 g/m*3 8.09 C 10.6 km/h
2362 19-03-2014 03:00:00 9.925 C 7.56 g/m*3 8.15 C 12.5 km/h
2363 19-03-2014 04:00:00 9.9 C 7.52 g/m*3 8.52 C 9.94167 km/h
2364 19-03-2014 05:00:00 9.975 C 7.48 g/m*3 8.29 C 11.96667 km/h
2365 19-03-2014 06:00:00 9.84167 C 7.49 g/m*3 8.57 C 9.26667 km/h
2366 19-03-2014 07:00:00 9.925 C 7.48 g/m*3 9.14 C 6.975 km/h
2367 19-03-2014 08:00:00 10.26667 C 7.57 g/m*3 8.81 C 10.88333 km/h
2368 19-03-2014 09:00:00 10.875 C 7.64 g/m*3 9.68 C 9.95833 km/h
2369 19-03-2014 10:00:00 11.88333 C 7.71 g/m*3 11.88 C 15.16667 km/h
2370 19-03-2014 11:00:00 13.14167 C 7.43 g/m*3 13.14 C 15.03333 km/h
2371 19-03-2014 12:00:00 14.28333 C 7.51 g/m*3 14.28 C 16.76667 km/h
2372 19-03-2014 13:00:00 15.74167 C 7.71 g/m*3 15.74 C 16.76667 km/h
2373 19-03-2014 14:00:00 15.84167 C 7.75 g/m*3 15.84 C 18.23333 km/h
2374 19-03-2014 15:00:00 16.575 C 7.62 g/m*3 16.58 C 16.23333 km/h
2375 19-03-2014 16:00:00 16.54167 C 7.53 g/m*3 16.54 C 13.56667 km/h
Sensor: Nr:Datum:Temp:Abs-Feuchte:Windchill:Wind:
Aussen-T/F 2376 19-03-2014 17:00:00 15.88333 C 7.76 g/m*3 15.88 C 13.3 km/h
2377 19-03-2014 18:00:00 14.56667 C 7.85 g/m*3 14.57 C 9.53333 km/h
2378 19-03-2014 19:00:00 13.35833 C 7.69 g/m*3 13.36 C 8.86667 km/h
2379 19-03-2014 20:00:00 12.35833 C 7.54 g/m*3 12.36 C 8.74167 km/h
2380 19-03-2014 21:00:00 12.08333 C 7.45 g/m*3 12.08 C 9.96667 km/h
2381 19-03-2014 22:00:00 11.675 C 7.39 g/m*3 11.68 C 11.425 km/h
2382 19-03-2014 23:00:00 11.05833 C 7.36 g/m*3 11.06 C 8.59167 km/h
2383 20-03-2014 00:00:00 10.21667 C 7.26 g/m*3 9.42 C 7.25 km/h
2384 20-03-2014 01:00:00 9.23333 C 7.14 g/m*3 8.82 C 5.21667 km/h
2385 20-03-2014 02:00:00 8.69167 C 7.04 g/m*3 7.96 C 6.025 km/h
2386 20-03-2014 03:00:00 7.71667 C 6.81 g/m*3 7.72 C 2.4 km/h
2387 20-03-2014 04:00:00 6.36667 C 6.59 g/m*3 6.37 C 1.46667 km/h
2388 20-03-2014 05:00:00 5.48333 C 6.34 g/m*3 5.48 C 1.2 km/h
2389 20-03-2014 06:00:00 4.775 C 6.18 g/m*3 4.78 C 0.53333 km/h
2390 20-03-2014 07:00:00 4.56667 C 6.19 g/m*3 4.57 C 0 km/h
2391 20-03-2014 08:00:00 5.225 C 6.49 g/m*3 5.23 C 0.53333 km/h
2392 20-03-2014 09:00:00 6.96667 C 7.15 g/m*3 6.97 C 1.86667 km/h
2393 20-03-2014 10:00:00 10.275 C 7.74 g/m*3 10.28 C 3.33333 km/h
2394 20-03-2014 11:00:00 14.79167 C 7.69 g/m*3 14.79 C 5.20833 km/h
2395 20-03-2014 12:00:00 18.85833 C 6.57 g/m*3 18.86 C 10.20833 km/h
2396 20-03-2014 13:00:00 19.83333 C 6.47 g/m*3 19.83 C 7.78333 km/h
2397 20-03-2014 14:00:00 20.29167 C 6.72 g/m*3 20.29 C 9 km/h
2398 20-03-2014 15:00:00 20.98333 C 6.91 g/m*3 20.98 C 5.61667 km/h
2399 20-03-2014 16:00:00 21.96667 C 6.57 g/m*3 21.97 C 8.60833 km/h
2400 20-03-2014 17:00:00 21.78889 C 6.2 g/m*3 21.79 C 7.52222 km/h
Sensor: Nr:Datum:Temp:Abs-Feuchte:Windchill:Wind:
Aussen-T/F 2401 20-03-2014 18:00:00 17.44167 C 6.97 g/m*3 17.44 C 4.93333 km/h
2402 20-03-2014 19:00:00 14.35 C 7.18 g/m*3 14.35 C 5.86667 km/h
2403 20-03-2014 20:00:00 13.8 C 7.37 g/m*3 13.8 C 5.06667 km/h
2404 20-03-2014 21:00:00 13.53333 C 7.54 g/m*3 13.53 C 3.86667 km/h
2405 20-03-2014 22:00:00 12.79167 C 7.61 g/m*3 12.79 C 4.26667 km/h
2406 20-03-2014 23:00:00 12.21667 C 7.68 g/m*3 12.22 C 2.8 km/h
2407 21-03-2014 00:00:00 11.66667 C 7.72 g/m*3 11.67 C 2.93333 km/h
2408 21-03-2014 01:00:00 10.79167 C 7.64 g/m*3 10.79 C 1.2 km/h
2409 21-03-2014 02:00:00 9.78333 C 7.45 g/m*3 9.78 C 2.8 km/h
2410 21-03-2014 03:00:00 12.85 C 7.95 g/m*3 12.85 C 10.85833 km/h
2411 21-03-2014 04:00:00 15.675 C 8.06 g/m*3 15.68 C 15.7 km/h
2412 21-03-2014 05:00:00 15.5 C 8.02 g/m*3 15.5 C 17.43333 km/h
2413 21-03-2014 06:00:00 15.31667 C 7.82 g/m*3 15.32 C 21.73333 km/h
2414 21-03-2014 07:00:00 15.3 C 7.94 g/m*3 15.3 C 23.46667 km/h
2415 21-03-2014 08:00:00 15.45 C 7.78 g/m*3 15.45 C 22.78333 km/h
2416 21-03-2014 09:00:00 15.725 C 7.49 g/m*3 15.73 C 25.075 km/h
2417 21-03-2014 10:00:00 16.00833 C 7.27 g/m*3 16.01 C 20.78333 km/h
2418 21-03-2014 11:00:00 16.88333 C 7.05 g/m*3 16.88 C 21.44167 km/h
2419 21-03-2014 12:00:00 16.70833 C 7.71 g/m*3 16.71 C 21.43333 km/h
2420 21-03-2014 13:00:00 15.81667 C 7.87 g/m*3 15.82 C 19.975 km/h
2421 21-03-2014 14:00:00 14.88333 C 8.24 g/m*3 14.88 C 19.03333 km/h
2422 21-03-2014 15:00:00 14.375 C 8.34 g/m*3 14.38 C 17.43333 km/h
2423 21-03-2014 16:00:00 13.78333 C 7.28 g/m*3 13.78 C 16.10833 km/h
2424 21-03-2014 17:00:00 12.08333 C 7.34 g/m*3 12.08 C 9 km/h
2425 21-03-2014 18:00:00 11.125 C 7.05 g/m*3 11.13 C 6.15833 km/h
Sensor: Nr:Datum:Temp:Abs-Feuchte:Windchill:Wind:
Aussen-T/F 2426 21-03-2014 19:00:00 9.93333 C 6.88 g/m*3 9.93 C 0.66667 km/h
2427 21-03-2014 20:00:00 9.19167 C 6.79 g/m*3 9.19 C 1.86667 km/h
2428 21-03-2014 21:00:00 8.91667 C 6.76 g/m*3 8.92 C 2.4 km/h
2429 21-03-2014 22:00:00 8.78333 C 6.95 g/m*3 8.78 C 0.93333 km/h
2430 21-03-2014 23:00:00 8.75 C 7.26 g/m*3 8.75 C 0.53333 km/h
2431 22-03-2014 00:00:00 8.575 C 7.34 g/m*3 8.57 C 1.33333 km/h
2432 22-03-2014 01:00:00 7.83333 C 7.29 g/m*3 7.83 C 1.2 km/h
2433 22-03-2014 02:00:00 7.76667 C 7.26 g/m*3 7.77 C 2.4 km/h
2434 22-03-2014 03:00:00 7.45 C 7.26 g/m*3 7.45 C 1.86667 km/h
2435 22-03-2014 04:00:00 8.21667 C 7.57 g/m*3 8.22 C 0.13333 km/h
2436 22-03-2014 05:00:00 8.3 C 7.55 g/m*3 8.3 C 0 km/h
2437 22-03-2014 06:00:00 8.45 C 7.78 g/m*3 8.45 C 1.6 km/h
2438 22-03-2014 07:00:00 8.475 C 7.86 g/m*3 8.48 C 1.6 km/h
2439 22-03-2014 08:00:00 9.74167 C 7.6 g/m*3 9.03 C 6.575 km/h
2440 22-03-2014 09:00:00 10.5 C 7.06 g/m*3 8.8 C 12.89167 km/h
2441 22-03-2014 10:00:00 11.01667 C 6.81 g/m*3 11.02 C 13.03333 km/h
2442 22-03-2014 11:00:00 11.06667 C 6.75 g/m*3 11.07 C 9 km/h
2443 22-03-2014 12:00:00 12.41667 C 6.93 g/m*3 12.42 C 11.95 km/h
2444 22-03-2014 13:00:00 12.95833 C 6.64 g/m*3 12.96 C 11.95833 km/h
2445 22-03-2014 14:00:00 12.51667 C 6.77 g/m*3 12.52 C 7.79167 km/h
2446 22-03-2014 15:00:00 10.475 C 7.69 g/m*3 9.02 C 11.14167 km/h
2447 22-03-2014 16:00:00 11.01667 C 7.38 g/m*3 11.02 C 12.49167 km/h
2448 22-03-2014 17:00:00 7.75 C 6.93 g/m*3 5.73 C 11.14167 km/h
2449 22-03-2014 18:00:00 6.24167 C 6.76 g/m*3 6.24 C 2.8 km/h
2450 22-03-2014 19:00:00 5.675 C 6.72 g/m*3 5.68 C 3.06667 km/h
Sensor: Nr:Datum:Temp:Abs-Feuchte:Windchill:Wind:
Aussen-T/F 2451 22-03-2014 20:00:00 5.75 C 6.73 g/m*3 5.75 C 2.53333 km/h
2452 22-03-2014 21:00:00 5.51667 C 6.6 g/m*3 5.52 C 2 km/h
2453 22-03-2014 22:00:00 4.89167 C 6.4 g/m*3 4.89 C 3.2 km/h
2454 22-03-2014 23:00:00 5.05 C 6.44 g/m*3 5.05 C 3.86667 km/h
2455 23-03-2014 00:00:00 4.64167 C 6.28 g/m*3 4.64 C 3.46667 km/h
2456 23-03-2014 01:00:00 4.73333 C 6.36 g/m*3 4.73 C 1.6 km/h
2457 23-03-2014 02:00:00 4.66667 C 6.33 g/m*3 4.67 C 1.06667 km/h
2458 23-03-2014 03:00:00 4.26667 C 6.21 g/m*3 4.27 C 0.26667 km/h
2459 23-03-2014 04:00:00 5.00833 C 6.49 g/m*3 5.01 C 3.21667 km/h
2460 23-03-2014 05:00:00 5.10833 C 6.32 g/m*3 5.11 C 2.4 km/h
2461 23-03-2014 06:00:00 4.06667 C 5.94 g/m*3 4.07 C 1.33333 km/h
2462 23-03-2014 07:00:00 3.99167 C 6 g/m*3 3.99 C 1.86667 km/h
2463 23-03-2014 08:00:00 5.25833 C 6.12 g/m*3 3.49 C 7.8 km/h
2464 23-03-2014 09:00:00 5.925 C 5.87 g/m*3 3.38 C 11.95833 km/h
2465 23-03-2014 10:00:00 6.96667 C 5.83 g/m*3 4.51 C 12.75833 km/h
2466 23-03-2014 11:00:00 7.13333 C 5.64 g/m*3 4.59 C 13.56667 km/h
2467 23-03-2014 12:00:00 8.25 C 5.59 g/m*3 5.68 C 15.56667 km/h
2468 23-03-2014 13:00:00 8.69167 C 5.46 g/m*3 6.26 C 15.3 km/h
2469 23-03-2014 14:00:00 8.89167 C 5.5 g/m*3 6.6 C 14.63333 km/h
2470 23-03-2014 15:00:00 8.84167 C 5.43 g/m*3 6.79 C 12.76667 km/h
2471 23-03-2014 16:00:00 8.73333 C 5.59 g/m*3 6.66 C 12.76667 km/h
2472 23-03-2014 17:00:00 8.41667 C 5.68 g/m*3 6.73 C 10.075 km/h
2473 23-03-2014 18:00:00 8.09167 C 5.93 g/m*3 8.09 C 2.53333 km/h
2474 23-03-2014 19:00:00 6.48333 C 5.91 g/m*3 6.48 C 2.53333 km/h
2475 23-03-2014 20:00:00 5.75 C 5.81 g/m*3 5.75 C 1.2 km/h
Sensor: Nr:Datum:Temp:Abs-Feuchte:Windchill:Wind:
Aussen-T/F 2476 23-03-2014 21:00:00 4.71667 C 5.62 g/m*3 4.72 C 2.93333 km/h
2477 23-03-2014 22:00:00 3.44167 C 5.42 g/m*3 3.44 C 2.13333 km/h
2478 23-03-2014 23:00:00 2.76667 C 5.35 g/m*3 2.77 C 0.66667 km/h
2479 24-03-2014 00:00:00 3.24167 C 5.43 g/m*3 3.24 C 1.73333 km/h
2480 24-03-2014 01:00:00 3.38333 C 5.42 g/m*3 3.38 C 4.3 km/h
2481 24-03-2014 02:00:00 3.14167 C 5.38 g/m*3 3.14 C 1.74167 km/h
2482 24-03-2014 03:00:00 3.05 C 5.37 g/m*3 3.05 C 0.4 km/h
2483 24-03-2014 04:00:00 3.35 C 5.38 g/m*3 3.35 C 1.6 km/h
2484 24-03-2014 05:00:00 3.21667 C 5.34 g/m*3 3.22 C 0.53333 km/h
2485 24-03-2014 06:00:00 3.03333 C 5.34 g/m*3 3.03 C 0.8 km/h
2486 24-03-2014 07:00:00 3.3 C 5.39 g/m*3 3.3 C 3.86667 km/h
2487 24-03-2014 08:00:00 4.14167 C 5.65 g/m*3 2.73 C 6.01667 km/h
2488 24-03-2014 09:00:00 4.78333 C 5.68 g/m*3 3.61 C 5.60833 km/h
2489 24-03-2014 10:00:00 5.48333 C 5.83 g/m*3 5.48 C 3.86667 km/h
2490 24-03-2014 11:00:00 6.875 C 6 g/m*3 6.18 C 5.08333 km/h
2491 24-03-2014 12:00:00 8.4 C 5.89 g/m*3 7.37 C 6.96667 km/h
2492 24-03-2014 13:00:00 9.425 C 5.89 g/m*3 8.23 C 8.475 km/h
2493 24-03-2014 14:00:00 9.925 C 5.62 g/m*3 8.5 C 10.225 km/h
2494 24-03-2014 15:00:00 9.075 C 5.71 g/m*3 7.61 C 9.54167 km/h
2495 24-03-2014 16:00:00 9.35 C 5.75 g/m*3 8.61 C 6.43333 km/h
2496 24-03-2014 17:00:00 9.18333 C 5.78 g/m*3 9.18 C 3.74167 km/h
2497 24-03-2014 18:00:00 6.20833 C 5.79 g/m*3 6.21 C 4 km/h
2498 24-03-2014 19:00:00 6.275 C 5.85 g/m*3 6.28 C 1.6 km/h
2499 24-03-2014 20:00:00 6.18333 C 5.89 g/m*3 6.18 C 2.675 km/h
2500 24-03-2014 21:00:00 4.41667 C 5.47 g/m*3 4.42 C 2.93333 km/h
Sensor: Nr:Datum:Temp:Abs-Feuchte:Windchill:Wind:
Aussen-T/F 2501 24-03-2014 22:00:00 3.31667 C 5.31 g/m*3 3.32 C 1.06667 km/h
2502 24-03-2014 23:00:00 2.21667 C 5.09 g/m*3 2.22 C 0 km/h
2503 25-03-2014 00:00:00 1.66667 C 4.99 g/m*3 1.67 C 0.13333 km/h
2504 25-03-2014 01:00:00 1.05833 C 4.84 g/m*3 1.06 C 0.66667 km/h
2505 25-03-2014 02:00:00 0.75833 C 4.79 g/m*3 0.76 C 0.26667 km/h
2506 25-03-2014 03:00:00 0.29167 C 4.67 g/m*3 0.29 C 0.26667 km/h
2507 25-03-2014 04:00:00 0.58333 C 4.82 g/m*3 0.58 C 0.26667 km/h
2508 25-03-2014 05:00:00 0.28333 C 4.73 g/m*3 0.28 C 0.66667 km/h
2509 25-03-2014 06:00:00 0.34167 C 4.76 g/m*3 0.34 C 0.8 km/h
2510 25-03-2014 07:00:00 0.76667 C 4.9 g/m*3 0.77 C 1.33333 km/h
2511 25-03-2014 08:00:00 1.23333 C 5.06 g/m*3 1.23 C 2.93333 km/h
2512 25-03-2014 09:00:00 2.39167 C 5.45 g/m*3 2.39 C 3.2 km/h
2513 25-03-2014 10:00:00 3.94167 C 5.72 g/m*3 3.94 C 1.6 km/h
2514 25-03-2014 11:00:00 6.825 C 6.19 g/m*3 6.83 C 4.68333 km/h
2515 25-03-2014 12:00:00 8.68333 C 5.9 g/m*3 8.23 C 5.08333 km/h
2516 25-03-2014 13:00:00 8.88333 C 5.74 g/m*3 8.88 C 3.73333 km/h
2517 25-03-2014 14:00:00 8.525 C 5.27 g/m*3 7.23 C 8.2 km/h
2518 25-03-2014 15:00:00 9.2 C 5.34 g/m*3 8.37 C 6.7 km/h
2519 25-03-2014 16:00:00 10.4 C 5.48 g/m*3 9.34 C 8.71667 km/h
2520 25-03-2014 17:00:00 9.88333 C 5.69 g/m*3 8.74 C 8.625 km/h
2521 25-03-2014 18:00:00 7.91667 C 5.54 g/m*3 7.32 C 5.20833 km/h
2522 25-03-2014 19:00:00 5.34167 C 5.18 g/m*3 4.11 C 6.00833 km/h
2523 25-03-2014 20:00:00 3.99167 C 5.18 g/m*3 3.99 C 3.86667 km/h
2524 25-03-2014 21:00:00 3.05833 C 5.09 g/m*3 3.06 C 2 km/h
2525 25-03-2014 22:00:00 2.35833 C 5.01 g/m*3 2.36 C 1.06667 km/h
Sensor: Nr:Datum:Temp:Abs-Feuchte:Windchill:Wind:
Aussen-T/F 2526 25-03-2014 23:00:00 1.51667 C 4.81 g/m*3 1.52 C 0.53333 km/h
2527 26-03-2014 00:00:00 0.88333 C 4.68 g/m*3 0.88 C 0 km/h
2528 26-03-2014 01:00:00 0.36667 C 4.58 g/m*3 0.37 C 0 km/h
2529 26-03-2014 02:00:00 0.10833 C 4.56 g/m*3 0.11 C 0 km/h
2530 26-03-2014 03:00:00 0.30833 C 4.64 g/m*3 0.31 C 0.13333 km/h
2531 26-03-2014 04:00:00 -0.24167 C 4.48 g/m*3 -0.24 C 0.13333 km/h
2532 26-03-2014 05:00:00 -0.54167 C 4.4 g/m*3 -0.54 C 0.13333 km/h
2533 26-03-2014 06:00:00 -0.76667 C 4.36 g/m*3 -0.77 C 0 km/h
2534 26-03-2014 07:00:00 -0.725 C 4.38 g/m*3 -0.73 C 0.26667 km/h
2535 26-03-2014 08:00:00 -0.01667 C 4.64 g/m*3 -0.02 C 0 km/h
2536 26-03-2014 09:00:00 1.76667 C 5.24 g/m*3 1.77 C 0 km/h
2537 26-03-2014 10:00:00 4.50833 C 5.74 g/m*3 4.51 C 0.93333 km/h
2538 26-03-2014 11:00:00 7.60833 C 5.86 g/m*3 7.61 C 4.675 km/h
2539 26-03-2014 12:00:00 10.36667 C 5.83 g/m*3 9.01 C 10.35 km/h
2540 26-03-2014 13:00:00 10.375 C 5.22 g/m*3 9.18 C 9.425 km/h
2541 26-03-2014 14:00:00 11.20833 C 4.91 g/m*3 11.21 C 9.54167 km/h
2542 26-03-2014 15:00:00 11.55833 C 4.81 g/m*3 11.56 C 6.025 km/h
2543 26-03-2014 16:00:00 10.24167 C 5.16 g/m*3 10.24 C 4.66667 km/h
2544 26-03-2014 17:00:00 10.80833 C 4.99 g/m*3 10.81 C 4.675 km/h
2545 26-03-2014 18:00:00 8.30833 C 5.24 g/m*3 8.31 C 3.74167 km/h
2546 26-03-2014 19:00:00 5.85 C 5.38 g/m*3 5.85 C 4.53333 km/h
2547 26-03-2014 20:00:00 4.58333 C 5.31 g/m*3 4.58 C 2.8 km/h
2548 26-03-2014 21:00:00 4.36667 C 5.41 g/m*3 4.37 C 1.2 km/h
2549 26-03-2014 22:00:00 4.38333 C 5.55 g/m*3 4.38 C 0.53333 km/h
2550 26-03-2014 23:00:00 4.15 C 5.87 g/m*3 4.15 C 1.73333 km/h
Sensor: Nr:Datum:Temp:Abs-Feuchte:Windchill:Wind:
Aussen-T/F 2551 27-03-2014 00:00:00 4.175 C 6.01 g/m*3 4.18 C 0.13333 km/h
2552 27-03-2014 01:00:00 4.14167 C 5.97 g/m*3 4.14 C 0.53333 km/h
2553 27-03-2014 02:00:00 3.79167 C 5.83 g/m*3 3.79 C 0.4 km/h
2554 27-03-2014 03:00:00 3.375 C 5.61 g/m*3 3.38 C 1.46667 km/h
2555 27-03-2014 04:00:00 2.5 C 5.3 g/m*3 2.5 C 2 km/h
2556 27-03-2014 05:00:00 1.89167 C 5.14 g/m*3 1.89 C 0.4 km/h
2557 27-03-2014 06:00:00 1.46667 C 5.04 g/m*3 1.47 C 0 km/h
2558 27-03-2014 07:00:00 2.06667 C 5.24 g/m*3 2.07 C 1.6 km/h
2559 27-03-2014 08:00:00 3.1 C 5.52 g/m*3 3.1 C 2.4 km/h
2560 27-03-2014 09:00:00 5.325 C 6.05 g/m*3 3.72 C 7.24167 km/h
2561 27-03-2014 10:00:00 8.2 C 6.24 g/m*3 7.29 C 6.4 km/h
2562 27-03-2014 11:00:00 10.825 C 6.15 g/m*3 9.42 C 11.3 km/h
2563 27-03-2014 12:00:00 13.6 C 6.38 g/m*3 13.6 C 13.03333 km/h
2564 27-03-2014 13:00:00 14.70833 C 6.29 g/m*3 14.71 C 11.96667 km/h
2565 27-03-2014 14:00:00 15.35 C 5.91 g/m*3 15.35 C 11.425 km/h
2566 27-03-2014 15:00:00 15.80833 C 5.8 g/m*3 15.81 C 10.89167 km/h
2567 27-03-2014 16:00:00 15.71667 C 5.79 g/m*3 15.72 C 9.81667 km/h
2568 27-03-2014 17:00:00 15.73333 C 5.7 g/m*3 15.73 C 5.63333 km/h
2569 27-03-2014 18:00:00 12 C 6.05 g/m*3 12 C 5.35 km/h
2570 27-03-2014 19:00:00 9.51667 C 6.07 g/m*3 8.64 C 7.10833 km/h
2571 27-03-2014 20:00:00 8.625 C 6.3 g/m*3 7.85 C 6.13333 km/h
2572 27-03-2014 21:00:00 8.01667 C 6.35 g/m*3 7.35 C 5.46667 km/h
2573 27-03-2014 22:00:00 7.625 C 6.39 g/m*3 7.04 C 5.06667 km/h
2574 27-03-2014 23:00:00 7.99167 C 6.37 g/m*3 7.99 C 4.53333 km/h
2575 28-03-2014 00:00:00 7.24167 C 6.22 g/m*3 7.24 C 4.66667 km/h
Sensor: Nr:Datum:Temp:Abs-Feuchte:Windchill:Wind:
Aussen-T/F 2576 28-03-2014 01:00:00 6.525 C 6.07 g/m*3 6.53 C 4.53333 km/h
2577 28-03-2014 02:00:00 5.825 C 5.98 g/m*3 4.9 C 5.33333 km/h
2578 28-03-2014 03:00:00 5.40833 C 5.93 g/m*3 5.41 C 4.53333 km/h
2579 28-03-2014 04:00:00 4.83333 C 5.85 g/m*3 4.83 C 3.46667 km/h
2580 28-03-2014 05:00:00 4.1 C 5.66 g/m*3 4.1 C 1.06667 km/h
2581 28-03-2014 06:00:00 3.5 C 5.51 g/m*3 3.5 C 0.13333 km/h
2582 28-03-2014 07:00:00 3.66667 C 5.71 g/m*3 3.67 C 0.26667 km/h
2583 28-03-2014 08:00:00 5.26667 C 6.16 g/m*3 5.27 C 3.73333 km/h
2584 28-03-2014 09:00:00 8.20833 C 6.61 g/m*3 8.21 C 3.2 km/h
2585 28-03-2014 10:00:00 11.275 C 6.73 g/m*3 11.28 C 6.16667 km/h
2586 28-03-2014 11:00:00 13.61667 C 6.84 g/m*3 13.62 C 6.03333 km/h
2587 28-03-2014 12:00:00 15.75 C 6.92 g/m*3 15.75 C 6.70833 km/h
2588 28-03-2014 13:00:00 17.85 C 6.63 g/m*3 17.85 C 10.75 km/h
2589 28-03-2014 14:00:00 18.21667 C 6.09 g/m*3 18.22 C 11.025 km/h
2590 28-03-2014 15:00:00 18.79167 C 5.9 g/m*3 18.79 C 9.825 km/h
2591 28-03-2014 16:00:00 19.175 C 5.79 g/m*3 19.18 C 12.76667 km/h
2592 28-03-2014 17:00:00 16.79167 C 6.13 g/m*3 16.79 C 5.35833 km/h
2593 28-03-2014 18:00:00 13.78333 C 6.62 g/m*3 13.78 C 4.93333 km/h
2594 28-03-2014 19:00:00 13.15 C 6.31 g/m*3 13.15 C 4.81667 km/h
2595 28-03-2014 20:00:00 12.1 C 6.04 g/m*3 12.1 C 8.85833 km/h
2596 28-03-2014 21:00:00 10.96667 C 6.05 g/m*3 9.91 C 9.26667 km/h
2597 28-03-2014 22:00:00 10.1 C 6.26 g/m*3 8.81 C 9.675 km/h
2598 28-03-2014 23:00:00 8.49167 C 6.29 g/m*3 8.49 C 3.73333 km/h
2599 29-03-2014 00:00:00 6.69167 C 6.18 g/m*3 6.69 C 3.6 km/h
2600 29-03-2014 01:00:00 5.93333 C 6.14 g/m*3 5.93 C 4.13333 km/h
Sensor: Nr:Datum:Temp:Abs-Feuchte:Windchill:Wind:
Aussen-T/F 2601 29-03-2014 02:00:00 5.5 C 6.12 g/m*3 5.5 C 3.46667 km/h
2602 29-03-2014 03:00:00 5.025 C 6.03 g/m*3 5.03 C 3.6 km/h
2603 29-03-2014 04:00:00 4.33333 C 5.89 g/m*3 4.33 C 0.93333 km/h
2604 29-03-2014 05:00:00 3.7 C 5.72 g/m*3 3.7 C 0 km/h
2605 29-03-2014 06:00:00 3.15 C 5.6 g/m*3 3.15 C 0 km/h
2606 29-03-2014 07:00:00 3.18333 C 5.66 g/m*3 3.18 C 0 km/h
2607 29-03-2014 08:00:00 4.1 C 6.06 g/m*3 4.1 C 0 km/h
2608 29-03-2014 09:00:00 6.75 C 6.94 g/m*3 6.75 C 2.8 km/h
2609 29-03-2014 10:00:00 10.55833 C 7.46 g/m*3 9.97 C 6.56667 km/h
2610 29-03-2014 11:00:00 14.25833 C 7.57 g/m*3 14.26 C 8.49167 km/h
2611 29-03-2014 12:00:00 17.34167 C 7.75 g/m*3 17.34 C 10.63333 km/h
2612 29-03-2014 13:00:00 18.58333 C 7.58 g/m*3 18.58 C 10.35833 km/h
2613 29-03-2014 14:00:00 19.66667 C 6.86 g/m*3 19.67 C 8.2 km/h
2614 29-03-2014 15:00:00 20.26667 C 6.01 g/m*3 20.27 C 10.75833 km/h
2615 29-03-2014 16:00:00 20.79167 C 5.66 g/m*3 20.79 C 8.46667 km/h
2616 29-03-2014 17:00:00 20.8 C 5.46 g/m*3 20.8 C 7.14286 km/h
2617 29-03-2014 18:00:00 14.1 C 6.55 g/m*3 14.1 C 8.1 km/h
2618 29-03-2014 19:00:00 12.84167 C 6.2 g/m*3 12.84 C 5.875 km/h
2619 29-03-2014 20:00:00 11.575 C 6.54 g/m*3 11.58 C 3.33333 km/h
2620 29-03-2014 21:00:00 10.375 C 6.63 g/m*3 10.38 C 0.4 km/h
2621 29-03-2014 22:00:00 8.99167 C 6.37 g/m*3 8.99 C 0 km/h
2622 29-03-2014 23:00:00 7.66667 C 6.17 g/m*3 7.67 C 0.26667 km/h
2623 30-03-2014 00:00:00 6.86667 C 6.11 g/m*3 6.87 C 0.8 km/h
2624 30-03-2014 01:00:00 6.1 C 5.98 g/m*3 6.1 C 0.26667 km/h
2625 30-03-2014 02:00:00 5.00833 C 5.84 g/m*3 5.01 C 0.13333 km/h
Sensor: Nr:Datum:Temp:Abs-Feuchte:Windchill:Wind:
Aussen-T/F 2626 30-03-2014 04:00:00 4.35833 C 5.72 g/m*3 4.36 C 0 km/h
2627 30-03-2014 05:00:00 3.75833 C 5.61 g/m*3 3.76 C 0.13333 km/h
2628 30-03-2014 06:00:00 3.28333 C 5.53 g/m*3 3.28 C 0 km/h
2629 30-03-2014 07:00:00 2.91667 C 5.48 g/m*3 2.92 C 0.13333 km/h
2630 30-03-2014 08:00:00 3.375 C 5.66 g/m*3 3.38 C 0.4 km/h
2631 30-03-2014 09:00:00 4.04286 C 5.93 g/m*3 4.04 C 0.22857 km/h
2632 30-03-2014 10:00:00 7.47 C 6.75 g/m*3 7.47 C 0.48 km/h
2633 30-03-2014 11:00:00 10.175 C 7.24 g/m*3 10.18 C 0.66667 km/h
2634 30-03-2014 12:00:00 13.90833 C 7.96 g/m*3 13.91 C 2.4 km/h
2635 30-03-2014 13:00:00 18.48333 C 8.67 g/m*3 18.48 C 3.86667 km/h
2636 30-03-2014 14:00:00 20.73333 C 7.34 g/m*3 20.73 C 7.23333 km/h
2637 30-03-2014 15:00:00 20.74 C 6.86 g/m*3 20.74 C 3.52 km/h
2638 30-03-2014 20:00:00 13.97 C 7.45 g/m*3 13.97 C 3.04 km/h
2639 30-03-2014 21:00:00 12.46 C 7.48 g/m*3 12.46 C 0.48 km/h
2640 30-03-2014 22:00:00 11.59167 C 7.23 g/m*3 11.59 C 0.13333 km/h
2641 30-03-2014 23:00:00 10.425 C 7.17 g/m*3 10.43 C 0 km/h
2642 31-03-2014 00:00:00 9.775 C 7.07 g/m*3 9.78 C 0.4 km/h
2643 31-03-2014 01:00:00 8.83333 C 7 g/m*3 8.83 C 0.53333 km/h
2644 31-03-2014 02:00:00 8.325 C 6.96 g/m*3 8.32 C 0.4 km/h
2645 31-03-2014 03:00:00 8.06667 C 6.95 g/m*3 8.07 C 0.26667 km/h
2646 31-03-2014 04:00:00 7.525 C 6.87 g/m*3 7.53 C 0 km/h
2647 31-03-2014 05:00:00 7.09167 C 6.84 g/m*3 7.09 C 0.13333 km/h
2648 31-03-2014 06:00:00 6.71667 C 6.71 g/m*3 6.72 C 0 km/h
2649 31-03-2014 07:00:00 6.225 C 6.62 g/m*3 6.23 C 0 km/h
2650 31-03-2014 08:00:00 6.6 C 6.85 g/m*3 6.6 C 0 km/h
Sensor: Nr:Datum:Temp:Abs-Feuchte:Windchill:Wind:
Aussen-T/F 2651 31-03-2014 09:00:00 7.74167 C 7.15 g/m*3 7.74 C 0.66667 km/h
2652 31-03-2014 10:00:00 9.29167 C 7.45 g/m*3 9.29 C 0.26667 km/h
2653 31-03-2014 11:00:00 11.4 C 7.89 g/m*3 11.4 C 1.6 km/h
2654 31-03-2014 12:00:00 14.65 C 8.39 g/m*3 14.65 C 3.86667 km/h
2655 31-03-2014 13:00:00 17.93333 C 8.49 g/m*3 17.93 C 3.2 km/h
2656 31-03-2014 14:00:00 20.25833 C 7.22 g/m*3 20.26 C 4.53333 km/h
2657 31-03-2014 15:00:00 22.14167 C 4.83 g/m*3 22.14 C 6.83333 km/h
2658 31-03-2014 16:00:00 22.95 C 5.79 g/m*3 22.95 C 9.68333 km/h
2659 31-03-2014 17:00:00 22.94167 C 5.8 g/m*3 22.94 C 8.475 km/h
2660 31-03-2014 18:00:00 21.44167 C 6.14 g/m*3 21.44 C 3.2 km/h
2661 31-03-2014 19:00:00 17.40833 C 6.49 g/m*3 17.41 C 5.2 km/h
2662 31-03-2014 20:00:00 15.14167 C 6.14 g/m*3 15.14 C 5.6 km/h
2663 31-03-2014 21:00:00 14.075 C 7.35 g/m*3 14.08 C 3.73333 km/h
2664 31-03-2014 22:00:00 12.625 C 7.7 g/m*3 12.63 C 0.26667 km/h
2665 31-03-2014 23:00:00 12.01667 C 7.45 g/m*3 12.02 C 0.53333 km/h
2666 01-04-2014 00:00:00 10.94167 C 7.4 g/m*3 10.94 C 0.8 km/h
2667 01-04-2014 01:00:00 10.78333 C 7.49 g/m*3 10.78 C 0.8 km/h
2668 01-04-2014 02:00:00 10.525 C 7.55 g/m*3 10.53 C 0.26667 km/h
2669 01-04-2014 03:00:00 9.56667 C 7.34 g/m*3 9.57 C 0.26667 km/h
2670 01-04-2014 04:00:00 9.04167 C 7.22 g/m*3 9.04 C 0.13333 km/h
2671 01-04-2014 05:00:00 8.53333 C 7.14 g/m*3 8.53 C 0 km/h
2672 01-04-2014 06:00:00 8.00833 C 7 g/m*3 8.01 C 0.13333 km/h
2673 01-04-2014 07:00:00 7.65833 C 6.99 g/m*3 7.66 C 0.26667 km/h
2674 01-04-2014 08:00:00 8.38333 C 7.37 g/m*3 8.38 C 0.13333 km/h
2675 01-04-2014 09:00:00 9.8 C 7.69 g/m*3 9.8 C 0.13333 km/h
Sensor: Nr:Datum:Temp:Abs-Feuchte:Windchill:Wind:
Aussen-T/F 2676 01-04-2014 10:00:00 11.6 C 8.03 g/m*3 11.6 C 0 km/h
2677 01-04-2014 11:00:00 14.09167 C 8.27 g/m*3 14.09 C 0.26667 km/h
2678 01-04-2014 12:00:00 17.36667 C 8.31 g/m*3 17.37 C 0.93333 km/h
2679 01-04-2014 13:00:00 21.06667 C 8.6 g/m*3 21.07 C 3.2 km/h
2680 01-04-2014 14:00:00 22.1 C 7.78 g/m*3 22.1 C 5.06667 km/h
2681 01-04-2014 15:00:00 21.95833 C 7.44 g/m*3 21.96 C 4.425 km/h
2682 01-04-2014 16:00:00 23.06667 C 7.24 g/m*3 23.07 C 5.35833 km/h
2683 01-04-2014 17:00:00 22.76 C 6.89 g/m*3 22.76 C 7.76 km/h
2684 01-04-2014 19:00:00 17.84286 C 8.65 g/m*3 17.84 C 5.25714 km/h
2685 01-04-2014 20:00:00 17 C 8.69 g/m*3 17 C 4.13333 km/h
2686 01-04-2014 21:00:00 15.3 C 9.15 g/m*3 15.3 C 3.68 km/h
2687 01-04-2014 22:00:00 13.91667 C 8.02 g/m*3 13.92 C 2.4 km/h
2688 01-04-2014 23:00:00 12.70833 C 7.86 g/m*3 12.71 C 1.33333 km/h
2689 02-04-2014 00:00:00 11.51667 C 7.59 g/m*3 11.52 C 0 km/h
2690 02-04-2014 01:00:00 10.63333 C 7.48 g/m*3 10.63 C 1.06667 km/h
2691 02-04-2014 02:00:00 9.41667 C 7.3 g/m*3 9.42 C 0.13333 km/h
2692 02-04-2014 03:00:00 8.75833 C 7.16 g/m*3 8.76 C 0.26667 km/h
2693 02-04-2014 04:00:00 7.96667 C 7.05 g/m*3 7.97 C 0.26667 km/h
2694 02-04-2014 05:00:00 7.28333 C 6.89 g/m*3 7.28 C 0.26667 km/h
2695 02-04-2014 06:00:00 6.60833 C 6.78 g/m*3 6.61 C 0.26667 km/h
2696 02-04-2014 07:00:00 6.78333 C 6.88 g/m*3 6.78 C 0.13333 km/h
2697 02-04-2014 08:00:00 7.00833 C 7 g/m*3 7.01 C 1.06667 km/h
2698 02-04-2014 09:00:00 8.04167 C 7.36 g/m*3 8.04 C 0.13333 km/h
2699 02-04-2014 10:00:00 10.375 C 7.99 g/m*3 10.38 C 0.26667 km/h
2700 02-04-2014 11:00:00 13.45833 C 8.76 g/m*3 13.46 C 0.93333 km/h
Sensor: Nr:Datum:Temp:Abs-Feuchte:Windchill:Wind:
Aussen-T/F 2701 02-04-2014 12:00:00 17.03636 C 8.96 g/m*3 17.04 C 4.52727 km/h
2702 02-04-2014 13:00:00 20.98889 C 8.75 g/m*3 20.99 C 8.41111 km/h
2703 02-04-2014 14:00:00 22.40833 C 7.93 g/m*3 22.41 C 12.49167 km/h
2704 02-04-2014 15:00:00 22.66667 C 7.86 g/m*3 22.67 C 12.1 km/h
2705 02-04-2014 16:00:00 23.2 C 7.78 g/m*3 23.2 C 9.525 km/h
2706 02-04-2014 17:00:00 23.36667 C 7.63 g/m*3 23.37 C 8.86667 km/h
2707 02-04-2014 18:00:00 22.54167 C 8.08 g/m*3 22.54 C 6.96667 km/h
2708 02-04-2014 19:00:00 18.53333 C 9.1 g/m*3 18.53 C 2.8 km/h
2709 02-04-2014 20:00:00 15.90833 C 8.9 g/m*3 15.91 C 3.86667 km/h
2710 02-04-2014 21:00:00 14.90833 C 8.88 g/m*3 14.91 C 2.8 km/h
2711 02-04-2014 22:00:00 13.64167 C 8.79 g/m*3 13.64 C 0.8 km/h
2712 02-04-2014 23:00:00 12.69167 C 8.54 g/m*3 12.69 C 0.4 km/h
2713 03-04-2014 00:00:00 11.5 C 8.33 g/m*3 11.5 C 0 km/h
2714 03-04-2014 01:00:00 11.39167 C 8.38 g/m*3 11.39 C 1.33333 km/h
2715 03-04-2014 02:00:00 10.91667 C 8.28 g/m*3 10.92 C 0.4 km/h
2716 03-04-2014 03:00:00 10.46667 C 8.23 g/m*3 10.47 C 0 km/h
2717 03-04-2014 04:00:00 9.51667 C 7.87 g/m*3 9.52 C 0 km/h
2718 03-04-2014 05:00:00 8.575 C 7.66 g/m*3 8.57 C 0.26667 km/h
2719 03-04-2014 06:00:00 8.21667 C 7.59 g/m*3 8.22 C 0.4 km/h
2720 03-04-2014 07:00:00 8.09167 C 7.63 g/m*3 8.09 C 0.26667 km/h
2721 03-04-2014 08:00:00 9.03333 C 8.03 g/m*3 9.03 C 0.26667 km/h
2722 03-04-2014 09:00:00 10.18333 C 8.29 g/m*3 10.18 C 0.13333 km/h
2723 03-04-2014 10:00:00 11.55833 C 8.63 g/m*3 11.56 C 1.33333 km/h
2724 03-04-2014 11:00:00 13.675 C 9.07 g/m*3 13.68 C 1.46667 km/h
2725 03-04-2014 12:00:00 17.08333 C 9.89 g/m*3 17.08 C 3.73333 km/h
Sensor: Nr:Datum:Temp:Abs-Feuchte:Windchill:Wind:
Aussen-T/F 2726 03-04-2014 13:00:00 20.50833 C 8.44 g/m*3 20.51 C 8.74167 km/h
2727 03-04-2014 14:00:00 21.35 C 8.26 g/m*3 21.35 C 7.5 km/h
2728 03-04-2014 18:00:00 20.4 C 9.02 g/m*3 20.4 C 1.6 km/h
2729 03-04-2014 19:00:00 19.575 C 9.14 g/m*3 19.58 C 3.6 km/h
2730 03-04-2014 20:00:00 16.14286 C 9.25 g/m*3 16.14 C 5.04286 km/h
2731 03-04-2014 21:00:00 15.4 C 8.58 g/m*3 15.4 C 2.66667 km/h
2732 03-04-2014 22:00:00 14.44167 C 8.66 g/m*3 14.44 C 0.93333 km/h
2733 03-04-2014 23:00:00 13.175 C 8.54 g/m*3 13.18 C 0 km/h
2734 04-04-2014 00:00:00 12.34167 C 8.45 g/m*3 12.34 C 0.13333 km/h
2735 04-04-2014 01:00:00 12.79167 C 8.67 g/m*3 12.79 C 1.6 km/h
2736 04-04-2014 02:00:00 12.76667 C 8.73 g/m*3 12.77 C 0.13333 km/h
2737 04-04-2014 03:00:00 12.31667 C 8.79 g/m*3 12.32 C 0.13333 km/h
2738 04-04-2014 04:00:00 12.1 C 8.83 g/m*3 12.1 C 0.26667 km/h
2739 04-04-2014 05:00:00 11.525 C 8.7 g/m*3 11.53 C 0.66667 km/h
2740 04-04-2014 06:00:00 11.3 C 8.72 g/m*3 11.3 C 0.4 km/h
2741 04-04-2014 07:00:00 11.225 C 8.72 g/m*3 11.23 C 0.66667 km/h
2742 04-04-2014 08:00:00 11.05 C 8.79 g/m*3 11.05 C 0 km/h
2743 04-04-2014 09:00:00 11.88333 C 9.07 g/m*3 11.88 C 0.26667 km/h
2744 04-04-2014 10:00:00 13.21667 C 9.37 g/m*3 13.22 C 0.66667 km/h
2745 04-04-2014 11:00:00 14.99167 C 9.87 g/m*3 14.99 C 2.4 km/h
2746 04-04-2014 12:00:00 16.99167 C 10.15 g/m*3 16.99 C 2.26667 km/h
2747 04-04-2014 13:00:00 18.975 C 10.29 g/m*3 18.98 C 3.20833 km/h
2748 04-04-2014 14:00:00 20.21667 C 9.9 g/m*3 20.22 C 6.425 km/h
2749 04-04-2014 15:00:00 20.58333 C 10.03 g/m*3 20.58 C 8.86667 km/h
2750 04-04-2014 16:00:00 20.39167 C 10.17 g/m*3 20.39 C 8.59167 km/h
Sensor: Nr:Datum:Temp:Abs-Feuchte:Windchill:Wind:
Aussen-T/F 2751 04-04-2014 17:00:00 20.22857 C 10.53 g/m*3 20.23 C 7.84286 km/h
2752 04-04-2014 18:00:00 19.27143 C 11.92 g/m*3 19.27 C 7.6 km/h
2753 04-04-2014 19:00:00 17.96667 C 9.66 g/m*3 17.97 C 10.08333 km/h
2754 04-04-2014 20:00:00 16.70833 C 9.83 g/m*3 16.71 C 6.7 km/h
2755 04-04-2014 21:00:00 15.28333 C 10.03 g/m*3 15.28 C 5.475 km/h
2756 04-04-2014 22:00:00 14.9 C 10.09 g/m*3 14.9 C 3.475 km/h
2757 04-04-2014 23:00:00 14 C 10.02 g/m*3 14 C 2 km/h
2758 05-04-2014 00:00:00 13.95833 C 10.22 g/m*3 13.96 C 8.58333 km/h
2759 05-04-2014 01:00:00 13.43333 C 10.13 g/m*3 13.43 C 7.09167 km/h
2760 05-04-2014 02:00:00 13.2 C 9.99 g/m*3 13.2 C 6.44167 km/h
2761 05-04-2014 03:00:00 12.91667 C 9.88 g/m*3 12.92 C 5.34167 km/h
2762 05-04-2014 04:00:00 12.74167 C 9.71 g/m*3 12.74 C 8.05 km/h
2763 05-04-2014 05:00:00 12.53333 C 9.65 g/m*3 12.53 C 8.325 km/h
2764 05-04-2014 06:00:00 12.125 C 9.68 g/m*3 12.13 C 3.86667 km/h
2765 05-04-2014 07:00:00 12.00833 C 9.6 g/m*3 12.01 C 4.95833 km/h
2766 05-04-2014 08:00:00 12.04167 C 9.62 g/m*3 12.04 C 5.35 km/h
2767 05-04-2014 09:00:00 12.2 C 9.66 g/m*3 12.2 C 6.16667 km/h
2768 05-04-2014 10:00:00 12.13333 C 9.62 g/m*3 12.13 C 8.74167 km/h
2769 05-04-2014 11:00:00 12.36667 C 9.6 g/m*3 12.37 C 5.75833 km/h
2770 05-04-2014 12:00:00 13.075 C 9.89 g/m*3 13.08 C 5.36667 km/h
2771 05-04-2014 13:00:00 13.9 C 10.43 g/m*3 13.9 C 5.86667 km/h
2772 05-04-2014 15:00:00 15.43333 C 10.09 g/m*3 15.43 C 5.86667 km/h
2773 05-04-2014 16:00:00 15.125 C 9.85 g/m*3 15.13 C 7.25 km/h
2774 05-04-2014 17:00:00 14.88889 C 10.06 g/m*3 14.89 C 6.42222 km/h
2775 05-04-2014 18:00:00 14.7 C 9.82 g/m*3 14.7 C 6.4 km/h
Sensor: Nr:Datum:Temp:Abs-Feuchte:Windchill:Wind:
Aussen-T/F 2776 05-04-2014 19:00:00 14.29167 C 10.09 g/m*3 14.29 C 0.93333 km/h
2777 05-04-2014 20:00:00 13.38333 C 9.75 g/m*3 13.38 C 3.06667 km/h
2778 05-04-2014 21:00:00 13.06667 C 9.74 g/m*3 13.07 C 2.26667 km/h
2779 05-04-2014 22:00:00 12.70833 C 9.66 g/m*3 12.71 C 0.8 km/h
2780 05-04-2014 23:00:00 11.26667 C 8.99 g/m*3 11.27 C 2.93333 km/h
2781 06-04-2014 00:00:00 10.08333 C 8.63 g/m*3 10.08 C 0.93333 km/h
2782 06-04-2014 01:00:00 9.2 C 8.3 g/m*3 9.2 C 0.13333 km/h
2783 06-04-2014 02:00:00 8.45 C 8.04 g/m*3 8.45 C 0.13333 km/h
2784 06-04-2014 03:00:00 7.9 C 7.8 g/m*3 7.9 C 0.26667 km/h
2785 06-04-2014 04:00:00 7.19167 C 7.49 g/m*3 7.19 C 0 km/h
2786 06-04-2014 05:00:00 7.00833 C 7.46 g/m*3 7.01 C 0 km/h
2787 06-04-2014 06:00:00 7.2 C 7.59 g/m*3 7.2 C 1.2 km/h
2788 06-04-2014 07:00:00 7.21667 C 7.62 g/m*3 7.22 C 0.66667 km/h
2789 06-04-2014 08:00:00 7.71667 C 7.87 g/m*3 7.72 C 0 km/h
2790 06-04-2014 09:00:00 8.19167 C 8.12 g/m*3 8.19 C 0.66667 km/h
2791 06-04-2014 10:00:00 10.23333 C 8.96 g/m*3 10.23 C 2.93333 km/h
2792 06-04-2014 11:00:00 13.87778 C 9.11 g/m*3 13.88 C 9.85556 km/h
2793 06-04-2014 12:00:00 16.50833 C 8.75 g/m*3 16.51 C 13.96667 km/h
2794 06-04-2014 13:00:00 18.53333 C 9.09 g/m*3 18.53 C 11.28889 km/h
2795 06-04-2014 14:00:00 19.44 C 9 g/m*3 19.44 C 13.06 km/h
2796 06-04-2014 15:00:00 19.08571 C 9.06 g/m*3 19.09 C 11.3 km/h
2797 06-04-2014 16:00:00 18.9 C 9.07 g/m*3 18.9 C 14.5 km/h
2798 06-04-2014 17:00:00 18.3 C 9.07 g/m*3 18.3 C 10.32 km/h
2799 06-04-2014 19:00:00 16.45 C 9.47 g/m*3 16.45 C 3.48333 km/h
2800 06-04-2014 20:00:00 14.9 C 9.28 g/m*3 14.9 C 3.46667 km/h
Sensor: Nr:Datum:Temp:Abs-Feuchte:Windchill:Wind:
Aussen-T/F 2801 06-04-2014 21:00:00 13.825 C 9.25 g/m*3 13.83 C 2.26667 km/h
2802 06-04-2014 22:00:00 13.9 C 9.37 g/m*3 13.9 C 2.66667 km/h
2803 06-04-2014 23:00:00 13.99167 C 9.32 g/m*3 13.99 C 2.4 km/h
2804 07-04-2014 00:00:00 13.875 C 9.32 g/m*3 13.88 C 1.86667 km/h
2805 07-04-2014 01:00:00 13.21667 C 9.37 g/m*3 13.22 C 0.26667 km/h
2806 07-04-2014 02:00:00 12.99167 C 9.44 g/m*3 12.99 C 0.53333 km/h
2807 07-04-2014 03:00:00 12.675 C 9.42 g/m*3 12.68 C 0 km/h
2808 07-04-2014 04:00:00 12.5 C 9.43 g/m*3 12.5 C 0.13333 km/h
2809 07-04-2014 05:00:00 12.4 C 9.44 g/m*3 12.4 C 0.8 km/h
2810 07-04-2014 06:00:00 12.38333 C 9.56 g/m*3 12.38 C 0.13333 km/h
2811 07-04-2014 07:00:00 12.26667 C 9.59 g/m*3 12.27 C 0.53333 km/h
2812 07-04-2014 08:00:00 12.95 C 9.85 g/m*3 12.95 C 1.6 km/h
2813 07-04-2014 09:00:00 14.15833 C 10.32 g/m*3 14.16 C 3.35 km/h
2814 07-04-2014 10:00:00 16.19167 C 10.98 g/m*3 16.19 C 9.40833 km/h
2815 07-04-2014 11:00:00 17.8 C 11.41 g/m*3 17.8 C 9.15 km/h
2816 07-04-2014 12:00:00 19.51667 C 11.45 g/m*3 19.52 C 8.875 km/h
2817 07-04-2014 13:00:00 20.51667 C 11.12 g/m*3 20.52 C 7.125 km/h
2818 07-04-2014 14:00:00 21.20833 C 11.29 g/m*3 21.21 C 7.925 km/h
2819 07-04-2014 15:00:00 21.54167 C 10.71 g/m*3 21.54 C 7.525 km/h
2820 07-04-2014 16:00:00 22.16667 C 9.93 g/m*3 22.17 C 8.06667 km/h
2821 07-04-2014 18:00:00 23.36667 C 17.35 g/m*3 23.37 C 6.71667 km/h
2822 07-04-2014 19:00:00 17.9 C 10.04 g/m*3 17.9 C 4.4 km/h
2823 07-04-2014 20:00:00 16.87 C 9.36 g/m*3 16.87 C 4.48 km/h
2824 07-04-2014 21:00:00 16.20909 C 9.62 g/m*3 16.21 C 4.07273 km/h
2825 07-04-2014 22:00:00 16.03333 C 9.12 g/m*3 16.03 C 3.2 km/h
Sensor: Nr:Datum:Temp:Abs-Feuchte:Windchill:Wind:
Aussen-T/F 2826 07-04-2014 23:00:00 16.125 C 9.24 g/m*3 16.13 C 3.475 km/h
2827 08-04-2014 00:00:00 15.48333 C 9.38 g/m*3 15.48 C 3.73333 km/h
2828 08-04-2014 01:00:00 15.59167 C 9.87 g/m*3 15.59 C 1.86667 km/h
2829 08-04-2014 02:00:00 16.025 C 9.85 g/m*3 16.02 C 4.69167 km/h
2830 08-04-2014 03:00:00 15.20833 C 9.75 g/m*3 15.21 C 3.075 km/h
2831 08-04-2014 04:00:00 14.66667 C 9.66 g/m*3 14.67 C 4.69167 km/h
2832 08-04-2014 05:00:00 15.5 C 9.25 g/m*3 15.5 C 10.06667 km/h
2833 08-04-2014 06:00:00 13.175 C 9.53 g/m*3 13.18 C 9.80833 km/h
2834 08-04-2014 07:00:00 11.525 C 7.72 g/m*3 11.53 C 19.16667 km/h
2835 08-04-2014 08:00:00 10.99167 C 6.79 g/m*3 9 C 16.23333 km/h
2836 08-04-2014 09:00:00 11.075 C 6.48 g/m*3 11.08 C 16.23333 km/h
2837 08-04-2014 10:00:00 11.725 C 6.55 g/m*3 11.73 C 15.83333 km/h
2838 08-04-2014 11:00:00 12.28333 C 6.59 g/m*3 12.28 C 15.3 km/h
2839 08-04-2014 12:00:00 12.64167 C 6.53 g/m*3 12.64 C 19.45 km/h
2840 08-04-2014 13:00:00 12.64167 C 6.27 g/m*3 12.64 C 17.43333 km/h
2841 08-04-2014 14:00:00 12.15833 C 6.07 g/m*3 12.16 C 20.375 km/h
2842 08-04-2014 15:00:00 12.63333 C 5.68 g/m*3 12.63 C 19.83333 km/h
2843 08-04-2014 16:00:00 12.6 C 5.43 g/m*3 12.6 C 19.84167 km/h
2844 08-04-2014 17:00:00 10.68333 C 6.09 g/m*3 8.56 C 16.76667 km/h
2845 08-04-2014 18:00:00 10.65833 C 6.2 g/m*3 9.21 C 11.3 km/h
2846 08-04-2014 19:00:00 10.26667 C 6.16 g/m*3 8.1 C 16.24167 km/h
2847 08-04-2014 20:00:00 9.26667 C 6.28 g/m*3 7.69 C 10.4 km/h
2848 08-04-2014 21:00:00 8.75 C 6.46 g/m*3 8.26 C 5.225 km/h
2849 08-04-2014 22:00:00 8.00833 C 6.4 g/m*3 8.01 C 3.46667 km/h
2850 08-04-2014 23:00:00 7.79091 C 6.27 g/m*3 7.12 C 5.39091 km/h
Sensor: Nr:Datum:Temp:Abs-Feuchte:Windchill:Wind:
Aussen-T/F 2851 09-04-2014 00:00:00 6.06667 C 6.63 g/m*3 6.07 C 2.66667 km/h
2852 09-04-2014 01:00:00 5.65833 C 6.57 g/m*3 4.75 C 5.21667 km/h
2853 09-04-2014 02:00:00 5.425 C 6.55 g/m*3 5.43 C 3.6 km/h
2854 09-04-2014 03:00:00 4.9 C 6.33 g/m*3 4.9 C 2 km/h
2855 09-04-2014 04:00:00 4.88333 C 6.32 g/m*3 4.88 C 2.93333 km/h
2856 09-04-2014 05:00:00 5.05833 C 6.29 g/m*3 5.06 C 1.73333 km/h
2857 09-04-2014 06:00:00 4.375 C 6.12 g/m*3 4.38 C 1.2 km/h
2858 09-04-2014 07:00:00 4.18 C 6.05 g/m*3 4.18 C 2.9 km/h
2859 09-04-2014 08:00:00 4.64167 C 6.3 g/m*3 4.64 C 2.13333 km/h
2860 09-04-2014 09:00:00 6.81667 C 6.87 g/m*3 5.12 C 8.61667 km/h
2861 09-04-2014 10:00:00 8.54167 C 7.23 g/m*3 7.37 C 7.65833 km/h
2862 09-04-2014 11:00:00 10.29167 C 7.34 g/m*3 8.92 C 10.35 km/h
2863 09-04-2014 12:00:00 11.375 C 7.23 g/m*3 11.38 C 9.68333 km/h
2864 09-04-2014 13:00:00 12.96667 C 6.67 g/m*3 12.97 C 8.6 km/h
2865 09-04-2014 14:00:00 13.64167 C 6.49 g/m*3 13.64 C 8.06667 km/h
2866 09-04-2014 15:00:00 14.43333 C 6.06 g/m*3 14.43 C 9.28333 km/h
2867 09-04-2014 16:00:00 14.325 C 6.08 g/m*3 14.33 C 9.95833 km/h
2868 09-04-2014 17:00:00 14.80833 C 6.44 g/m*3 14.81 C 9.01667 km/h
2869 09-04-2014 18:00:00 14.58333 C 6.46 g/m*3 14.58 C 8.46667 km/h
2870 09-04-2014 19:00:00 13.15833 C 6.8 g/m*3 13.16 C 3.2 km/h
2871 09-04-2014 20:00:00 10.35833 C 7.02 g/m*3 10.36 C 3.86667 km/h
2872 09-04-2014 21:00:00 9.15 C 6.95 g/m*3 9.15 C 3.06667 km/h
2873 09-04-2014 22:00:00 9 C 6.92 g/m*3 9 C 2.26667 km/h
2874 09-04-2014 23:00:00 8.56667 C 6.77 g/m*3 8.57 C 2 km/h
2875 10-04-2014 00:00:00 9.05833 C 6.74 g/m*3 8.54 C 5.48333 km/h
Sensor: Nr:Datum:Temp:Abs-Feuchte:Windchill:Wind:
Aussen-T/F 2876 10-04-2014 01:00:00 8.23333 C 6.68 g/m*3 8.23 C 4.55833 km/h
2877 10-04-2014 02:00:00 7.93333 C 6.75 g/m*3 7.93 C 2.94167 km/h
2878 10-04-2014 03:00:00 8.29167 C 6.87 g/m*3 8.29 C 1.2 km/h
2879 10-04-2014 04:00:00 7.925 C 6.84 g/m*3 7.93 C 0.53333 km/h
2880 10-04-2014 05:00:00 7.13333 C 6.73 g/m*3 7.13 C 1.2 km/h
2881 10-04-2014 06:00:00 6.48333 C 6.62 g/m*3 6.48 C 0.26667 km/h
2882 10-04-2014 07:00:00 6.50833 C 6.73 g/m*3 6.51 C 0.93333 km/h
2883 10-04-2014 08:00:00 7.35556 C 6.93 g/m*3 6.15 C 6.98889 km/h
2884 10-04-2014 09:00:00 8.65 C 7.67 g/m*3 7.59 C 7.25 km/h
2885 10-04-2014 10:00:00 9.85556 C 7.38 g/m*3 9.86 C 4.11111 km/h
2886 10-04-2014 13:00:00 16.3 C 8.42 g/m*3 16.3 C 6.43333 km/h
2887 10-04-2014 14:00:00 17.6 C 8.7 g/m*3 17.6 C 9.7 km/h
2888 10-04-2014 15:00:00 17.66 C 8.52 g/m*3 17.66 C 7.42 km/h
2889 10-04-2014 16:00:00 18.52 C 9.95 g/m*3 18.52 C 9.04 km/h
2890 10-04-2014 17:00:00 17.91667 C 8.48 g/m*3 17.92 C 8.08333 km/h
2891 10-04-2014 18:00:00 16.5 C 8.31 g/m*3 16.5 C 8.18333 km/h
2892 10-04-2014 19:00:00 16.2 C 8.27 g/m*3 16.2 C 4.8 km/h
2893 11-04-2014 08:00:00 6.86 C 7.29 g/m*3 6.86 C 1.28 km/h
2894 11-04-2014 09:00:00 8.29167 C 8 g/m*3 8.29 C 0.13333 km/h
2895 11-04-2014 10:00:00 11.43333 C 8.82 g/m*3 11.43 C 0 km/h
2896 11-04-2014 11:00:00 15.75 C 9.06 g/m*3 15.75 C 9.7 km/h
2897 11-04-2014 12:00:00 16.90833 C 9.09 g/m*3 16.91 C 4 km/h
2898 11-04-2014 13:00:00 18.85556 C 9.21 g/m*3 18.86 C 5.7 km/h
2899 11-04-2014 14:00:00 18.53333 C 9.04 g/m*3 18.53 C 7.51667 km/h
2900 11-04-2014 16:00:00 19.54286 C 9.71 g/m*3 19.54 C 7.35714 km/h
Sensor: Nr:Datum:Temp:Abs-Feuchte:Windchill:Wind:
Aussen-T/F 2901 11-04-2014 17:00:00 18.01667 C 9.63 g/m*3 18.02 C 9.825 km/h
2902 11-04-2014 18:00:00 16.775 C 9.14 g/m*3 16.77 C 11.7 km/h
2903 11-04-2014 19:00:00 15.29167 C 9.16 g/m*3 15.29 C 8.48333 km/h
2904 11-04-2014 20:00:00 14.31667 C 8.94 g/m*3 14.32 C 6.15833 km/h
2905 11-04-2014 21:00:00 13.6 C 9 g/m*3 13.6 C 6.43333 km/h
2906 11-04-2014 22:00:00 12.85833 C 8.81 g/m*3 12.86 C 6.575 km/h
2907 11-04-2014 23:00:00 12.325 C 8.65 g/m*3 12.33 C 4.825 km/h
2908 12-04-2014 00:00:00 11.46667 C 8.45 g/m*3 11.47 C 3.2 km/h
2909 12-04-2014 01:00:00 10.175 C 8.26 g/m*3 10.18 C 1.86667 km/h
2910 12-04-2014 02:00:00 9.86667 C 8.14 g/m*3 9.87 C 0.66667 km/h
2911 12-04-2014 03:00:00 9.825 C 7.92 g/m*3 9.82 C 1.20833 km/h
2912 12-04-2014 04:00:00 9.85 C 7.77 g/m*3 9.85 C 1.33333 km/h
2913 12-04-2014 05:00:00 9.26667 C 7.75 g/m*3 9.27 C 0.4 km/h
2914 12-04-2014 06:00:00 9.21667 C 7.72 g/m*3 9.22 C 0.13333 km/h
2915 12-04-2014 07:00:00 9.09167 C 7.71 g/m*3 9.09 C 0.66667 km/h
2916 12-04-2014 08:00:00 9.375 C 7.63 g/m*3 9.38 C 2.13333 km/h
2917 12-04-2014 09:00:00 10.05833 C 7.75 g/m*3 10.06 C 3.06667 km/h
2918 12-04-2014 10:00:00 11.45833 C 8.16 g/m*3 11.46 C 5.20833 km/h
2919 12-04-2014 11:00:00 12.66667 C 8.36 g/m*3 12.67 C 6.825 km/h
2920 12-04-2014 12:00:00 13.96667 C 8.63 g/m*3 13.97 C 5.88333 km/h
2921 12-04-2014 13:00:00 16.03333 C 8.67 g/m*3 16.03 C 6.98333 km/h
2922 12-04-2014 14:00:00 16.95833 C 7.93 g/m*3 16.96 C 9.26667 km/h
2923 12-04-2014 15:00:00 17.55 C 7.8 g/m*3 17.55 C 9.15 km/h
2924 12-04-2014 16:00:00 18.20833 C 6.97 g/m*3 18.21 C 8.05 km/h
2925 12-04-2014 17:00:00 17.225 C 6.95 g/m*3 17.23 C 10.09167 km/h
Sensor: Nr:Datum:Temp:Abs-Feuchte:Windchill:Wind:
Aussen-T/F 2926 12-04-2014 18:00:00 15.78333 C 7.02 g/m*3 15.78 C 8.06667 km/h
2927 12-04-2014 19:00:00 15.16667 C 6.91 g/m*3 15.17 C 7.88889 km/h
2928 12-04-2014 20:00:00 14.08333 C 6.75 g/m*3 14.08 C 5.35 km/h
2929 12-04-2014 21:00:00 13.28333 C 7.11 g/m*3 13.28 C 2.93333 km/h
2930 12-04-2014 22:00:00 11.95 C 7.15 g/m*3 11.95 C 0.66667 km/h
2931 12-04-2014 23:00:00 11.79167 C 7.01 g/m*3 11.79 C 1.33333 km/h
2932 13-04-2014 00:00:00 11.44167 C 7.25 g/m*3 11.44 C 0.4 km/h
2933 13-04-2014 01:00:00 11.075 C 7.36 g/m*3 11.08 C 1.86667 km/h
2934 13-04-2014 02:00:00 10.81667 C 7.33 g/m*3 10.82 C 1.33333 km/h
2935 13-04-2014 03:00:00 9.96667 C 7.27 g/m*3 9.97 C 0.93333 km/h
2936 13-04-2014 04:00:00 9.69167 C 7.25 g/m*3 9.69 C 0.8 km/h
2937 13-04-2014 05:00:00 8.63333 C 7.03 g/m*3 8.63 C 0.8 km/h
2938 13-04-2014 06:00:00 7.41667 C 6.82 g/m*3 7.42 C 0.8 km/h
2939 13-04-2014 07:00:00 6.75833 C 6.71 g/m*3 6.76 C 0.53333 km/h
2940 13-04-2014 08:00:00 7.3 C 6.97 g/m*3 7.3 C 1.06667 km/h
2941 13-04-2014 09:00:00 9.475 C 7.35 g/m*3 9.48 C 2.8 km/h
2942 13-04-2014 10:00:00 11 C 7.42 g/m*3 11 C 2.93333 km/h
2943 13-04-2014 11:00:00 12.75833 C 7.5 g/m*3 12.76 C 5.76667 km/h
2944 13-04-2014 12:00:00 14.14444 C 7.57 g/m*3 14.14 C 6.43333 km/h
2945 13-04-2014 13:00:00 14.65455 C 7.81 g/m*3 14.65 C 8.2 km/h
2946 13-04-2014 14:00:00 14.675 C 7.98 g/m*3 14.68 C 6.16667 km/h
2947 13-04-2014 15:00:00 14.9 C 7.97 g/m*3 14.9 C 11.00833 km/h
2948 13-04-2014 16:00:00 14.93333 C 7.91 g/m*3 14.93 C 9.14167 km/h
2949 13-04-2014 17:00:00 15.01667 C 7.35 g/m*3 15.02 C 10.09167 km/h
2950 13-04-2014 18:00:00 15.1 C 7.03 g/m*3 15.1 C 9.675 km/h
Sensor: Nr:Datum:Temp:Abs-Feuchte:Windchill:Wind:
Aussen-T/F 2951 13-04-2014 19:00:00 13.84167 C 6.98 g/m*3 13.84 C 8.6 km/h
2952 13-04-2014 20:00:00 13 C 7.29 g/m*3 13 C 3.60833 km/h
2953 13-04-2014 21:00:00 11.98333 C 7.35 g/m*3 11.98 C 2 km/h
2954 13-04-2014 22:00:00 11.10833 C 7.2 g/m*3 11.11 C 3.6 km/h
2955 13-04-2014 23:00:00 9.75833 C 7.02 g/m*3 9.76 C 3.06667 km/h
2956 14-04-2014 00:00:00 8.85833 C 6.92 g/m*3 8.86 C 3.2 km/h
2957 14-04-2014 01:00:00 9.30833 C 6.96 g/m*3 8.9 C 5.21667 km/h
2958 14-04-2014 02:00:00 8.825 C 6.92 g/m*3 8.82 C 2.66667 km/h
2959 14-04-2014 03:00:00 7.375 C 6.72 g/m*3 7.38 C 4.7 km/h
2960 14-04-2014 04:00:00 7.575 C 6.74 g/m*3 5.82 C 9.55 km/h
2961 14-04-2014 05:00:00 7.875 C 6.79 g/m*3 6.2 C 9.43333 km/h
2962 14-04-2014 06:00:00 8.43333 C 6.89 g/m*3 7.12 C 8.19167 km/h
2963 14-04-2014 07:00:00 8.60833 C 6.97 g/m*3 7.75 C 6.45 km/h
2964 14-04-2014 08:00:00 8.85 C 7.11 g/m*3 7.47 C 8.88333 km/h
2965 14-04-2014 09:00:00 9.825 C 7.05 g/m*3 8.68 C 8.6 km/h
2966 14-04-2014 10:00:00 10.49167 C 6.66 g/m*3 8.33 C 16.64167 km/h
2967 14-04-2014 11:00:00 9.94167 C 6.9 g/m*3 8.46 C 10.60833 km/h
2968 14-04-2014 12:00:00 11.4 C 6.34 g/m*3 11.4 C 16.36667 km/h
2969 14-04-2014 13:00:00 12.83333 C 6.07 g/m*3 12.83 C 17.03333 km/h
2970 14-04-2014 14:00:00 13.39167 C 5.99 g/m*3 13.39 C 21.58333 km/h
2971 14-04-2014 15:00:00 13.20833 C 5.96 g/m*3 13.21 C 22.8 km/h
2972 14-04-2014 16:00:00 12.89167 C 6.4 g/m*3 12.89 C 19.05 km/h
2973 14-04-2014 17:00:00 13.31667 C 6.05 g/m*3 13.32 C 18.63333 km/h
2974 14-04-2014 18:00:00 12.76667 C 5.76 g/m*3 12.77 C 18.76667 km/h
2975 14-04-2014 19:00:00 11.6 C 5.45 g/m*3 11.6 C 19.70833 km/h
Sensor: Nr:Datum:Temp:Abs-Feuchte:Windchill:Wind:
Aussen-T/F 2976 14-04-2014 20:00:00 7.96667 C 6.32 g/m*3 5.95 C 11.4 km/h
2977 14-04-2014 21:00:00 6.58889 C 6.34 g/m*3 5.32 C 6.78889 km/h
2978 14-04-2014 22:00:00 5.9 C 6.07 g/m*3 4.8 C 5.88333 km/h
2979 14-04-2014 23:00:00 5.6 C 6.15 g/m*3 5.6 C 2.26667 km/h
2980 15-04-2014 00:00:00 6.11667 C 6.18 g/m*3 5 C 6.03333 km/h
2981 15-04-2014 01:00:00 5.65833 C 5.95 g/m*3 4.38 C 6.30833 km/h
2982 15-04-2014 02:00:00 5.025 C 5.75 g/m*3 5.03 C 4.95 km/h
2983 15-04-2014 03:00:00 4.64444 C 5.72 g/m*3 4.64 C 1.95556 km/h
2984 15-04-2014 04:00:00 4.04167 C 5.62 g/m*3 4.04 C 2.8 km/h
2985 15-04-2014 05:00:00 3.91667 C 5.62 g/m*3 3.92 C 4.275 km/h
2986 15-04-2014 06:00:00 4.125 C 5.69 g/m*3 4.13 C 2.54167 km/h
2987 15-04-2014 07:00:00 4.01667 C 5.66 g/m*3 4.02 C 4.95833 km/h
2988 15-04-2014 08:00:00 4.9 C 5.84 g/m*3 2.62 C 9.65 km/h
2989 15-04-2014 09:00:00 6.175 C 6.01 g/m*3 3.76 C 11.56667 km/h
2990 15-04-2014 10:00:00 7.16667 C 5.82 g/m*3 5.03 C 11.16667 km/h
2991 15-04-2014 11:00:00 7.175 C 5.59 g/m*3 5.11 C 10.76667 km/h
2992 15-04-2014 12:00:00 7.99167 C 5.41 g/m*3 6.14 C 10.48333 km/h
2993 15-04-2014 13:00:00 9.2 C 5.31 g/m*3 7.66 C 10.08333 km/h
2994 15-04-2014 14:00:00 9.4 C 5.26 g/m*3 7.72 C 11.15833 km/h
2995 15-04-2014 15:00:00 9.44167 C 5.17 g/m*3 7.75 C 11.3 km/h
2996 15-04-2014 16:00:00 9.55833 C 5.22 g/m*3 8.34 C 8.73333 km/h
2997 15-04-2014 17:00:00 10.09167 C 5.21 g/m*3 8.28 C 13.03333 km/h
2998 15-04-2014 18:00:00 10.56667 C 5.87 g/m*3 9 C 12.01111 km/h
2999 15-04-2014 19:00:00 9.64167 C 7.02 g/m*3 9.32 C 5.09167 km/h
3000 15-04-2014 20:00:00 9.02 C 5.42 g/m*3 9.02 C 3.86 km/h
Sensor: Nr:Datum:Temp:Abs-Feuchte:Windchill:Wind:
Aussen-T/F 3001 16-04-2014 11:00:00 9.8 C 5.98 g/m*3 9.13 C 6.45 km/h
3002 16-04-2014 12:00:00 11.3 C 5.57 g/m*3 11.3 C 8.86667 km/h
3003 16-04-2014 13:00:00 13.9 C 5.52 g/m*3 13.9 C 9.54167 km/h
3004 16-04-2014 14:00:00 15.10833 C 5.45 g/m*3 15.11 C 10.21667 km/h
3005 16-04-2014 15:00:00 15.9 C 5.46 g/m*3 15.9 C 9.275 km/h
3006 16-04-2014 16:00:00 16.69167 C 5.29 g/m*3 16.69 C 9.80833 km/h
3007 16-04-2014 17:00:00 16.81667 C 5.26 g/m*3 16.82 C 11.16667 km/h
3008 16-04-2014 18:00:00 16.64167 C 5.16 g/m*3 16.64 C 9.00833 km/h
3009 16-04-2014 19:00:00 15.75 C 5.21 g/m*3 15.75 C 6.70833 km/h
3010 16-04-2014 20:00:00 11.13333 C 5.67 g/m*3 11.13 C 4 km/h
3011 16-04-2014 21:00:00 8.55 C 5.44 g/m*3 8.09 C 5.06667 km/h
3012 16-04-2014 22:00:00 7.675 C 5.45 g/m*3 7.68 C 4.66667 km/h
3013 16-04-2014 23:00:00 6.725 C 5.44 g/m*3 6.73 C 2.53333 km/h
3014 17-04-2014 00:00:00 5.65 C 5.33 g/m*3 5.65 C 0 km/h
3015 17-04-2014 01:00:00 4.85833 C 5.27 g/m*3 4.86 C 0 km/h
3016 17-04-2014 02:00:00 4.08333 C 5.17 g/m*3 4.08 C 0.4 km/h
3017 17-04-2014 03:00:00 3.4 C 5.24 g/m*3 3.4 C 0.4 km/h
3018 17-04-2014 04:00:00 2.60833 C 5.06 g/m*3 2.61 C 0 km/h
3019 17-04-2014 05:00:00 1.88333 C 4.92 g/m*3 1.88 C 0.13333 km/h
3020 17-04-2014 06:00:00 1.5 C 4.89 g/m*3 1.5 C 0 km/h
3021 17-04-2014 07:00:00 1.39167 C 4.9 g/m*3 1.39 C 0 km/h
3022 17-04-2014 08:00:00 2.10833 C 5.14 g/m*3 2.11 C 0 km/h
3023 17-04-2014 09:00:00 4.18333 C 5.6 g/m*3 4.18 C 0.26667 km/h
3024 17-04-2014 10:00:00 7.04167 C 6.11 g/m*3 7.04 C 0.53333 km/h
3025 17-04-2014 11:00:00 10.525 C 5.93 g/m*3 10.53 C 4.84167 km/h
Sensor: Nr:Datum:Temp:Abs-Feuchte:Windchill:Wind:
Aussen-T/F 3026 17-04-2014 12:00:00 13.66667 C 5.5 g/m*3 13.67 C 7.91667 km/h
3027 17-04-2014 13:00:00 15.53333 C 5.23 g/m*3 15.53 C 8.61667 km/h
3028 17-04-2014 14:00:00 16.15833 C 5.26 g/m*3 16.16 C 6.425 km/h
3029 17-04-2014 15:00:00 16.98333 C 5.41 g/m*3 16.98 C 6.15833 km/h
3030 17-04-2014 16:00:00 18.75833 C 5.48 g/m*3 18.76 C 10.2 km/h
3031 17-04-2014 17:00:00 19.475 C 5.21 g/m*3 19.48 C 9.825 km/h
3032 17-04-2014 18:00:00 19.54167 C 5.41 g/m*3 19.54 C 4.95833 km/h
3033 17-04-2014 19:00:00 16.58333 C 6.37 g/m*3 16.58 C 3.46667 km/h
3034 17-04-2014 20:00:00 12.6 C 6.32 g/m*3 12.6 C 3.46667 km/h
3035 17-04-2014 21:00:00 12.46667 C 5.97 g/m*3 12.47 C 2.66667 km/h
3036 17-04-2014 22:00:00 12.91667 C 5.71 g/m*3 12.92 C 3.2 km/h
3037 17-04-2014 23:00:00 12.55833 C 6.03 g/m*3 12.56 C 2.53333 km/h
3038 18-04-2014 00:00:00 11.76667 C 6.27 g/m*3 11.77 C 3.075 km/h
3039 18-04-2014 01:00:00 11.38333 C 7.25 g/m*3 11.38 C 5.09167 km/h
3040 18-04-2014 02:00:00 10.95 C 7.37 g/m*3 10.43 C 6.56667 km/h
3041 18-04-2014 03:00:00 11.55833 C 7.46 g/m*3 11.56 C 10.75 km/h
3042 18-04-2014 04:00:00 10.13333 C 7.71 g/m*3 8.69 C 10.61667 km/h
3043 18-04-2014 05:00:00 8.80833 C 7.54 g/m*3 7.72 C 7.51667 km/h
3044 18-04-2014 06:00:00 8.4 C 7.43 g/m*3 7.15 C 7.90833 km/h
3045 18-04-2014 07:00:00 8.38333 C 7.19 g/m*3 6.95 C 8.725 km/h
3046 18-04-2014 08:00:00 8.54167 C 6.86 g/m*3 6.53 C 12.09167 km/h
3047 18-04-2014 09:00:00 9.05833 C 6.36 g/m*3 6.8 C 14.63333 km/h
3048 18-04-2014 10:00:00 9.225 C 6.36 g/m*3 7.08 C 14.09167 km/h
3049 18-04-2014 11:00:00 9.49167 C 6.54 g/m*3 7.67 C 12.225 km/h
3050 18-04-2014 12:00:00 10.00833 C 6.63 g/m*3 8.13 C 13.425 km/h
Sensor: Nr:Datum:Temp:Abs-Feuchte:Windchill:Wind:
Aussen-T/F 3051 18-04-2014 13:00:00 12.375 C 6.14 g/m*3 12.38 C 15.03333 km/h
3052 18-04-2014 14:00:00 13.325 C 5.62 g/m*3 13.33 C 14.9 km/h
3053 18-04-2014 15:00:00 13.6 C 5.09 g/m*3 13.6 C 17.7 km/h
3054 18-04-2014 16:00:00 14.55 C 4.82 g/m*3 14.55 C 17.3 km/h
3055 18-04-2014 17:00:00 14.13333 C 4.85 g/m*3 14.13 C 17.16667 km/h
3056 18-04-2014 18:00:00 13.90833 C 4.9 g/m*3 13.91 C 14.9 km/h
3057 18-04-2014 19:00:00 13.19167 C 4.8 g/m*3 13.19 C 9.54167 km/h
3058 18-04-2014 20:00:00 10.21667 C 5.22 g/m*3 10.22 C 2.275 km/h
3059 18-04-2014 21:00:00 8.725 C 5.64 g/m*3 8.73 C 1.46667 km/h
3060 18-04-2014 22:00:00 8.20833 C 5.85 g/m*3 8.21 C 1.86667 km/h
3061 18-04-2014 23:00:00 7.35 C 6.01 g/m*3 7.35 C 1.33333 km/h
3062 19-04-2014 00:00:00 7.725 C 6.19 g/m*3 7.73 C 0 km/h
3063 19-04-2014 01:00:00 6.825 C 6.07 g/m*3 6.83 C 1.06667 km/h
3064 19-04-2014 02:00:00 5.83333 C 5.95 g/m*3 5.83 C 2.13333 km/h
3065 19-04-2014 03:00:00 5.14167 C 5.86 g/m*3 5.14 C 1.46667 km/h
3066 19-04-2014 04:00:00 5.16667 C 5.93 g/m*3 5.17 C 0.4 km/h
3067 19-04-2014 05:00:00 4.15833 C 5.69 g/m*3 4.16 C 0.4 km/h
3068 19-04-2014 06:00:00 4.08333 C 5.79 g/m*3 4.08 C 0 km/h
3069 19-04-2014 07:00:00 4.35833 C 5.93 g/m*3 4.36 C 0 km/h
3070 19-04-2014 08:00:00 4.95833 C 6.1 g/m*3 4.96 C 0.53333 km/h
3071 19-04-2014 09:00:00 6.06667 C 6.45 g/m*3 6.07 C 0.13333 km/h
3072 19-04-2014 10:00:00 8.76667 C 6.74 g/m*3 7.7 C 7.39167 km/h
3073 19-04-2014 11:00:00 10.48333 C 6.6 g/m*3 9.02 C 11.15833 km/h
3074 19-04-2014 12:00:00 11.96667 C 6.51 g/m*3 11.97 C 13.29167 km/h
3075 19-04-2014 13:00:00 14.75 C 6.8 g/m*3 14.75 C 14.23333 km/h
Sensor: Nr:Datum:Temp:Abs-Feuchte:Windchill:Wind:
Aussen-T/F 3076 19-04-2014 14:00:00 16.4 C 7.06 g/m*3 16.4 C 13.16667 km/h
3077 19-04-2014 15:00:00 17.75 C 7.15 g/m*3 17.75 C 17.3 km/h
3078 19-04-2014 16:00:00 18.675 C 7.77 g/m*3 18.68 C 15.43333 km/h
3079 19-04-2014 17:00:00 18.325 C 8.01 g/m*3 18.33 C 14.63333 km/h
3080 19-04-2014 18:00:00 17.90833 C 8.26 g/m*3 17.91 C 11.01667 km/h
3081 19-04-2014 19:00:00 17.09167 C 8.38 g/m*3 17.09 C 8.86667 km/h
3082 19-04-2014 20:00:00 14.75 C 8.49 g/m*3 14.75 C 2.53333 km/h
3083 19-04-2014 21:00:00 13.825 C 8.46 g/m*3 13.83 C 5.36667 km/h
3084 19-04-2014 22:00:00 12.74167 C 8.58 g/m*3 12.74 C 3.34167 km/h
3085 19-04-2014 23:00:00 11.94167 C 8.69 g/m*3 11.94 C 2.93333 km/h
3086 20-04-2014 00:00:00 11.43333 C 8.8 g/m*3 11.43 C 2.66667 km/h
3087 20-04-2014 01:00:00 11.35 C 8.96 g/m*3 11.35 C 2.26667 km/h
3088 20-04-2014 02:00:00 11.375 C 9.03 g/m*3 11.38 C 2.8 km/h
3089 20-04-2014 03:00:00 11.19167 C 9.06 g/m*3 11.19 C 2.93333 km/h
3090 20-04-2014 04:00:00 11.23333 C 9.08 g/m*3 11.23 C 2.4 km/h
3091 20-04-2014 05:00:00 11.025 C 8.98 g/m*3 11.03 C 2.53333 km/h
3092 20-04-2014 06:00:00 10.50833 C 8.9 g/m*3 10.51 C 2 km/h
3093 20-04-2014 07:00:00 10.43333 C 8.96 g/m*3 10.43 C 0.53333 km/h
3094 20-04-2014 08:00:00 11.18889 C 9.35 g/m*3 11.19 C 1.06667 km/h
3095 20-04-2014 09:00:00 12.6 C 9.72 g/m*3 12.6 C 2.80833 km/h
3096 20-04-2014 10:00:00 15.28333 C 9.63 g/m*3 15.28 C 7.91667 km/h
3097 20-04-2014 11:00:00 17.14167 C 9.55 g/m*3 17.14 C 9.13333 km/h
3098 20-04-2014 12:00:00 18.75833 C 9.08 g/m*3 18.76 C 10.09167 km/h
3099 20-04-2014 13:00:00 20.65 C 8.68 g/m*3 20.65 C 12.625 km/h
3100 20-04-2014 14:00:00 20.39167 C 8.31 g/m*3 20.39 C 10.20833 km/h
Sensor: Nr:Datum:Temp:Abs-Feuchte:Windchill:Wind:
Aussen-T/F 3101 20-04-2014 15:00:00 20.6 C 8.2 g/m*3 20.6 C 8.325 km/h
3102 20-04-2014 16:00:00 21.6 C 7.9 g/m*3 21.6 C 8.60833 km/h
3103 20-04-2014 17:00:00 21.86667 C 7.8 g/m*3 21.87 C 8.2 km/h
3104 20-04-2014 18:00:00 19.4 C 8.19 g/m*3 19.4 C 3.08333 km/h
3105 20-04-2014 19:00:00 16.3 C 8.51 g/m*3 16.3 C 2.53333 km/h
3106 20-04-2014 20:00:00 14.39167 C 7.97 g/m*3 14.39 C 4.4 km/h
3107 20-04-2014 21:00:00 13.40833 C 7.82 g/m*3 13.41 C 3.6 km/h
3108 20-04-2014 22:00:00 12.96667 C 7.88 g/m*3 12.97 C 2.53333 km/h
3109 20-04-2014 23:00:00 12.00833 C 7.84 g/m*3 12.01 C 2.53333 km/h
3110 21-04-2014 00:00:00 10.99167 C 7.64 g/m*3 10.99 C 1.6 km/h
3111 21-04-2014 01:00:00 10.09167 C 7.55 g/m*3 10.09 C 1.2 km/h
3112 21-04-2014 02:00:00 9.73333 C 7.43 g/m*3 9.73 C 2.13333 km/h
3113 21-04-2014 03:00:00 8.88333 C 7.31 g/m*3 8.88 C 1.06667 km/h
3114 21-04-2014 04:00:00 8.46667 C 7.25 g/m*3 8.47 C 0.26667 km/h
3115 21-04-2014 05:00:00 7.54167 C 7.07 g/m*3 7.54 C 0 km/h
3116 21-04-2014 06:00:00 6.76667 C 6.96 g/m*3 6.77 C 0.26667 km/h
3117 21-04-2014 07:00:00 6.45 C 6.94 g/m*3 6.45 C 0 km/h
3118 21-04-2014 08:00:00 7.125 C 7.34 g/m*3 7.13 C 0 km/h
3119 21-04-2014 09:00:00 9.025 C 8.12 g/m*3 9.03 C 0 km/h
3120 21-04-2014 10:00:00 11.71667 C 8.83 g/m*3 11.72 C 2.66667 km/h
3121 21-04-2014 11:00:00 15.35 C 8.73 g/m*3 15.35 C 5.075 km/h
3122 21-04-2014 12:00:00 17.86667 C 8.46 g/m*3 17.87 C 8.45833 km/h
3123 21-04-2014 13:00:00 19.8 C 8.45 g/m*3 19.8 C 6.96667 km/h
3124 21-04-2014 14:00:00 18.94167 C 9.34 g/m*3 18.94 C 8.18333 km/h
3125 21-04-2014 15:00:00 18.15833 C 10.47 g/m*3 18.16 C 5.35 km/h
Sensor: Nr:Datum:Temp:Abs-Feuchte:Windchill:Wind:
Aussen-T/F 3126 21-04-2014 16:00:00 19.575 C 9.31 g/m*3 19.58 C 8.325 km/h
3127 21-04-2014 17:00:00 20.69167 C 8.7 g/m*3 20.69 C 11.29167 km/h
3128 21-04-2014 18:00:00 17.23333 C 9.18 g/m*3 17.23 C 9.66667 km/h
3129 21-04-2014 19:00:00 13.68333 C 9.67 g/m*3 13.68 C 8.30833 km/h
3130 21-04-2014 20:00:00 11.16667 C 9.42 g/m*3 11.17 C 2.4 km/h
3131 21-04-2014 21:00:00 10.91667 C 9.45 g/m*3 10.92 C 0.26667 km/h
3132 21-04-2014 22:00:00 10.14167 C 9.05 g/m*3 10.14 C 0.8 km/h
3133 21-04-2014 23:00:00 9.55833 C 8.77 g/m*3 9.56 C 0.13333 km/h
3134 22-04-2014 00:00:00 8.925 C 8.43 g/m*3 8.93 C 0.13333 km/h
3135 22-04-2014 01:00:00 8.79167 C 8.42 g/m*3 8.79 C 0.66667 km/h
3136 22-04-2014 02:00:00 8.81667 C 8.45 g/m*3 8.82 C 0.4 km/h
3137 22-04-2014 03:00:00 8.575 C 8.32 g/m*3 8.57 C 0 km/h
3138 22-04-2014 04:00:00 8.30833 C 8.18 g/m*3 8.31 C 0.26667 km/h
3139 22-04-2014 05:00:00 8.68333 C 8.42 g/m*3 8.68 C 2.14167 km/h
3140 22-04-2014 06:00:00 8.69167 C 8.38 g/m*3 8.69 C 0.26667 km/h
3141 22-04-2014 07:00:00 9.13333 C 8.69 g/m*3 9.13 C 0 km/h
3142 22-04-2014 08:00:00 10.125 C 9.27 g/m*3 10.13 C 3.075 km/h
3143 22-04-2014 09:00:00 11.05833 C 9.5 g/m*3 11.06 C 9.40833 km/h
3144 22-04-2014 10:00:00 12.68333 C 9.69 g/m*3 12.68 C 11.025 km/h
3145 22-04-2014 11:00:00 13.48333 C 9.77 g/m*3 13.48 C 7.375 km/h
3146 22-04-2014 12:00:00 14.11667 C 9.92 g/m*3 14.12 C 6.30833 km/h
3147 22-04-2014 13:00:00 15.80833 C 10.57 g/m*3 15.81 C 4.95 km/h
3148 22-04-2014 14:00:00 17.46667 C 10.54 g/m*3 17.47 C 4.95 km/h
3149 22-04-2014 15:00:00 17.91667 C 10.52 g/m*3 17.92 C 5.625 km/h
3150 22-04-2014 16:00:00 18.51667 C 10.58 g/m*3 18.52 C 4.95833 km/h
Sensor: Nr:Datum:Temp:Abs-Feuchte:Windchill:Wind:
Aussen-T/F 3151 22-04-2014 17:00:00 18.85 C 10.61 g/m*3 18.85 C 5.35 km/h
3152 22-04-2014 18:00:00 19.23333 C